[[{"header":{"parameterUnit":"m.s-1","parameterCategory":1,"la1":30.6,"la2":29.2853,"lo1":-89.7004,"lo2":-87.6739,"dy":0.0162,"dx":0.0183,"nx":112,"ny":82,"refTime":"2023-04-29T00:00:00:Z","depth":0,"parameterNumber":2,"parameterNumberName":"U-component_of_WINDS"},"data":[0.0,0.0,0.0,0.0,0.0,0.0,0.0,0.0,0.0,0.0,0.0,0.0,0.0,0.0,0.0,0.0,0.0,0.0,0.0,0.0,0.0,0.0,0.0,0.0,0.0,0.0,0.0,0.0,0.0,0.0,0.0,0.0,0.0,0.0,0.0,0.0,0.0,0.0,0.0,0.0,0.0,0.0,0.0,0.0,0.0,0.0,0.0,0.0,0.0,0.0,0.0,0.0,0.0,0.0,0.0,0.0,0.0,0.0,0.0,0.0,0.0,0.0,0.0,0.0,0.0,0.0,0.0,0.0,0.0,0.0,0.0,0.0,0.0,0.0,0.0,0.0,0.0,0.0,0.0,0.0,0.0,0.0,0.0,0.0,0.0,0.0,0.0,0.0,0.0,0.0,2.1328,2.6312,2.8423,2.9338,2.9038,2.8845,2.7145,2.3334,0.0,0.0,0.0,0.0,0.0,0.0,0.0,0.0,0.0,0.0,0.0,0.0,0.0,0.0,0.0,0.0,0.0,0.0,0.0,0.0,0.0,0.0,0.0,0.0,0.0,0.0,0.0,0.0,0.0,0.0,0.0,0.0,0.0,0.0,0.0,0.0,0.0,0.0,0.0,0.0,0.0,0.0,0.0,0.0,0.0,0.0,0.0,0.0,0.0,0.0,0.0,0.0,0.0,0.0,0.0,0.0,0.0,0.0,0.0,0.0,0.0,0.0,0.0,0.0,0.0,0.0,0.0,0.0,0.0,0.0,0.0,0.0,0.0,0.0,0.0,0.0,0.0,0.0,0.0,0.0,0.0,0.0,0.0,0.0,0.0,0.0,0.0,0.0,0.0,0.0,0.0,0.0,0.0,0.0,0.0,0.0,0.0,0.0,0.0,0.0,0.0,0.0,0.0,0.0,2.3118,2.7944,2.8967,2.9233,2.9016,2.8725,2.6997,2.334,0.0,0.0,0.0,0.0,0.0,0.0,0.0,0.0,0.0,0.0,0.0,0.0,0.0,0.0,0.0,0.0,0.0,0.0,0.0,0.0,0.0,0.0,0.0,0.0,0.0,0.0,0.0,0.0,0.0,0.0,0.0,0.0,0.0,0.0,0.0,0.0,0.0,0.0,0.0,0.0,0.0,0.0,0.0,0.0,0.0,0.0,0.0,0.0,0.0,0.0,0.0,0.0,0.0,0.0,0.0,0.0,0.0,0.0,0.0,0.0,0.0,0.0,0.0,0.0,0.0,0.0,0.0,0.0,0.0,0.0,0.0,0.0,0.0,0.0,0.0,0.0,0.0,0.0,0.0,0.0,0.0,0.0,0.0,0.0,0.0,0.0,0.0,0.0,0.0,0.0,0.0,0.0,0.0,0.0,0.0,0.0,0.0,0.0,0.0,0.0,0.0,0.0,0.0,2.3775,2.7218,2.9321,2.9538,2.9397,2.9064,2.8845,2.7103,2.3274,2.308,0.0,0.0,0.0,0.0,0.0,0.0,0.0,0.0,0.0,0.0,0.0,0.0,0.0,0.0,0.0,0.0,0.0,0.0,0.0,0.0,0.0,0.0,0.0,0.0,0.0,0.0,0.0,0.0,0.0,0.0,0.0,0.0,0.0,0.0,0.0,0.0,0.0,0.0,0.0,0.0,0.0,0.0,0.0,0.0,0.0,0.0,0.0,0.0,0.0,0.0,0.0,0.0,0.0,0.0,0.0,0.0,0.0,0.0,0.0,0.0,0.0,0.0,0.0,0.0,0.0,0.0,0.0,0.0,0.0,0.0,0.0,0.0,0.0,0.0,0.0,0.0,0.0,0.0,0.0,0.0,0.0,0.0,0.0,0.0,0.0,0.0,0.0,0.0,0.0,0.0,0.0,0.0,0.0,0.0,0.0,0.0,0.0,0.0,0.0,0.0,0.0,0.0,2.6795,2.9675,3.0145,2.988,2.9514,2.9086,2.8915,2.7085,2.3003,2.2895,0.0,0.0,0.0,0.0,0.0,0.0,0.0,0.0,0.0,0.0,0.0,0.0,0.0,0.0,0.0,0.0,0.0,0.0,0.0,0.0,0.0,0.0,0.0,0.0,0.0,0.0,0.0,0.0,0.0,0.0,0.0,0.0,0.0,0.0,0.0,0.0,0.0,0.0,0.0,0.0,0.0,0.0,0.0,0.0,0.0,0.0,0.0,0.0,0.0,0.0,0.0,0.0,0.0,0.0,0.0,0.0,0.0,0.0,0.0,0.0,0.0,0.0,0.0,0.0,0.0,0.0,0.0,0.0,0.0,0.0,0.0,0.0,0.0,0.0,0.0,0.0,0.0,0.0,0.0,0.0,0.0,0.0,0.0,0.0,0.0,0.0,0.0,0.0,0.0,0.0,0.0,0.0,0.0,0.0,0.0,0.0,0.0,0.0,0.0,0.0,0.0,0.0,2.5222,2.7706,2.9868,2.981,2.942,2.8956,2.8713,2.6705,2.2248,2.2566,0.0,0.0,0.0,0.0,0.0,0.0,0.0,0.0,0.0,0.0,0.0,0.0,0.0,0.0,0.0,0.0,0.0,0.0,0.0,0.0,0.0,0.0,0.0,0.0,0.0,0.0,0.0,0.0,0.0,0.0,0.0,0.0,0.0,0.0,0.0,0.0,0.0,0.0,0.0,0.0,0.0,0.0,0.0,0.0,0.0,0.0,0.0,0.0,0.0,0.0,0.0,0.0,0.0,0.0,0.0,0.0,0.0,0.0,0.0,0.0,0.0,0.0,0.0,0.0,0.0,0.0,0.0,0.0,0.0,0.0,0.0,0.0,0.0,0.0,0.0,0.0,0.0,0.0,0.0,0.0,0.0,0.0,0.0,0.0,0.0,0.0,0.0,0.0,0.0,0.0,0.0,0.0,0.0,0.0,0.0,0.0,0.0,0.0,0.0,0.0,0.0,0.0,2.6438,2.9233,0.0,2.9912,2.9643,2.9148,2.8883,2.689,2.2438,0.0,0.0,0.0,0.0,0.0,0.0,0.0,0.0,0.0,0.0,0.0,0.0,0.0,0.0,0.0,0.0,0.0,0.0,0.0,0.0,0.0,0.0,0.0,0.0,0.0,0.0,0.0,0.0,0.0,0.0,0.0,0.0,0.0,0.0,0.0,0.0,0.0,0.0,0.0,0.0,0.0,0.0,0.0,0.0,0.0,0.0,0.0,0.0,0.0,0.0,0.0,0.0,0.0,0.0,0.0,0.0,0.0,0.0,0.0,0.0,0.0,0.0,0.0,0.0,0.0,0.0,0.0,0.0,0.0,0.0,0.0,0.0,0.0,0.0,0.0,0.0,0.0,0.0,0.0,0.0,0.0,0.0,0.0,0.0,0.0,0.0,0.0,0.0,0.0,0.0,0.0,0.0,0.0,0.0,0.0,0.0,0.0,0.0,0.0,0.0,0.0,0.0,2.289,2.7334,3.0271,0.0,2.9884,2.9723,2.8924,2.8894,2.6944,2.2335,0.0,0.0,0.0,0.0,0.0,0.0,0.0,0.0,0.0,0.0,0.0,0.0,0.0,0.0,0.0,0.0,0.0,0.0,0.0,0.0,0.0,0.0,0.0,0.0,0.0,0.0,0.0,0.0,0.0,0.0,0.0,0.0,0.0,0.0,0.0,0.0,0.0,0.0,0.0,0.0,0.0,0.0,0.0,0.0,0.0,0.0,0.0,0.0,0.0,0.0,0.0,0.0,0.0,0.0,0.0,0.0,0.0,0.0,0.0,0.0,0.0,0.0,0.0,0.0,0.0,0.0,0.0,0.0,0.0,0.0,0.0,0.0,0.0,0.0,0.0,0.0,0.0,0.0,0.0,0.0,0.0,0.0,0.0,0.0,0.0,0.0,0.0,0.0,0.0,0.0,0.0,0.0,0.0,0.0,0.0,0.0,0.0,0.0,0.0,0.0,0.0,0.0,2.29,2.7412,3.0192,2.9118,2.966,2.9566,2.8222,2.8587,2.6786,0.0,0.0,0.0,0.0,0.0,0.0,0.0,0.0,0.0,0.0,0.0,0.0,0.0,0.0,0.0,0.0,0.0,0.0,0.0,0.0,0.0,0.0,0.0,0.0,0.0,0.0,0.0,0.0,0.0,0.0,0.0,0.0,0.0,0.0,0.0,0.0,0.0,0.0,0.0,0.0,0.0,0.0,0.0,0.0,0.0,0.0,0.0,0.0,0.0,0.0,0.0,0.0,0.0,0.0,0.0,0.0,0.0,0.0,0.0,0.0,0.0,0.0,0.0,0.0,0.0,0.0,0.0,0.0,0.0,0.0,0.0,0.0,0.0,0.0,0.0,0.0,0.0,0.0,0.0,0.0,0.0,0.0,0.0,0.0,0.0,0.0,0.0,0.0,0.0,0.0,0.0,0.0,0.0,0.0,0.0,0.0,0.0,0.0,0.0,0.0,0.0,0.0,0.0,2.29,2.74,3.022,2.919,2.9736,2.9694,2.8548,2.8871,2.7216,2.2777,0.0,0.0,0.0,0.0,0.0,0.0,0.0,0.0,0.0,0.0,0.0,0.0,0.0,0.0,0.0,0.0,0.0,0.0,0.0,0.0,0.0,0.0,0.0,0.0,0.0,0.0,0.0,0.0,0.0,0.0,0.0,0.0,0.0,0.0,0.0,0.0,0.0,0.0,0.0,0.0,0.0,0.0,0.0,0.0,0.0,0.0,0.0,0.0,0.0,0.0,0.0,0.0,0.0,0.0,0.0,0.0,0.0,0.0,0.0,0.0,0.0,0.0,0.0,0.0,0.0,0.0,0.0,0.0,0.0,0.0,0.0,0.0,0.0,0.0,0.0,0.0,0.0,0.0,0.0,0.0,0.0,0.0,0.0,0.0,0.0,0.0,0.0,0.0,0.0,0.0,0.0,0.0,0.0,0.0,0.0,0.0,0.0,0.0,0.0,0.0,0.0,0.0,2.2907,2.7373,3.0192,2.9233,2.9768,2.978,2.8698,2.9026,2.7725,2.4081,0.0,0.0,0.0,0.0,0.0,0.0,0.0,0.0,0.0,0.0,0.0,0.0,0.0,0.0,0.0,0.0,0.0,0.0,0.0,0.0,0.0,0.0,0.0,0.0,0.0,0.0,0.0,0.0,0.0,0.0,0.0,0.0,0.0,0.0,0.0,0.0,0.0,0.0,0.0,0.0,0.0,0.0,0.0,0.0,0.0,0.0,0.0,0.0,0.0,0.0,0.0,0.0,0.0,0.0,0.0,0.0,0.0,0.0,0.0,0.0,0.0,0.0,0.0,0.0,0.0,0.0,0.0,0.0,0.0,0.0,0.0,0.0,0.0,0.0,0.0,0.0,0.0,0.0,0.0,0.0,0.0,0.0,0.0,0.0,0.0,0.0,0.0,0.0,0.0,0.0,0.0,0.0,0.0,0.0,0.0,0.0,0.0,0.0,0.0,0.0,0.0,0.0,2.3017,2.7395,3.0173,2.9293,2.98,2.9766,2.8692,2.9101,2.827,2.5568,0.0,0.0,0.0,0.0,0.0,0.0,0.0,0.0,0.0,0.0,0.0,0.0,0.0,0.0,0.0,0.0,0.0,0.0,0.0,0.0,0.0,0.0,0.0,0.0,0.0,0.0,0.0,0.0,0.0,0.0,0.0,0.0,0.0,0.0,0.0,0.0,0.0,0.0,0.0,0.0,0.0,0.0,0.0,0.0,0.0,0.0,0.0,0.0,0.0,0.0,0.0,0.0,0.0,0.0,0.0,0.0,0.0,0.0,0.0,0.0,2.1447,0.0,0.0,0.0,0.0,0.0,0.0,0.0,0.0,0.0,0.0,0.0,0.0,0.0,0.0,0.0,0.0,0.0,0.0,0.0,0.0,0.0,0.0,0.0,0.0,0.0,0.0,0.0,0.0,0.0,0.0,0.0,0.0,0.0,0.0,0.0,0.0,0.0,0.0,0.0,0.0,0.0,2.3836,2.7774,3.0173,2.9293,2.9805,2.9775,2.8692,2.9191,2.8594,2.6313,2.5324,0.0,0.0,0.0,0.0,0.0,0.0,0.0,0.0,0.0,0.0,0.0,0.0,0.0,0.0,0.0,0.0,0.0,0.0,0.0,0.0,0.0,0.0,0.0,0.0,0.0,0.0,0.0,0.0,0.0,0.0,0.0,0.0,0.0,0.0,0.0,0.0,0.0,0.0,0.0,0.0,0.0,0.0,0.0,0.0,0.0,0.0,0.0,0.0,0.0,0.0,0.0,0.0,0.0,0.0,0.0,0.0,0.0,0.0,0.0,0.0,2.128,0.0,0.0,0.0,0.0,0.0,0.0,0.0,0.0,0.0,0.0,0.0,0.0,0.0,0.0,0.0,0.0,0.0,0.0,0.0,0.0,0.0,0.0,0.0,0.0,0.0,0.0,0.0,0.0,0.0,0.0,0.0,0.0,0.0,0.0,0.0,0.0,0.0,0.0,0.0,0.0,2.4045,2.7826,3.0258,2.9737,2.996,2.987,2.9146,2.9436,2.9081,2.7732,2.6385,0.0,0.0,0.0,0.0,0.0,0.0,0.0,0.0,0.0,0.0,0.0,0.0,0.0,0.0,0.0,0.0,0.0,0.0,0.0,0.0,0.0,0.0,0.0,0.0,0.0,0.0,0.0,0.0,0.0,0.0,0.0,0.0,0.0,0.0,0.0,0.0,0.0,0.0,0.0,0.0,0.0,0.0,0.0,0.0,0.0,0.0,0.0,0.0,0.0,0.0,0.0,0.0,0.0,1.9276,1.9517,2.0321,1.9745,1.942,1.9442,2.2066,2.2897,2.228,2.1232,0.0,0.0,0.0,0.0,0.0,0.0,0.0,0.0,0.0,0.0,0.0,0.0,0.0,0.0,0.0,0.0,0.0,0.0,0.0,0.0,0.0,0.0,0.0,0.0,2.3967,2.4165,2.6075,0.0,0.0,0.0,0.0,0.0,0.0,0.0,0.0,0.0,0.0,0.0,2.4235,2.7846,3.0348,3.0209,3.0133,2.9984,2.9681,2.9681,2.9513,2.9052,2.745,2.6381,0.0,0.0,0.0,0.0,0.0,0.0,0.0,0.0,0.0,0.0,0.0,0.0,0.0,0.0,0.0,0.0,0.0,0.0,0.0,0.0,0.0,0.0,0.0,0.0,0.0,0.0,0.0,0.0,0.0,0.0,0.0,0.0,1.4963,1.6133,0.0,0.0,0.0,0.0,0.0,0.0,0.0,0.0,0.0,0.0,0.0,0.0,0.0,1.7977,1.7974,1.9326,2.0065,2.0199,2.1059,2.1674,2.208,2.1935,2.1936,2.2031,2.1283,0.0,2.1378,2.1278,0.0,0.0,0.0,0.0,0.0,0.0,0.0,0.0,0.0,0.0,0.0,0.0,0.0,0.0,0.0,0.0,0.0,0.0,0.0,0.0,0.0,0.0,2.9079,2.9363,2.7788,2.6904,0.0,2.5005,2.0973,2.2617,2.1606,0.0,0.0,0.0,0.0,0.0,0.0,0.0,2.5136,2.825,3.0352,3.0209,3.0133,3.003,2.9872,2.977,2.9551,2.9188,2.8602,2.7579,2.5982,2.6986,0.0,0.0,0.0,0.0,0.0,0.0,0.0,0.0,0.0,0.0,0.0,0.0,0.0,0.0,0.0,0.0,0.0,0.0,0.0,0.0,0.0,0.0,0.0,0.0,0.0,0.0,0.0,0.0,0.0,1.5272,1.6185,1.6779,1.7019,1.6571,0.0,0.0,0.0,0.0,0.0,0.0,0.0,0.0,0.0,1.8155,1.897,1.9378,1.9304,2.0705,2.1402,2.1324,2.1855,2.2147,2.2243,2.2326,2.2398,2.2453,2.1876,2.1744,2.1884,2.1306,2.1234,2.1371,0.0,0.0,0.0,0.0,1.859,1.9431,1.8694,2.0028,0.0,2.3372,0.0,0.0,0.0,0.0,0.0,0.0,0.0,0.0,0.0,0.0,2.9261,3.0279,2.9713,2.9264,3.0451,2.7608,2.5063,0.0,2.4605,2.2962,2.1477,0.0,0.0,0.0,0.0,2.654,2.6818,2.94,3.113,3.0996,3.1364,3.1535,3.1374,3.0886,3.0673,3.082,3.0058,2.9255,2.8427,2.8676,2.7486,0.0,0.0,0.0,0.0,0.0,0.0,0.0,0.0,0.0,0.0,0.0,0.0,0.0,0.0,0.0,0.0,0.0,0.0,0.0,0.0,0.0,0.0,0.0,0.0,0.0,0.0,0.0,0.0,1.6212,1.7147,1.7539,1.8016,1.7806,0.0,0.0,0.0,0.0,0.0,0.0,1.9152,1.923,1.9337,1.9576,2.0645,2.11,2.0916,2.1974,2.2478,2.2368,2.2265,2.2165,2.2086,2.2099,2.2118,2.2147,2.226,2.2287,2.2241,2.159,2.1463,2.1682,2.165,2.0933,1.9884,1.9534,1.9694,2.0056,1.99,2.0974,2.2696,2.4454,2.4437,2.4011,2.5317,0.0,0.0,0.0,0.0,2.4854,2.6181,2.7234,2.8338,2.989,3.0304,3.0432,3.0671,2.9411,2.8359,0.0,2.7558,2.5815,2.4076,0.0,0.0,0.0,0.0,2.8182,2.8346,3.0365,3.1733,3.1602,3.2319,3.2737,3.2591,3.1984,3.1756,3.2128,3.1269,3.0698,3.0586,3.0225,2.9097,2.7094,0.0,0.0,0.0,0.0,0.0,0.0,0.0,0.0,0.0,0.0,0.0,0.0,0.0,0.0,0.0,0.0,0.0,0.0,0.0,0.0,0.0,0.0,0.0,0.0,0.0,0.0,0.0,0.0,0.0,1.872,2.0164,0.0,0.0,0.0,0.0,1.7376,1.7951,1.9195,2.096,2.1199,2.1883,2.3293,2.3523,2.3457,2.3052,2.3116,2.3149,2.3149,2.2371,2.205,2.2068,2.1519,2.1352,2.146,2.1672,2.1744,2.1774,2.2231,2.2652,2.2946,2.2238,2.2162,2.2243,2.077,2.1171,2.2315,2.1644,2.2463,2.3996,2.5171,2.5108,2.4467,2.3979,2.3739,0.0,0.0,2.56,2.6275,2.6308,2.7064,2.8049,2.9032,2.9365,2.9706,3.0594,2.943,2.868,0.0,2.9329,2.8379,2.8998,0.0,2.8026,2.7881,2.8067,2.8476,2.9221,3.0722,3.1688,3.1614,3.2319,3.28,3.2785,3.2581,3.2414,3.2296,3.1873,3.157,3.1342,3.1199,3.0911,3.0471,2.9017,0.0,0.0,0.0,0.0,0.0,0.0,0.0,0.0,0.0,0.0,0.0,0.0,0.0,0.0,0.0,0.0,0.0,0.0,0.0,0.0,0.0,0.0,0.0,0.0,0.0,0.0,0.0,0.0,1.9369,1.9865,0.0,2.0183,2.0533,2.0722,2.0597,2.1696,2.2661,2.3282,2.3123,2.3231,2.372,2.3536,2.3365,2.3192,2.3192,2.3106,2.2948,2.2367,2.2013,2.1877,2.1343,2.1118,2.115,2.1213,2.1244,2.1275,2.146,2.1774,2.2107,2.1742,2.2119,2.2781,2.2246,2.2893,2.3995,2.3383,2.3718,2.4548,2.5354,2.5892,2.6161,2.5944,2.5882,2.5954,2.628,2.6677,2.7096,2.7685,2.8204,2.8795,2.9685,2.9979,3.0132,3.0474,3.0125,2.9901,3.0438,2.9293,2.8153,2.7878,2.8959,2.9297,2.7627,2.8808,2.9971,3.0267,3.1229,3.187,3.1853,3.3001,3.3756,3.3756,3.3152,3.2928,3.3318,3.2139,3.1299,3.0968,3.1362,3.1194,3.0345,3.008,2.873,0.0,0.0,0.0,0.0,0.0,0.0,0.0,0.0,0.0,0.0,0.0,0.0,0.0,0.0,0.0,0.0,0.0,0.0,0.0,0.0,0.0,0.0,0.0,0.0,0.0,0.0,1.8772,2.03,2.0453,2.0774,2.1642,2.1857,2.2204,2.2849,2.3913,2.4605,2.4782,2.4429,2.4214,2.4235,2.3879,2.3586,2.3475,2.3475,2.329,2.2889,2.2398,2.1992,2.1647,2.1094,2.0653,2.0334,2.0652,2.0588,2.0317,2.0586,2.0846,2.1118,2.1319,2.1889,2.2548,2.2548,2.3059,2.3801,2.3808,2.4287,2.4938,2.5357,2.6002,2.6702,2.6982,2.7192,2.7401,2.7718,2.775,2.7843,2.8452,2.856,2.8753,2.9656,2.9905,3.0006,3.0326,2.9998,2.9793,3.0298,2.9681,2.8785,2.787,2.8928,2.9316,2.7598,2.8299,2.9136,2.9478,3.0443,3.1099,3.1119,3.2763,3.3862,3.3851,3.2485,3.2146,3.3379,3.1592,3.0731,3.1221,3.1162,3.0737,2.9849,2.9166,2.816,2.6819,0.0,0.0,0.0,0.0,0.0,0.0,0.0,0.0,0.0,0.0,0.0,0.0,0.0,0.0,0.0,0.0,0.0,0.0,0.0,0.0,0.0,0.0,0.0,1.6715,1.8657,2.0437,2.1505,2.2134,2.2718,2.3189,2.3395,2.3651,2.3918,2.4273,2.4721,2.5346,2.496,2.4834,2.4996,2.4672,2.4323,2.3921,2.3967,2.3705,2.3107,2.257,2.2009,2.1409,2.0802,1.9983,1.9101,2.0011,1.9832,1.9012,1.9771,2.01,2.017,2.1023,2.1491,2.1688,2.1612,2.1612,2.1784,2.2861,2.4087,2.5143,2.5143,2.5394,2.5864,2.677,2.7359,2.7932,2.883,2.8782,2.8418,2.8385,2.8001,2.7853,2.8809,2.901,2.9286,3.0188,2.9051,2.8366,3.0059,3.0607,3.0482,2.9518,2.8693,2.8217,2.8268,2.6796,0.0,2.6989,2.8416,2.9367,2.9435,3.1507,3.2908,3.2954,3.0582,3.0087,3.2416,3.0276,2.992,3.2127,3.0691,2.9718,2.9431,2.6567,2.6188,2.8432,0.0,0.0,0.0,0.0,0.0,0.0,0.0,0.0,0.0,0.0,0.0,0.0,0.0,0.0,0.0,0.0,0.0,0.0,0.0,0.0,0.0,0.0,1.8264,1.9132,1.9856,2.0872,2.2435,2.2611,2.2959,2.3692,2.4048,2.4401,2.4814,2.5365,2.557,2.5264,2.4007,2.3201,2.3009,2.2598,2.2375,2.2269,2.3413,2.3933,2.3751,2.3147,2.2593,2.2031,2.1445,2.0783,2.0113,2.0348,2.0196,1.9747,2.0158,1.996,1.95,2.0154,2.0928,2.1692,2.1625,2.1875,2.2243,2.2182,2.2971,2.405,2.4162,2.4796,2.5596,2.5843,2.615,2.6493,2.6781,2.7001,2.7249,2.788,2.8109,2.8391,2.9217,2.9539,2.9741,3.0047,2.9819,2.9666,3.0103,3.0398,3.0505,3.0273,3.0134,3.0058,3.0083,2.9655,0.0,2.9726,3.0131,3.0392,3.0406,3.0409,3.0865,3.2028,3.0259,2.9871,3.1685,3.0567,3.006,3.0534,3.0772,3.1259,3.2027,3.0116,2.927,0.0,0.0,0.0,0.0,0.0,0.0,0.0,0.0,0.0,0.0,0.0,0.0,0.0,0.0,0.0,0.0,0.0,0.0,0.0,0.0,0.0,0.0,1.7499,1.959,2.0791,2.1303,2.2086,2.3409,2.3375,2.3405,2.3896,2.4279,2.4684,2.5005,2.5567,2.5733,2.54,2.4296,2.3321,2.2443,2.2653,2.25,2.1822,2.3355,2.3998,2.3749,2.3375,2.2778,2.1982,2.1476,2.063,1.9623,1.9843,1.9617,1.9087,1.9641,1.9603,0.0,0.0,0.0,0.0,0.0,2.1468,2.2099,2.1762,2.2454,2.3441,2.3513,2.4398,2.5421,2.538,2.5322,2.5241,2.5216,2.4775,2.4719,2.6303,2.6912,2.7494,2.9101,2.957,2.9568,2.93,2.8726,2.8502,2.9323,2.9046,0.0,3.0269,2.9998,2.9388,2.869,2.8582,2.8603,2.8654,2.9273,2.9726,2.9744,2.9877,3.0326,3.1266,2.9364,0.0,0.0,0.0,2.8765,2.8939,2.9444,0.0,0.0,0.0,2.8783,2.9791,2.9237,0.0,0.0,2.7565,2.6408,0.0,0.0,0.0,0.0,0.0,0.0,0.0,0.0,0.0,0.0,0.0,0.0,0.0,0.0,0.0,0.0,1.8444,2.0369,2.1812,2.2653,2.3416,2.422,2.4135,2.3982,2.3839,2.4302,2.467,2.4735,2.513,2.5416,2.5454,0.0,0.0,0.0,0.0,2.33,2.1916,2.3264,2.3738,2.3228,2.3191,2.2555,2.1445,2.1105,2.0049,1.8567,1.9046,1.8728,1.795,1.8806,1.9182,1.9258,1.9925,1.9975,1.9639,1.9798,2.0512,2.1315,2.1272,0.0,0.0,2.3042,2.3963,2.5063,2.5013,2.4671,2.4287,2.4156,2.2941,2.2213,2.4548,2.5244,2.5958,2.8334,2.9008,2.894,2.8294,2.6953,2.6432,2.8223,2.7357,2.7096,2.9538,2.9023,2.7772,2.6288,2.6075,2.6112,2.6236,2.7562,2.8525,2.8571,0.0,0.0,3.0539,2.8333,2.7915,3.0211,2.825,2.7297,2.7885,2.7904,2.7236,2.5831,2.576,2.7123,2.9868,2.9748,3.1034,3.3515,2.988,2.8184,0.0,0.0,0.0,0.0,0.0,0.0,0.0,0.0,0.0,0.0,0.0,0.0,0.0,0.0,0.0,1.8578,1.9905,2.1127,2.1973,2.2317,2.2815,2.3815,2.3967,2.4024,2.4124,2.4508,2.4655,2.4426,2.5029,2.5146,2.4589,2.2989,2.2037,2.1831,2.1037,2.067,2.0822,2.1513,2.2017,2.2345,0.0,0.0,2.0619,2.0536,2.0065,1.9294,1.9384,1.9293,1.9037,1.9415,1.9407,1.9161,1.9442,1.942,1.914,1.8744,1.9,1.9561,1.9326,2.0323,2.1717,2.2065,2.2873,2.3764,2.373,2.4014,0.0,2.4271,2.442,2.4711,2.5197,2.5529,2.5834,2.6351,2.7273,2.7975,2.7908,2.779,2.783,2.8276,2.7629,2.7182,2.7721,2.9032,2.991,2.958,2.9579,2.9622,2.9642,3.0029,3.0303,3.0311,2.9387,2.9002,2.9589,2.8535,2.8314,2.938,2.9583,2.9701,2.9768,2.9775,2.9849,3.0013,3.0687,3.1608,3.2789,3.2713,3.2955,3.3515,3.276,3.242,0.0,0.0,0.0,0.0,0.0,0.0,0.0,0.0,0.0,0.0,0.0,1.4786,0.0,0.0,1.7225,1.8634,1.9535,2.0482,2.1513,2.1957,2.2515,2.333,2.3575,2.3631,2.3383,2.3575,2.3518,2.2986,2.3334,2.3512,2.3245,2.238,2.1567,2.0821,2.0713,2.0371,1.974,2.0543,2.1039,2.1248,2.0981,2.0514,1.9879,1.9698,1.9239,1.8655,1.8741,1.8725,1.8654,1.8727,1.8583,1.8316,1.8328,1.8662,1.9058,1.876,1.8848,1.9095,1.8957,1.9441,2.013,2.0313,2.108,2.1874,2.1823,2.1832,2.1838,2.1808,2.1429,2.1315,2.2637,2.3154,2.3641,2.483,2.5849,2.6435,2.5937,2.6086,2.6347,2.6574,2.63,2.6209,2.6767,2.7773,2.8774,2.9594,3.021,3.0603,3.0603,3.0302,3.0278,3.0693,2.9637,2.9234,3.0023,2.9706,2.9582,2.9889,3.0283,3.0443,3.0364,3.0323,3.0439,3.0748,3.1123,3.1673,3.2408,3.2368,3.254,3.2883,3.2935,3.2716,0.0,0.0,0.0,0.0,0.0,0.0,0.0,0.0,1.3771,1.3378,1.3806,1.4468,1.5166,1.5475,1.6215,1.811,1.8736,1.9429,2.0742,2.1447,2.2078,2.2662,2.2937,2.2919,2.2468,2.2483,2.226,2.1742,2.18,2.1957,2.2154,2.2183,2.1594,2.0362,2.0941,2.0643,1.9328,1.9945,2.0212,2.0124,2.0014,1.964,1.9003,1.8571,1.8062,1.7567,1.764,1.7638,1.76,1.7421,1.7256,1.7094,1.7021,1.754,1.8394,1.8741,1.8874,1.8874,1.895,1.8884,1.8817,1.8855,1.9438,2.01,1.9932,1.9656,1.9335,1.9177,1.8129,1.7535,1.9617,2.0423,2.1156,2.3072,2.4236,2.4669,2.3717,2.3772,2.4063,2.4222,2.4107,2.4302,2.5171,2.5491,2.6265,2.8175,2.9283,2.9912,2.9912,2.9406,2.94,3.0294,2.9664,2.9556,3.0469,3.0398,3.0385,3.0611,3.0626,3.0564,3.0434,3.0375,3.0336,3.0297,3.0355,3.0696,3.1286,3.1283,3.1578,3.216,3.1986,3.1667,0.8027,0.7549,0.7406,0.8415,0.9616,1.0526,0.0,0.0,1.3472,1.2456,1.3997,1.5549,1.5627,1.6617,1.7637,1.8288,1.848,1.8902,1.9839,2.0533,2.1083,2.1446,2.1724,2.1979,2.2199,2.1931,2.1799,2.2024,2.2084,2.2158,2.2118,2.1554,2.1356,2.1503,2.0526,2.0141,2.042,1.96,1.9152,1.9152,1.8656,1.8168,1.7632,1.7086,1.6809,1.6703,1.651,1.636,1.6302,1.5993,1.5752,1.5636,1.5901,1.5845,1.5822,1.7437,1.8029,1.8069,1.8319,1.8461,1.8563,1.8664,1.8898,1.9031,1.8817,1.9043,1.9218,1.8644,1.8621,1.8686,1.8606,1.9242,1.9981,2.0236,2.1763,2.2979,2.236,2.2419,2.247,2.1993,2.1342,2.0933,2.1065,2.1886,2.3474,2.6432,2.7177,2.7414,2.7481,2.7668,2.8182,2.9168,2.8562,2.8493,2.9565,2.8944,2.9158,3.0677,3.073,3.067,3.0579,3.0509,3.0413,3.0294,3.1046,3.1482,3.1565,3.1558,3.1607,3.1651,3.0885,3.11,0.7879,0.8552,0.9187,0.0,1.0852,1.1873,1.2102,1.2955,1.3557,1.3081,1.3769,1.456,1.478,1.4867,1.5511,0.0,1.7149,1.7453,1.9574,1.9943,2.0179,2.0649,1.9692,1.9212,1.9719,2.0511,2.045,1.9185,1.9967,2.0593,2.0729,2.0521,2.0421,2.0607,1.9837,1.9233,1.8795,1.8065,1.7408,1.6716,1.6501,1.6286,1.6071,1.582,1.5881,1.6197,1.608,1.5671,1.5106,1.4903,1.4664,1.4424,1.4472,1.4803,1.5381,1.689,1.7261,1.713,1.7813,1.8055,1.8055,1.8082,1.8108,1.8054,1.7988,1.833,1.8612,1.8006,1.8147,1.8399,1.7855,1.8173,1.8593,1.837,1.9296,2.0106,1.9743,1.9926,2.0152,2.0209,1.9813,1.9517,1.9731,2.0094,2.0828,2.2146,2.4365,2.6146,2.6778,2.6585,2.6602,2.7236,2.8077,2.8768,2.9233,2.9039,2.9201,2.9939,2.9999,2.9966,2.99,3.029,3.0494,3.0477,3.0719,3.0852,3.0887,3.0948,3.0959,3.0959,3.0626,3.0758,0.7627,0.8653,0.0,1.0068,1.091,1.1766,1.245,1.2694,1.2799,1.2973,1.3148,1.3364,1.3803,1.3539,1.3973,1.615,1.5878,1.62,1.8623,1.8893,1.8907,1.8975,1.7773,1.6689,1.6264,1.8198,1.9006,1.7792,1.8783,1.9547,1.9786,1.9558,1.938,1.938,1.8846,1.8118,1.729,1.6955,1.6267,1.5303,1.5303,1.5131,1.4801,1.4416,1.4323,1.4463,1.4417,1.3979,1.3282,1.3194,1.2941,1.265,1.2773,1.3227,1.3933,1.5341,1.5906,1.6127,1.6811,1.701,1.6943,1.6903,1.6849,1.6863,1.7115,1.7316,1.7452,1.7125,1.7155,1.719,1.6608,1.6848,1.7193,1.6961,1.7505,1.7961,1.7669,1.7792,1.8044,1.8243,1.8114,1.8013,1.8283,1.8267,1.8343,1.8658,2.1118,2.3389,2.4754,2.4949,2.5089,2.5362,2.6814,2.7911,2.8187,2.8163,2.8462,2.9277,2.9133,2.9127,2.9352,2.9673,2.9971,3.0258,3.0098,3.0182,3.0466,3.0481,3.05,3.0535,3.0579,3.0599,0.6979,0.0,0.6514,0.7617,0.8117,0.8668,0.9858,1.0266,1.0606,1.1406,1.1995,1.2519,1.3035,1.368,1.4283,1.4714,1.5057,1.5595,1.6481,1.7097,1.7046,1.5868,1.6086,1.5089,0.0,1.4938,1.7734,1.9598,1.9748,1.9786,1.9798,1.8892,1.837,1.837,1.7317,1.6776,1.6715,1.6703,1.6437,1.5891,1.5891,1.5287,1.4079,1.2649,1.1562,1.0866,1.0732,1.0588,1.04,1.0256,1.0129,0.9984,1.0693,1.0658,1.0383,1.211,1.3736,1.5044,1.4928,1.4967,1.5031,1.4849,1.4927,1.5248,1.6087,1.5945,1.5577,1.6032,1.5635,1.4998,1.4504,1.5138,1.5868,1.5937,1.6706,1.7279,1.6769,1.6651,1.6488,1.5918,1.5799,1.5799,1.5799,1.5799,1.6109,1.7036,1.7317,1.8168,2.0144,2.2299,2.3701,2.3839,2.4223,2.4862,2.5907,2.5352,2.6129,2.8923,2.8311,2.8285,2.9269,2.8587,2.8572,2.9414,2.9375,2.9752,3.0593,3.054,3.0532,3.06,3.0607,3.0602,0.5967,0.0,0.6924,0.7522,0.8364,0.9149,0.9443,0.9651,0.9838,0.9995,0.9934,1.0026,1.0598,1.0361,1.087,1.3298,1.2467,1.2467,1.5203,1.4456,1.404,1.5266,1.4305,0.0,0.0,0.0,0.0,1.5265,1.6812,1.773,1.773,1.7426,1.7232,1.7232,1.6907,1.6196,1.506,1.506,1.4359,1.3018,1.2887,1.2584,1.2166,1.1649,1.1296,1.1039,1.0983,1.051,0.974,0.9603,0.9375,0.9109,0.9391,0.9603,0.9822,1.0602,1.119,1.1817,1.3077,1.3562,1.3638,1.3875,1.4038,1.425,1.5159,1.5287,1.5094,1.482,1.4588,1.4269,1.3723,1.3833,1.4078,1.4098,1.4365,1.4661,1.4833,1.4888,1.5008,1.5418,1.5299,1.5179,1.5433,1.5463,1.561,1.6096,1.7522,1.8789,1.9517,2.0618,2.1351,2.1419,2.2439,2.3455,2.4301,2.4603,2.5351,2.6754,2.6814,2.6987,2.7361,2.7701,2.808,2.8457,2.9062,2.9503,2.9803,3.0411,3.0703,3.0739,3.0735,3.0739,0.4912,0.5617,0.6166,0.6498,0.7194,0.7795,0.7881,0.7899,0.795,0.8221,0.8225,0.8266,0.861,0.8594,0.9229,1.1337,1.0619,1.0623,1.3052,1.2191,1.1796,1.2955,1.1944,1.1777,0.0,0.0,0.0,1.3493,1.4733,1.5511,1.5572,1.527,1.5202,1.5443,1.5092,1.4362,1.3293,1.3293,1.27,1.1616,1.1172,1.0941,1.085,1.0581,1.0267,0.9942,1.0157,0.9668,0.8758,0.8791,0.8581,0.8276,0.8347,0.8513,0.883,0.9096,0.9188,0.9469,1.1389,1.2048,1.2083,1.2261,1.2404,1.2698,1.3529,1.3688,1.3614,1.3606,1.3325,1.2911,1.2511,1.2292,1.2225,1.2357,1.2585,1.2818,1.3102,1.3361,1.36,1.3986,1.3868,1.3792,1.4048,1.4364,1.4711,1.5197,1.6678,1.7903,1.8451,1.8943,1.9395,1.9765,2.058,2.1479,2.2446,2.2722,2.3368,2.4623,2.4993,2.5495,2.6266,2.6639,2.7186,2.7945,2.8259,2.8756,2.9391,3.0016,3.0469,3.08,3.0798,3.0793,0.3844,0.417,0.4317,0.4609,0.4682,0.4762,0.5215,0.5122,0.5187,0.6076,0.6745,0.7129,0.0,0.0,0.9071,0.8931,0.9422,0.9895,1.0171,1.0348,1.0107,0.0,0.0,0.0,0.0,0.0,0.0,1.4059,0.0,1.326,1.3476,1.2649,1.2462,1.3077,1.2145,1.1566,1.1566,1.1516,1.1516,1.1516,1.0847,1.0358,1.0068,0.9441,0.8594,0.7588,0.8203,0.8034,0.7377,0.7656,0.7627,0.7397,0.7448,0.7366,0.7225,0.7551,0.7709,0.8002,0.9683,1.0347,1.0414,1.0066,1.0227,1.0647,1.1322,1.1296,1.1292,1.2291,1.1784,1.0979,1.0979,1.0631,1.0398,1.0848,1.1355,1.1733,1.1618,1.2056,1.2297,1.1767,1.1682,1.1724,1.178,1.2545,1.3421,1.43,1.471,1.5385,1.6829,1.7283,1.7848,1.8824,1.8654,1.9014,2.035,1.986,2.0428,2.263,2.2972,2.3964,2.5868,2.538,2.5915,2.7701,2.7039,2.7526,2.9259,2.9311,2.9794,3.0654,3.0701,3.0723,0.3723,0.3694,0.355,0.4477,0.4323,0.405,0.4371,0.4394,0.4332,0.4382,0.4117,0.4078,0.0,0.0,0.0,0.744,0.661,0.0,0.829,0.7905,0.0,0.8207,0.0,0.9086,0.9909,0.9503,0.0,0.0,1.1118,1.1761,1.1818,1.1776,1.184,1.1991,1.176,1.1366,1.0864,1.0364,1.0115,1.0115,0.9733,0.9144,0.8433,0.8953,0.8331,0.6829,0.7636,0.7451,0.6588,0.6413,0.6273,0.6136,0.5962,0.5788,0.5683,0.5938,0.6044,0.6141,0.6884,0.7795,0.8676,0.9224,0.9467,0.9664,1.0221,1.0578,1.074,1.0704,1.0688,1.0708,1.0708,1.034,1.0033,1.0161,1.0016,0.9938,1.0163,1.0325,1.0605,1.1076,1.145,1.1724,1.1724,1.1912,1.2419,1.3306,1.3489,1.397,1.528,1.5817,1.614,1.6378,1.6795,1.741,1.828,1.907,1.9949,2.1043,2.2316,2.3249,2.3775,2.4392,2.4969,2.5517,2.6162,2.6699,2.7181,2.7973,2.8481,2.8724,2.9437,2.9757,0.2175,0.207,0.1914,0.2679,0.2445,0.2122,0.2442,0.251,0.2438,0.2348,0.2401,0.0,0.2568,0.0,0.0,0.0,0.0,0.0,0.6255,0.6528,0.6739,0.0,0.7664,0.0,0.9306,0.8618,0.8,0.0,0.8968,0.9694,0.9852,1.0161,1.045,1.0704,1.0712,1.0386,0.9582,0.8847,0.8434,0.8434,0.8328,0.7966,0.7468,0.7979,0.75,0.6274,0.0,0.6963,0.613,0.6096,0.6035,0.5936,0.556,0.5394,0.5371,0.5272,0.5267,0.5338,0.5633,0.622,0.697,0.7717,0.8103,0.8324,0.8676,0.923,0.963,0.9421,0.945,0.9601,0.9601,0.9123,0.8683,0.8856,0.8699,0.8571,0.8621,0.8858,0.9098,0.9288,0.9734,1.0208,1.067,1.0936,1.1383,1.2316,1.242,1.2795,1.3878,1.4722,1.524,1.524,1.5736,1.6363,1.707,1.7757,1.8529,1.9337,2.069,2.186,2.274,2.3381,2.4146,2.5073,2.5347,2.5767,2.6408,2.6996,2.7535,2.8008,2.8534,2.9199,0.0157,0.0162,0.0054,0.0356,0.0082,-0.0189,0.0205,0.0278,0.0276,0.0346,0.0,0.1568,0.0812,0.1684,0.2519,0.2535,0.0,0.4552,0.4565,0.5732,0.6438,0.6022,0.6464,0.6978,0.7377,0.6871,0.6517,0.6543,0.7145,0.7631,0.7856,0.8219,0.8685,0.9263,0.9277,0.8887,0.8128,0.7394,0.699,0.699,0.699,0.6924,0.6794,0.6924,0.6476,0.569,0.6452,0.6395,0.5685,0.6058,0.6141,0.5994,0.5559,0.5437,0.5394,0.4961,0.4889,0.5028,0.5158,0.5214,0.539,0.613,0.6615,0.6901,0.7048,0.759,0.8161,0.811,0.8061,0.8043,0.8168,0.7608,0.7115,0.7566,0.7643,0.7544,0.7272,0.7621,0.7794,0.723,0.753,0.8162,0.9047,0.9614,1.0271,1.1146,1.1365,1.1716,1.2566,1.3819,1.4699,1.4814,1.5166,1.5665,1.6246,1.6433,1.688,1.7754,1.8841,2.022,2.1952,2.2345,2.3344,2.5078,2.4557,2.4876,2.6091,2.6178,2.6685,2.7584,2.7834,2.8769,-0.0164,-0.0359,-0.0509,0.0027,-0.0601,-0.1244,-0.0891,-0.067,0.0,0.0,-0.0323,-0.0,-0.0366,0.0131,0.0837,0.1582,0.0,0.0,0.0,0.0,0.486,0.0,0.0,0.0,0.0,0.0,0.0,0.0,0.0,0.658,0.6627,0.693,0.7218,0.7462,0.7462,0.7394,0.7249,0.7062,0.699,0.699,0.6882,0.644,0.5702,0.6499,0.5908,0.4284,0.5363,0.0,0.4416,0.4613,0.467,0.4626,0.442,0.432,0.4184,0.4005,0.3977,0.4056,0.4056,0.4112,0.4381,0.5721,0.6218,0.6204,0.5965,0.6194,0.6469,0.6173,0.6328,0.6744,0.754,0.736,0.7213,0.7993,0.7643,0.7074,0.6844,0.6792,0.6776,0.6648,0.7008,0.7383,0.7567,0.7988,0.8638,0.9556,1.0044,1.0599,1.1467,1.2558,1.353,1.4328,1.4766,1.5045,1.5151,1.6001,1.6574,1.6754,1.8283,1.9302,1.9589,2.1212,2.2246,2.2539,2.3595,2.4248,2.4486,2.4945,2.5266,2.5488,2.7033,2.7937,-0.1506,-0.1564,-0.169,-0.1262,-0.1693,-0.2119,-0.1674,0.0,0.0,0.0,-0.07,-0.0427,-0.0532,-0.0193,0.0,0.0891,0.0,0.0,0.0,0.0,0.0,0.0,0.0,0.0,0.0,0.0,0.0,0.0,0.0,0.478,0.6112,0.6595,0.6882,0.699,0.6476,0.6175,0.6175,0.5636,0.5397,0.5397,0.53,0.5066,0.4623,0.5075,0.4839,0.4024,0.45,0.4433,0.4022,0.4156,0.4136,0.4103,0.4117,0.4104,0.4056,0.3788,0.3806,0.3901,0.3815,0.3858,0.4,0.4642,0.5015,0.5292,0.5662,0.5787,0.5817,0.5643,0.5892,0.6306,0.6743,0.6586,0.6497,0.7095,0.6862,0.6458,0.6362,0.6222,0.6137,0.6137,0.6526,0.6829,0.6829,0.7216,0.7783,0.8473,0.8778,0.9332,1.0487,1.1545,1.2558,1.3443,1.4147,1.4672,1.4876,1.5579,1.6111,1.6486,1.7494,1.8262,1.8785,1.9726,2.072,2.172,2.2437,2.322,2.4116,2.4353,2.4778,2.534,2.6384,2.7559,-0.281,-0.2685,-0.2697,-0.2524,-0.2738,-0.2901,-0.2518,-0.2116,0.0,0.0,-0.1061,-0.0761,-0.0749,0.0,-0.012,0.0,0.1038,0.1605,0.0,0.0,0.0,0.0,0.0,0.0,0.0,0.0,0.0,0.0,0.0,0.2974,0.5257,0.5902,0.618,0.6225,0.5494,0.4997,0.4812,0.4188,0.3818,0.3608,0.3774,0.3836,0.3836,0.3836,0.3884,0.3932,0.3928,0.3831,0.3689,0.3995,0.396,0.3784,0.4038,0.4192,0.4276,0.3965,0.396,0.4084,0.3983,0.3998,0.4044,0.4049,0.4113,0.436,0.5124,0.5209,0.5073,0.5073,0.5336,0.5695,0.6012,0.5969,0.5999,0.6597,0.6592,0.6401,0.623,0.6073,0.5955,0.5826,0.6106,0.6405,0.6488,0.6889,0.7314,0.7695,0.7927,0.8413,0.9408,1.0534,1.1575,1.244,1.3587,1.4447,1.4735,1.515,1.5636,1.6246,1.6648,1.727,1.8128,1.8385,1.9278,2.0931,2.1374,2.2265,2.3666,2.3909,2.4579,2.5615,2.6075,2.7425,-0.33,-0.3141,-0.2907,-0.3004,-0.3317,-0.3649,-0.3788,0.0,0.0,-0.2704,-0.213,-0.1648,-0.1821,-0.1383,-0.108,0.0,0.0,-0.0389,0.0,0.0,0.0,0.0,0.0,0.0,0.0,0.0,0.0,0.0,0.0,0.1564,0.3024,0.3794,0.4029,0.3753,0.3919,0.3648,0.287,0.3547,0.3497,0.273,0.341,0.37,0.37,0.37,0.3612,0.3486,0.3796,0.3526,0.0,0.3771,0.3788,0.3406,0.4034,0.4276,0.4316,0.4272,0.4343,0.4452,0.4428,0.4479,0.4599,0.503,0.4473,0.3667,0.3569,0.348,0.3427,0.3427,0.3572,0.4051,0.5339,0.5998,0.6622,0.7845,0.8052,0.7772,0.6929,0.6686,0.6461,0.5972,0.592,0.606,0.6427,0.6889,0.7225,0.7255,0.7984,0.8404,0.8043,0.9258,1.0522,1.1512,1.3289,1.4397,1.4351,1.4704,1.515,1.5565,1.5981,1.6386,1.6781,1.7737,1.844,1.8876,2.0676,2.1801,2.2197,2.3295,2.4306,2.5271,2.6395,2.7488,-0.3436,-0.3232,-0.3211,-0.3211,-0.3561,-0.3758,-0.3317,0.0,-0.3006,-0.2613,-0.2324,-0.2125,-0.2126,-0.1801,-0.1484,0.0,0.0,0.0,-0.0837,0.0,0.0,0.0,0.0,0.0,0.0,0.0,0.0,0.0,0.0,0.0624,0.1105,0.1917,0.2369,0.2327,0.2364,0.2202,0.1841,0.2597,0.2803,0.2418,0.3147,0.3527,0.3527,0.3435,0.3391,0.3398,0.3439,0.3177,0.0,0.3512,0.3556,0.3152,0.3987,0.4316,0.4316,0.4316,0.4376,0.4499,0.4499,0.4611,0.4742,0.4806,0.4479,0.4091,0.4215,0.3951,0.363,0.363,0.3695,0.384,0.4322,0.5196,0.6096,0.6613,0.7276,0.7682,0.7298,0.7172,0.6972,0.6443,0.6317,0.637,0.6468,0.6669,0.6969,0.754,0.7956,0.8213,0.8269,0.9357,1.0242,1.0551,1.2337,1.3735,1.4324,1.4672,1.4968,1.515,1.5725,1.6151,1.6274,1.6918,1.7597,1.8332,1.9782,2.0958,2.1814,2.287,2.4162,2.5719,2.6295,2.7329,-0.3782,-0.3628,-0.3654,-0.3647,-0.3794,-0.383,0.0,0.0,-0.2976,-0.2617,-0.2515,-0.2444,-0.228,-0.2161,-0.1942,0.0,0.0,-0.1293,-0.0989,0.0,0.0,0.0,0.0,0.0,0.0,0.0,0.0,0.0,-0.0656,-0.0451,-0.0468,0.0215,0.0864,0.1335,0.1314,0.116,0.0877,0.1597,0.1824,0.152,0.231,0.2617,0.2527,0.253,0.253,0.2487,0.2783,0.2498,0.0,0.2909,0.2971,0.2475,0.335,0.3963,0.4272,0.4132,0.425,0.4494,0.4388,0.4557,0.478,0.4619,0.4549,0.4543,0.48,0.4441,0.3923,0.3923,0.4021,0.4096,0.4136,0.4936,0.5807,0.6068,0.6871,0.7565,0.7575,0.7523,0.7351,0.6938,0.6744,0.6663,0.6734,0.6861,0.7102,0.7618,0.7927,0.8184,0.8365,0.9187,0.9805,1.0044,1.1251,1.2571,1.3866,1.445,1.4797,1.4876,1.5536,1.5968,1.6095,1.6409,1.7003,1.7857,1.914,2.0272,2.125,2.2439,2.3844,2.5468,2.5971,2.7187,-0.4483,-0.4536,-0.4311,-0.4449,-0.4154,-0.3973,0.0,0.0,-0.2452,-0.2981,-0.2882,-0.2632,-0.243,-0.2548,-0.2636,-0.242,0.0,0.0,-0.2191,0.0,0.0,0.0,0.0,0.0,0.0,0.0,0.0,0.0,-0.2083,0.0,-0.1609,-0.1311,-0.0551,0.076,0.0987,0.0685,-0.0181,0.0608,0.057,-0.0254,0.0609,0.0855,0.0542,0.0855,0.0777,0.0388,0.1753,0.1425,0.0,0.1807,0.1952,0.1217,0.2009,0.3132,0.4228,0.3795,0.3978,0.447,0.4111,0.435,0.4812,0.4812,0.4812,0.4812,0.4812,0.4415,0.3993,0.3993,0.428,0.4687,0.507,0.5486,0.6006,0.6894,0.7414,0.7714,0.7776,0.7709,0.7558,0.7506,0.7134,0.69,0.7246,0.7684,0.78,0.728,0.8013,0.8421,0.7956,0.8308,0.9029,1.0066,1.0096,1.0809,1.2763,1.3839,1.4529,1.489,1.5285,1.5681,1.6067,1.6409,1.6763,1.7101,1.8884,1.9942,2.0223,2.1902,2.3224,2.4252,2.5372,2.7109,-0.3751,-0.3664,-0.3591,-0.3499,-0.3475,-0.3421,-0.3259,0.0,-0.3219,-0.3355,-0.3462,-0.3534,-0.3568,-0.3536,-0.3415,-0.3072,-0.2895,0.0,0.0,0.0,0.0,0.0,0.0,0.0,0.0,0.0,0.0,-0.215,-0.2111,-0.2006,-0.1811,-0.1542,-0.1149,-0.0585,-0.049,-0.0699,-0.1237,-0.0469,-0.0147,-0.029,0.0342,0.0582,0.0426,0.0623,0.0506,0.0194,0.087,0.0863,0.0498,0.1588,0.1243,0.0165,0.1589,0.2421,0.2848,0.3409,0.3621,0.3646,0.3488,0.383,0.4237,0.3849,0.3978,0.4307,0.4307,0.4377,0.4409,0.4355,0.4388,0.4496,0.4608,0.5077,0.5602,0.5868,0.687,0.773,0.7488,0.7792,0.7973,0.7643,0.7398,0.7304,0.7346,0.7466,0.7558,0.7715,0.7993,0.8259,0.8439,0.8673,0.8934,0.9276,0.99,1.0767,1.1981,1.2303,1.2791,1.3622,1.4002,1.466,1.5724,1.6105,1.6474,1.6763,1.8098,1.9184,2.0001,2.1087,2.2441,2.4023,2.5015,2.629,0.0,-0.3494,-0.3523,-0.3375,-0.3331,0.0,0.0,0.0,-0.3383,-0.3667,-0.3968,-0.4159,-0.4019,-0.4132,-0.3981,-0.3198,-0.3037,0.0,0.0,0.0,0.0,0.0,0.0,0.0,0.0,-0.2314,-0.2281,-0.2117,-0.2111,-0.2009,-0.1845,-0.1676,-0.1509,-0.1378,-0.1378,-0.1477,-0.1709,-0.1279,-0.1054,-0.0951,-0.0617,-0.0515,-0.0661,-0.0442,-0.048,-0.07,-0.0038,0.0075,0.0,0.0793,0.0449,-0.0534,0.0343,0.1071,0.1708,0.2629,0.3068,0.3243,0.3011,0.3458,0.4006,0.3421,0.3649,0.4172,0.4366,0.4564,0.4698,0.4646,0.4517,0.442,0.442,0.4686,0.5025,0.5192,0.6138,0.6973,0.6911,0.732,0.7673,0.7503,0.7443,0.7407,0.7346,0.7442,0.7558,0.7627,0.7917,0.8202,0.8484,0.8728,0.8905,0.8905,0.9473,1.0072,1.064,1.124,1.2049,1.3032,1.3457,1.424,1.5565,1.5994,1.634,1.6596,1.773,1.863,1.931,2.0505,2.197,2.3624,2.4368,2.5508,0.0,-0.3877,0.0,0.0,0.0,0.0,0.0,0.0,0.0,0.0,-0.4412,-0.4501,-0.4001,-0.4377,-0.4328,-0.3017,0.0,0.0,0.0,-0.2879,0.0,0.0,0.0,0.0,-0.2543,-0.2281,-0.2147,-0.2214,-0.2181,-0.2111,-0.1907,-0.1907,-0.1907,-0.1907,-0.1907,-0.1842,-0.1742,-0.1845,-0.1947,-0.2014,-0.2014,-0.2145,-0.2408,-0.2045,-0.1981,0.0,-0.0883,-0.0843,-0.153,-0.0449,-0.0313,-0.0833,-0.124,-0.0502,0.0913,0.1666,0.2414,0.3043,0.2622,0.3159,0.3973,0.3519,0.3714,0.4274,0.4794,0.4922,0.489,0.4838,0.4684,0.4523,0.4452,0.4382,0.4441,0.4864,0.53,0.5698,0.6017,0.6402,0.682,0.717,0.728,0.7288,0.7198,0.7549,0.7661,0.7101,0.7724,0.8251,0.8202,0.8617,0.8905,0.8905,0.8905,0.8944,0.901,1.0607,1.1993,1.2953,1.3359,1.4168,1.5492,1.5909,1.6258,1.657,1.7704,1.8313,1.8287,2.018,2.1737,2.2954,2.3386,2.4714,-0.3547,0.0,-0.358,-0.3095,-0.2775,-0.259,0.0,0.0,0.0,0.0,0.0,0.0,0.0,0.0,0.0,0.0,0.0,0.0,-0.3707,0.0,0.0,-0.3121,-0.2963,-0.2867,-0.2801,-0.2377,-0.2444,-0.3257,-0.3118,-0.3273,-0.3819,-0.3851,-0.3851,-0.3851,-0.3851,-0.3245,-0.2014,-0.215,-0.2214,-0.2242,-0.2114,-0.2214,-0.2474,-0.2111,-0.1981,-0.2017,-0.1563,-0.146,-0.158,-0.1212,-0.0815,-0.0413,0.0202,0.0718,0.1187,0.1811,0.2187,0.2321,0.2189,0.2831,0.3774,0.4033,0.3968,0.3839,0.443,0.4794,0.496,0.489,0.4858,0.48,0.471,0.4608,0.4538,0.4614,0.5134,0.5536,0.5255,0.5974,0.6716,0.6828,0.7082,0.7288,0.7198,0.7255,0.7248,0.7088,0.752,0.7956,0.8298,0.8767,0.9054,0.9054,0.9054,0.9054,0.9065,0.9399,1.0318,1.2069,1.2164,1.309,1.5137,1.527,1.5565,1.6207,1.7599,1.8235,1.8162,2.0127,2.1221,2.1418,2.2096,2.3136,-0.3608,-0.3456,-0.3439,-0.318,-0.2796,-0.2587,0.0,0.0,0.0,0.0,0.0,0.0,0.0,0.0,0.0,0.0,-0.3829,0.0,0.0,0.0,0.0,-0.3719,-0.4065,-0.4177,0.0,0.0,-0.3795,-0.4231,-0.4125,-0.4157,-0.4497,-0.4497,-0.4497,-0.4497,-0.4343,-0.3866,-0.2966,-0.2735,-0.2669,-0.2765,-0.2175,-0.2078,-0.2408,-0.2078,-0.1847,-0.1646,-0.1778,-0.1675,-0.1378,-0.1444,-0.1076,-0.0277,0.1249,0.166,0.1436,0.1913,0.2078,0.2047,0.1981,0.2341,0.2995,0.3774,0.3677,0.3421,0.4264,0.4628,0.482,0.4979,0.4953,0.4864,0.4832,0.4704,0.4543,0.4543,0.4811,0.5009,0.4734,0.5255,0.5859,0.6094,0.6442,0.6793,0.7032,0.7064,0.7018,0.698,0.7324,0.7724,0.8088,0.8551,0.8905,0.9081,0.9092,0.9092,0.9092,0.8999,0.9587,1.1114,1.1564,1.2555,1.4334,1.4811,1.5374,1.6095,1.6878,1.7443,1.7793,1.93,2.0216,2.055,2.1345,2.2425,-0.3874,-0.3597,-0.3623,-0.3663,-0.323,-0.3018,0.0,0.0,0.0,0.0,0.0,0.0,0.0,-0.5476,0.0,0.0,0.0,0.0,-0.4054,-0.4894,-0.5313,-0.4626,-0.5383,0.0,-0.5161,-0.5279,-0.5328,-0.5146,-0.5115,-0.5003,-0.4846,-0.4846,-0.4846,-0.4846,-0.4471,-0.4221,-0.4156,-0.3343,-0.2991,-0.3126,-0.2137,-0.1876,-0.2242,-0.1976,-0.1613,-0.1212,0.0,0.0,-0.1031,-0.1284,-0.0994,-0.0186,0.1722,0.2123,0.1641,0.2021,0.2098,0.2047,0.2045,0.2011,0.2178,0.3253,0.329,0.3097,0.407,0.443,0.459,0.4979,0.496,0.4838,0.489,0.4704,0.4517,0.4576,0.4549,0.4458,0.4388,0.4558,0.4871,0.5397,0.5758,0.6183,0.6794,0.6936,0.6936,0.6842,0.7193,0.753,0.7734,0.8192,0.8623,0.896,0.9054,0.9092,0.9092,0.901,0.9281,1.0101,1.1173,1.2374,1.3673,1.4592,1.5374,1.6011,1.6067,1.6484,1.7283,1.8298,1.9185,1.9929,2.0935,2.2079,-0.4405,-0.4451,-0.4497,-0.4119,-0.3611,-0.3371,0.0,0.0,0.0,0.0,0.0,0.0,0.0,-0.6405,-0.6947,0.0,0.0,-0.6093,0.0,0.0,-0.5812,-0.5736,0.0,-0.5808,-0.5989,-0.5619,-0.5648,-0.6212,-0.6052,-0.6067,-0.6421,-0.646,-0.646,-0.646,-0.5736,-0.5224,-0.4941,-0.331,-0.2471,-0.2438,-0.184,-0.1676,-0.1945,-0.1811,-0.151,-0.1148,0.0,-0.1293,-0.0652,-0.0537,-0.0234,0.027,0.1052,0.1474,0.1735,0.2173,0.2298,0.2317,0.2639,0.2374,0.2111,0.329,0.3323,0.3032,0.3649,0.4135,0.4526,0.459,0.4794,0.496,0.4922,0.473,0.4576,0.4517,0.4452,0.4382,0.4318,0.4526,0.4871,0.5397,0.5758,0.6183,0.6712,0.6811,0.6833,0.6885,0.7136,0.7393,0.7539,0.8088,0.8512,0.8568,0.885,0.901,0.901,0.885,0.8806,0.8956,1.0689,1.2481,1.4223,1.4693,1.515,1.5579,1.594,1.6308,1.6727,1.8118,1.8887,1.9044,2.0631,2.1528,-0.443,-0.4507,-0.4712,-0.5049,-0.4205,-0.3679,0.0,0.0,0.0,0.0,0.0,0.0,0.0,0.0,-0.6333,-0.6535,0.0,-0.6904,-0.6066,-0.6584,-0.6896,0.0,0.0,-0.7481,-0.743,-0.7506,-0.7597,-0.7637,-0.7346,-0.713,-0.7035,-0.6863,-0.6811,-0.6811,-0.626,-0.5774,-0.538,-0.4231,-0.3343,-0.2775,-0.1809,-0.1544,-0.1878,-0.1544,-0.1209,-0.091,0.0,-0.1097,-0.0365,-0.0112,0.0263,0.0749,0.161,0.1962,0.1947,0.2234,0.2317,0.232,0.2414,0.2278,0.2114,0.2639,0.2673,0.2573,0.3097,0.3649,0.4135,0.436,0.4692,0.4953,0.4953,0.4736,0.4549,0.4523,0.4452,0.4382,0.4312,0.4307,0.4462,0.4915,0.5313,0.5712,0.6237,0.6612,0.6863,0.6833,0.6966,0.7359,0.8098,0.8155,0.8421,0.918,0.9063,0.8944,0.8944,0.8784,0.9153,1.0245,1.1148,1.249,1.4379,1.456,1.4797,1.518,1.5565,1.5953,1.6328,1.7753,1.8573,1.8783,2.0352,2.1166,-0.4564,-0.4577,-0.4796,-0.5549,0.0,0.0,0.0,0.0,0.0,0.0,0.0,0.0,0.0,-0.6135,0.0,-0.7132,-0.7556,-0.7609,-0.7219,-0.7838,-0.8098,-0.756,-0.8447,-0.8974,-0.8748,-0.9065,-0.9101,-0.8612,-0.8305,-0.7878,-0.7334,-0.7125,-0.7014,-0.7014,-0.6565,-0.6144,-0.5714,-0.5079,-0.43,-0.3425,-0.2329,-0.1999,-0.2329,-0.1705,-0.1273,-0.1071,-0.1223,-0.084,-0.0073,0.0257,0.0696,0.1306,0.2213,0.2428,0.225,0.2317,0.2286,0.222,0.215,0.2083,0.2014,0.2083,0.2117,0.2181,0.2573,0.3163,0.3779,0.4135,0.4558,0.4922,0.496,0.4736,0.4517,0.449,0.4452,0.4382,0.4312,0.4151,0.4123,0.457,0.4966,0.5401,0.5882,0.6474,0.6885,0.6842,0.6863,0.7321,0.8541,0.8289,0.8456,0.9634,0.9328,0.9046,0.9057,0.8823,0.9488,1.1412,1.1585,1.2364,1.41,1.4333,1.456,1.4907,1.5196,1.5594,1.6095,1.7288,1.813,1.8621,1.9973,2.0878,-0.5119,-0.5091,-0.496,-0.4972,-0.4506,0.0,-0.622,-0.5044,0.0,-0.5322,0.0,0.0,0.0,-0.7526,-0.8221,-0.8669,-0.8767,-0.8737,-0.859,0.0,-0.9224,-0.9298,-0.9292,-0.9289,-0.9322,-0.9139,-0.8889,-0.854,-0.8308,-0.8033,-0.7686,-0.7656,-0.7627,-0.7627,-0.6887,-0.634,-0.606,-0.5277,-0.4615,-0.413,-0.379,-0.3657,-0.3721,-0.2762,-0.2213,-0.2054,-0.1128,-0.0363,0.0292,0.0764,0.1288,0.1854,0.2139,0.2422,0.2646,0.251,0.2281,0.2047,0.222,0.2047,0.1778,0.2014,0.2117,0.2117,0.215,0.2871,0.3714,0.3746,0.4333,0.4992,0.4922,0.4762,0.457,0.4523,0.4452,0.4382,0.4312,0.4151,0.4183,0.4762,0.5169,0.554,0.6006,0.6535,0.6885,0.6885,0.6833,0.7208,0.8281,0.855,0.8818,0.9305,0.9455,0.9515,0.9466,0.8948,0.93,1.0942,1.1405,1.2092,1.3151,1.3961,1.4592,1.4982,1.4968,1.533,1.6095,1.6652,1.7349,1.8253,1.9483,2.0639,-0.494,-0.4813,-0.4721,-0.5858,-0.5023,0.0,0.0,-0.5405,-0.4791,-0.6603,-0.63,0.0,0.0,0.0,-0.9289,-0.9045,-0.9616,-0.9977,-0.9624,-0.9699,-0.9816,-0.9816,-0.9698,-0.975,-1.0097,-0.9867,-0.9699,-0.974,-0.9093,-0.864,-0.8469,-0.7982,-0.7715,-0.7715,-0.7394,-0.7209,-0.71,-0.6798,-0.646,-0.6044,-0.4646,-0.4013,-0.3981,-0.2928,-0.2341,-0.2079,-0.1196,-0.0389,0.0327,0.0716,0.122,0.1812,0.2168,0.2487,0.2679,0.2543,0.2411,0.2311,0.2347,0.2247,0.2083,0.2183,0.2183,0.2117,0.2117,0.2606,0.3261,0.349,0.4016,0.457,0.489,0.4832,0.471,0.4576,0.4517,0.4452,0.4382,0.4285,0.4215,0.4312,0.4628,0.5036,0.5463,0.5937,0.6421,0.6772,0.6863,0.7208,0.8156,0.8518,0.8963,0.9657,0.9616,0.9389,0.8992,0.8737,0.8855,0.947,1.0861,1.2084,1.3054,1.4073,1.4606,1.4624,1.509,1.5477,1.571,1.6708,1.7531,1.8222,1.9202,2.0396,-0.5117,-0.4876,-0.4667,-0.6135,0.0,0.0,-0.6425,-0.606,-0.5711,-0.7287,-0.7191,0.0,0.0,0.0,0.0,0.0,-0.9943,-1.0307,-1.0172,-1.0148,-1.0148,-1.0148,-1.0085,-1.0161,-1.0534,-1.0298,-1.0235,-1.0445,-0.9766,-0.931,-0.9312,-0.8777,-0.8469,-0.8385,-0.8284,-0.8153,-0.7993,-0.7888,-0.7695,-0.7334,-0.5808,-0.5035,-0.4922,-0.3827,-0.3244,-0.301,-0.1689,-0.075,-0.007,0.0678,0.13,0.1873,0.2242,0.2477,0.2613,0.2577,0.251,0.2474,0.2441,0.2344,0.2217,0.222,0.2183,0.2083,0.2083,0.2477,0.3035,0.3425,0.3849,0.4339,0.4858,0.4902,0.4774,0.4672,0.4614,0.4517,0.442,0.435,0.428,0.4123,0.4436,0.4845,0.5219,0.5696,0.6206,0.672,0.6833,0.7199,0.8083,0.8606,0.9276,1.0278,0.9877,0.9433,0.9186,0.8849,0.8711,0.8875,1.0668,1.198,1.2624,1.3963,1.4651,1.4493,1.4982,1.533,1.5521,1.6408,1.7286,1.8222,1.8905,2.0236,-0.5763,-0.5411,-0.4927,0.0,0.0,0.0,-0.6965,-0.7012,-0.6631,-0.7111,0.0,-0.9227,-0.8367,0.0,0.0,-1.0045,-0.9719,-0.9635,-1.0234,-1.0312,-1.0363,-1.0512,-1.0498,-1.0498,-1.0523,-1.0323,-1.026,-1.0396,-1.0159,-1.0071,-1.0208,-1.0208,-1.0096,-0.9906,-0.9558,-0.9135,-0.8601,-0.8336,-0.8033,-0.7715,-0.7364,-0.7056,-0.6781,-0.5691,-0.5204,-0.5041,-0.2644,-0.1378,-0.0853,0.0665,0.1609,0.2114,0.2311,0.2408,0.2408,0.2613,0.2577,0.2408,0.2474,0.2278,0.2014,0.2083,0.2083,0.2083,0.2014,0.251,0.3167,0.3486,0.3876,0.4301,0.4826,0.4864,0.4768,0.4812,0.4704,0.457,0.4447,0.4388,0.4382,0.4312,0.4686,0.5093,0.5428,0.5928,0.6407,0.6751,0.6811,0.7156,0.8093,0.8908,0.9856,1.1069,1.0258,0.9833,1.0348,0.9351,0.8939,0.9447,1.0875,1.1695,1.1695,1.3639,1.4714,1.4714,1.4525,1.4811,1.5594,1.5536,1.6428,1.8207,1.8454,2.0081,-0.5141,-0.4808,0.0,-0.519,0.0,0.0,0.0,-0.5791,0.0,0.0,-0.8228,-0.8438,-0.937,0.0,0.0,-1.0354,-1.1028,-1.1517,-1.1504,-1.1532,-1.1811,-1.2465,-1.1421,-1.099,-1.1884,-1.1169,-1.0774,-1.1205,-1.077,-1.053,-1.0626,-1.0171,-0.9881,-0.9765,-0.9516,-0.9357,-0.9251,-0.8976,-0.8673,-0.8322,-0.7791,-0.7393,-0.7026,-0.5529,-0.4632,-0.4135,-0.241,-0.0963,0.0266,0.1303,0.1811,0.1981,0.2011,0.2111,0.2181,0.2247,0.2247,0.2181,0.2214,0.2114,0.2014,0.2014,0.2014,0.1947,0.1811,0.1942,0.2206,0.2567,0.2616,0.262,0.3168,0.3069,0.3185,0.454,0.473,0.4602,0.4538,0.4479,0.4382,0.4382,0.4344,0.4564,0.5365,0.5508,0.582,0.6681,0.6833,0.7421,0.891,0.9243,0.9812,1.1069,1.0934,1.0472,0.9889,0.9533,0.9258,0.9085,1.0767,1.1737,1.1695,1.367,1.4746,1.4714,1.4811,1.535,1.6293,1.6036,1.6783,1.8423,1.8238,1.9653,-0.5864,-0.5671,0.0,-0.6829,-0.6455,-0.5741,-0.569,0.0,0.0,0.0,0.0,-0.9362,-1.0099,-1.0704,0.0,-1.1338,-1.1976,-1.2492,-1.2567,-1.2635,-1.2856,-1.3377,-1.251,-1.2046,-1.2555,-1.2197,-1.1985,-1.2059,-1.1985,-1.197,-1.2067,-1.1374,-1.0865,-1.0663,-1.0136,-0.9803,-0.9659,-0.9434,-0.9101,-0.8668,-0.8153,-0.7705,-0.7294,-0.6075,-0.5117,-0.4299,-0.2273,-0.0498,0.0969,0.1676,0.1981,0.1981,0.1981,0.2014,0.2117,0.2117,0.2117,0.2117,0.2117,0.2047,0.1947,0.1947,0.1947,0.1878,0.1742,0.1744,0.1878,0.2242,0.2113,0.2009,0.2515,0.2338,0.2426,0.3984,0.4174,0.4113,0.4509,0.4505,0.4388,0.4388,0.4253,0.4441,0.5295,0.5352,0.5595,0.6529,0.6712,0.7395,0.918,0.9358,0.9875,1.141,1.1377,1.091,1.0041,0.9762,0.9435,0.8928,1.0371,1.1403,1.1724,1.3714,1.4777,1.4746,1.4873,1.5383,1.6234,1.6277,1.7043,1.8408,1.8373,1.9679,-0.7296,0.0,0.0,-0.9145,-0.7812,0.0,-0.7233,-0.7618,-0.8214,-0.9739,0.0,-1.1156,-1.0681,-1.1234,-1.1961,-1.2611,-1.2704,-1.2898,-1.355,-1.3638,-1.3653,-1.3764,-1.369,-1.338,-1.2813,-1.3267,-1.3401,-1.2884,-1.338,-1.3805,-1.3979,-1.322,-1.2575,-1.2113,-1.1193,-1.0424,-0.9931,-0.9686,-0.9331,-0.8844,-0.8406,-0.7934,-0.7424,-0.6901,-0.6075,-0.4884,-0.2101,-0.0131,0.1138,0.1778,0.2047,0.2081,0.2103,0.2101,0.2098,0.2054,0.2052,0.2052,0.2052,0.1991,0.1864,0.1887,0.1864,0.1845,0.1733,0.1804,0.2014,0.2245,0.2073,0.1935,0.2375,0.2169,0.2119,0.3116,0.3242,0.338,0.4347,0.4479,0.4388,0.4382,0.4382,0.4608,0.5295,0.5421,0.5641,0.6399,0.649,0.7129,0.8955,0.9228,0.9959,1.1786,1.1594,1.116,1.0624,1.0091,0.9561,0.9023,0.988,1.0833,1.1767,1.3659,1.4707,1.4808,1.4746,1.5084,1.5889,1.6368,1.7212,1.8439,1.8768,2.0033,-0.6641,-0.6112,0.0,0.0,-0.6424,-0.6914,-1.0129,-1.0366,-1.0175,-1.1046,-1.0496,-1.0292,-1.1769,-1.1707,-1.1712,-1.2629,-1.345,-1.4126,-1.4539,-1.4645,-1.4973,-1.5774,-1.4565,-1.376,-1.3912,-1.3355,-1.3013,-1.3016,-1.3176,-1.3457,-1.39,-1.364,-1.3004,-1.1976,-1.1591,-1.0961,-1.0072,-0.9581,-0.9301,-0.9193,-0.8505,-0.7784,-0.7006,-0.6059,-0.4665,-0.296,-0.1572,-0.0478,0.0402,0.1173,0.1642,0.1937,0.2012,0.2006,0.1995,0.1787,0.1698,0.1698,0.1698,0.1692,0.1656,0.1664,0.1654,0.1663,0.1626,0.1624,0.1583,0.1479,0.1089,0.0683,0.0795,0.0389,0.0364,0.1883,0.272,0.3398,0.4194,0.4253,0.4226,0.4355,0.4291,0.4473,0.5383,0.5477,0.5641,0.6399,0.6452,0.6848,0.8056,0.8793,0.964,1.0799,1.1509,1.171,1.1171,1.0679,1.0187,0.9649,1.0156,1.0906,1.1855,1.3041,1.4045,1.4794,1.4746,1.5576,1.736,1.6831,1.7546,1.9327,1.9194,2.0264,0.0,0.0,0.0,-0.7885,0.0,-0.9653,-1.0986,-1.148,-1.1753,-1.2142,-1.1589,-1.1378,-1.2488,-1.2319,-1.2304,-1.3177,-1.4012,-1.4727,-1.5214,-1.5552,-1.5962,-1.648,-1.5692,-1.5118,-1.5152,-1.4796,-1.455,-1.4497,-1.4616,-1.48,-1.5088,-1.4298,-1.3496,-1.278,-1.1968,-1.1176,-1.0398,-0.9983,-0.9569,-0.9143,-0.8366,-0.7315,-0.6011,-0.506,-0.4073,-0.3038,-0.1644,-0.0837,-0.0385,0.0824,0.1434,0.1632,0.1948,0.2055,0.2007,0.1593,0.1559,0.1669,0.1388,0.1262,0.1261,0.1505,0.1436,0.1258,0.152,0.1572,0.1519,0.1427,0.0981,0.0478,0.0213,-0.0172,-0.0117,0.1442,0.2125,0.2771,0.404,0.4156,0.4129,0.435,0.4285,0.4473,0.539,0.5727,0.6014,0.6337,0.6368,0.6738,0.7785,0.8678,0.9576,1.061,1.1305,1.1515,1.1021,1.0745,1.0275,0.9506,0.9897,1.0689,1.1842,1.2403,1.335,1.478,1.4777,1.5324,1.6526,1.6964,1.7743,1.8841,1.9456,2.0338,0.0,0.0,-0.8815,-1.0224,-1.13,0.0,-1.1139,-1.1738,-1.2521,-1.2871,-1.2867,-1.2832,-1.2889,-1.2869,-1.3076,-1.3775,-1.4335,-1.4885,-1.5549,-1.6096,-1.6488,-1.6642,-1.6572,-1.6417,-1.6147,-1.6264,-1.6266,-1.6056,-1.6221,-1.6402,-1.6512,-1.5286,-1.4357,-1.3885,-1.2701,-1.1703,-1.0941,-1.0679,-1.0123,-0.9271,-0.8178,-0.6786,-0.5123,-0.4294,-0.3872,-0.3718,-0.2141,-0.1387,-0.1109,0.0382,0.108,0.1213,0.1882,0.212,0.2069,0.1441,0.1314,0.1362,0.0941,0.0763,0.0769,0.1142,0.1016,0.0837,0.127,0.1416,0.1459,0.1459,0.1145,0.068,0.0152,-0.0215,-0.007,0.134,0.1632,0.2091,0.3819,0.4058,0.4026,0.4318,0.4473,0.4762,0.5365,0.599,0.639,0.6307,0.6315,0.6628,0.7494,0.8531,0.9491,1.0291,1.0945,1.1091,1.0642,1.0516,1.0103,0.9264,0.9506,1.0343,1.1855,1.191,1.2817,1.4749,1.4777,1.493,1.5293,1.6975,1.7906,1.8218,1.9685,2.0488,0.0,0.0,-0.8469,0.0,-0.9623,-0.9464,0.0,0.0,-1.1368,0.0,-1.2975,-1.2885,-1.2906,-1.2942,-1.317,-1.3807,-1.425,-1.4723,-1.5288,-1.5623,-1.6087,-1.6864,-1.6415,-1.6112,-1.6265,-1.5879,-1.5775,-1.6159,-1.6167,-1.6385,-1.6987,-1.6897,-1.6141,-1.4626,-1.4476,-1.3591,-1.185,-1.1615,-1.1137,-1.0365,-0.8216,-0.6556,-0.5321,-0.436,-0.3703,-0.336,-0.3112,-0.2548,-0.1697,-0.0567,0.0184,0.0707,0.1833,0.2277,0.2151,0.1277,0.0491,-0.0102,-0.0048,0.0146,0.0305,-0.0024,0.0177,0.0553,0.0546,0.072,0.0895,0.0895,0.0852,0.068,0.0152,-0.0287,-0.021,0.1259,0.1602,0.2006,0.3479,0.377,0.3863,0.4248,0.5017,0.5561,0.5372,0.5967,0.6429,0.6315,0.6315,0.6361,0.6494,0.8089,0.9081,0.8762,1.0278,1.1091,1.0642,1.0171,0.9861,0.9724,0.9379,1.0,1.1829,1.191,1.2787,1.4686,1.4714,1.5156,1.605,1.7151,1.81,1.8906,2.0102,2.1041,-0.6299,-0.6857,-0.7584,0.0,-1.0191,-0.9497,-1.21,0.0,-1.1646,-1.2799,-1.3157,-1.3193,-1.3087,-1.3087,-1.3221,-1.3571,-1.4046,-1.451,-1.4854,-1.5718,-1.6505,-1.7004,-1.6792,-1.6735,-1.7004,-1.6067,-1.5614,-1.599,-1.5984,-1.6095,-1.641,-1.6443,-1.6136,-1.5408,-1.4576,-1.3682,-1.263,-1.1827,-1.0963,-1.0081,-0.817,-0.6793,-0.5856,-0.4591,-0.3741,-0.3291,-0.3149,-0.2708,-0.2073,-0.126,-0.0789,-0.0484,0.0232,0.0428,0.0196,-0.0482,-0.0802,-0.0861,-0.0627,-0.0336,-0.0115,-0.0338,-0.0235,-0.0074,-0.0095,0.0121,0.0348,0.0348,0.034,0.0307,0.0071,-0.03,-0.0304,0.0909,0.1407,0.1977,0.3383,0.3672,0.37,0.3858,0.4845,0.554,0.5232,0.5952,0.6513,0.639,0.636,0.636,0.636,0.8043,0.9154,0.8943,1.0399,1.1203,1.0642,1.039,1.0125,0.9827,0.9609,1.036,1.2277,1.2078,1.2787,1.4655,1.4714,1.4858,1.5188,1.689,1.79,1.8248,1.9929,2.085,0.0,0.0,-0.6814,-1.0454,-0.9939,-0.9113,0.0,0.0,-1.1352,0.0,-1.316,-1.3527,-1.3599,-1.3667,-1.3717,-1.3768,-1.4435,-1.502,-1.5152,-1.6184,-1.7029,-1.7363,-1.7329,-1.7452,-1.7886,-1.6639,-1.5925,-1.6219,-1.5992,-1.5925,-1.6075,-1.6082,-1.6101,-1.6192,-1.4892,-1.3959,-1.3495,-1.2163,-1.0959,-0.9911,-0.832,-0.7114,-0.6218,-0.4689,-0.3705,-0.3249,-0.3067,-0.2739,-0.2325,-0.1752,-0.1512,-0.1474,-0.1056,-0.1027,-0.1278,-0.1713,-0.1607,-0.1225,-0.1082,-0.0798,-0.0499,-0.0531,-0.0492,-0.0472,-0.0495,-0.0315,-0.0112,-0.0067,-0.0022,-0.0022,-0.0112,-0.018,-0.0047,0.0694,0.1325,0.2094,0.3383,0.3667,0.3667,0.3602,0.461,0.5401,0.5131,0.5944,0.6565,0.6413,0.6413,0.6382,0.639,0.8075,0.9207,0.9096,1.0388,1.1018,1.0447,1.0401,1.0229,0.9827,0.9804,1.0588,1.2259,1.2041,1.2631,1.4249,1.4491,1.4556,1.4397,1.6597,1.7667,1.7647,1.9756,2.0644,0.0,-0.6095,0.0,-0.7884,0.0,0.0,0.0,0.0,0.0,-1.1628,-1.287,-1.3826,-1.4582,-1.4925,-1.5033,-1.4851,-1.5904,-1.6762,-1.6775,-1.7003,-1.7448,-1.8151,-1.7958,-1.8048,-1.8759,-1.7684,-1.699,-1.7205,-1.6411,-1.6117,-1.6644,-1.672,-1.6852,-1.7044,-1.6217,-1.5382,-1.4528,-1.302,-1.1663,-1.0525,-0.8792,-0.7335,-0.6155,-0.4404,-0.344,-0.3104,-0.3152,-0.2957,-0.2531,-0.1992,-0.1819,-0.181,-0.1147,-0.0952,-0.1049,-0.1409,-0.1354,-0.1172,-0.1539,-0.1282,-0.0779,-0.0847,-0.0672,-0.0427,-0.0472,-0.0495,-0.0427,-0.0247,-0.009,-0.0067,-0.0382,0.0135,0.0748,0.0801,0.1492,0.2445,0.3383,0.3761,0.3826,0.3635,0.459,0.5352,0.5131,0.5944,0.6565,0.6413,0.6413,0.639,0.6315,0.7987,0.9008,0.8495,0.9754,1.0424,0.9896,0.985,0.9838,0.9804,0.9804,1.0255,1.1345,1.164,1.2225,1.316,1.3988,1.4429,1.4397,1.6547,1.7617,1.7647,1.9807,2.0777,0.0,0.0,0.0,-0.7668,-0.7294,-0.6888,-0.8932,-0.9921,-1.0586,-1.1234,-1.2791,-1.4082,-1.4194,-1.4787,-1.5418,-1.592,-1.6392,-1.6748,-1.6875,-1.744,-1.7994,-1.8379,-1.8317,-1.8358,-1.861,-1.757,-1.6905,-1.6974,-1.5829,-1.5624,-1.6761,-1.6204,-1.6318,-1.7399,-1.6667,-1.5572,-1.4106,-1.2977,-1.2218,-1.1803,-1.0184,-0.8671,-0.7246,-0.5704,-0.4237,-0.2924,-0.3069,-0.2922,-0.2574,-0.2344,-0.2412,-0.2642,-0.2453,-0.2663,-0.3044,-0.2851,-0.2951,-0.3065,-0.244,-0.2099,-0.1883,-0.1424,-0.1118,-0.0918,-0.0895,-0.0671,-0.0425,-0.0358,-0.0291,-0.0247,-0.0202,0.0721,0.1623,0.1646,0.2426,0.3206,0.3379,0.3536,0.3597,0.3372,0.4043,0.4718,0.4998,0.5658,0.6229,0.6504,0.6482,0.6421,0.636,0.7526,0.8519,0.8875,1.0002,1.0743,1.0759,1.0747,1.0747,1.0747,1.0493,1.0759,1.1692,1.1523,1.1954,1.309,1.3365,1.3799,1.4397,1.5898,1.6975,1.7715,1.9146,2.0156,-0.5256,0.0,0.0,0.0,0.0,-0.6586,-0.8084,0.0,-1.1018,-1.11,-1.2997,-1.471,-1.4816,-1.5696,-1.6556,-1.7034,-1.7402,-1.7711,-1.7907,-1.8441,-1.8851,-1.9012,-1.9017,-1.9013,-1.9013,-1.8018,-1.7341,-1.7234,-1.6094,0.0,-1.7059,-1.6353,-1.6311,-1.7188,-1.677,-1.5631,-1.382,-1.3231,-1.2796,-1.2479,-1.0937,-0.9397,-0.7897,-0.695,-0.5232,-0.307,-0.3696,-0.343,-0.2566,-0.2666,-0.2927,-0.3275,-0.329,-0.3674,-0.4117,-0.3501,-0.3508,-0.3722,-0.2709,-0.234,-0.2211,-0.1733,-0.1408,-0.1185,-0.1141,-0.0914,-0.0668,-0.0668,-0.0604,-0.0471,-0.0157,0.0981,0.2051,0.216,0.2948,0.3602,0.341,0.3405,0.3372,0.3241,0.3723,0.4269,0.4642,0.5376,0.6006,0.6283,0.6421,0.649,0.6413,0.7244,0.8177,0.9094,0.9985,1.072,1.124,1.1285,1.1285,1.1285,1.1021,1.1037,1.1471,1.1255,1.1603,1.2603,1.2843,1.3458,1.4433,1.5509,1.6579,1.77,1.8755,1.9743,0.0,0.0,0.0,0.0,0.0,0.0,-0.6454,0.0,-1.0566,-1.1157,-1.3449,-1.5624,-1.6478,-1.769,-1.8463,-1.8158,-1.9003,-1.9788,-1.9977,-1.9998,-2.003,-2.0084,-2.005,-1.9998,-1.9998,-1.9119,-1.8441,-1.8172,-1.7307,-1.7053,-1.7621,-1.7328,-1.6961,-1.6536,-1.6536,-1.5648,-1.3872,-1.3803,-1.3348,-1.2479,-1.0972,-0.9499,-0.8062,-0.795,-0.6316,-0.3646,-0.5029,-0.4449,-0.2569,-0.2938,-0.3298,-0.3605,-0.3518,-0.378,-0.4076,-0.3151,-0.288,-0.2907,-0.2298,-0.1931,-0.1733,-0.1714,-0.1493,-0.123,-0.123,-0.123,-0.1208,-0.1208,-0.1027,-0.0736,-0.0311,0.0848,0.2001,0.2307,0.3004,0.3602,0.3532,0.3405,0.3278,0.3208,0.3658,0.4075,0.4103,0.5061,0.5851,0.5805,0.6199,0.6452,0.6413,0.7141,0.8071,0.9084,0.9611,1.0278,1.1229,1.1308,1.1308,1.1308,1.1308,1.1079,1.0532,1.0826,1.1247,1.1687,1.2494,1.3445,1.4501,1.5421,1.6438,1.7569,1.869,1.951,-0.6505,0.0,0.0,0.0,0.0,0.0,0.0,0.0,0.0,-1.0803,-1.2527,-1.4261,-1.4965,-1.6469,-1.775,-1.8291,-1.9292,-2.001,-2.006,-2.0069,-2.0078,-2.0103,-2.0086,-2.005,-2.0009,-1.9687,-1.9442,0.0,-1.7824,-1.7454,-1.8626,-1.8234,-1.7841,-1.7512,-1.6896,-1.6025,-1.4824,-1.4124,-1.3348,-1.2479,-1.2069,-1.1072,-0.9548,-0.8463,-0.6909,-0.5059,-0.4436,-0.3844,-0.3266,-0.2937,-0.3203,-0.3779,-0.3471,-0.3557,-0.3785,-0.3334,-0.2981,-0.2649,-0.2233,-0.2211,-0.2302,-0.207,-0.2052,-0.2092,-0.185,-0.1673,-0.156,-0.156,-0.1446,-0.1132,-0.04,0.0985,0.2211,0.2259,0.2978,0.3635,0.3532,0.3405,0.3278,0.3208,0.334,0.3593,0.4011,0.4392,0.4897,0.5751,0.5944,0.6129,0.6504,0.6718,0.749,0.922,0.9435,1.0152,1.1814,1.1906,1.187,1.187,1.187,1.1446,1.0544,1.1231,1.1658,1.1687,1.2555,1.3458,1.4433,1.4708,1.5388,1.6564,1.8364,1.951,0.0,0.0,0.0,0.0,0.0,0.0,-0.839,-1.0319,-1.2061,0.0,-1.3913,-1.5612,-1.5268,-1.6384,-1.7539,-1.8051,-1.8703,-1.9388,-2.0099,-2.0175,-2.0192,-2.0215,-2.0212,-2.0164,-2.0134,-2.0375,-2.0299,-1.9775,-1.9101,-1.8795,-1.8959,-1.8589,-1.8255,-1.7944,-1.7715,-1.716,-1.6265,-1.531,-1.44,-1.3483,-1.2823,-1.1697,-1.0184,-0.9976,-0.8363,-0.5734,-0.5488,-0.4696,-0.3527,-0.3107,-0.3412,-0.4071,-0.3792,-0.3887,-0.4094,-0.3459,-0.3144,-0.2981,-0.2445,-0.2493,-0.2713,-0.242,-0.242,-0.2485,-0.214,-0.1964,-0.1872,-0.1872,-0.1803,-0.1601,-0.0955,0.0351,0.148,0.1397,0.2046,0.2659,0.2564,0.2381,0.2451,0.311,0.3208,0.3303,0.3658,0.3946,0.4328,0.5061,0.5526,0.5906,0.6213,0.639,0.7257,0.9299,0.9425,1.0172,1.2129,1.2258,1.2222,1.2222,1.1989,1.1446,1.0564,1.0801,1.1197,1.1733,1.2187,1.3081,1.4397,1.4365,1.5179,1.676,1.8409,1.9544,0.0,0.0,0.0,0.0,0.0,0.0,-0.8773,-1.113,-1.3327,0.0,-1.5803,-1.7513,-1.6048,-1.6544,-1.7186,-1.7183,-1.744,-1.8223,-1.9926,-2.0253,-2.0288,-2.0241,-2.0283,-2.0301,-2.0294,-2.0883,-2.0919,-2.0031,-2.0668,-2.042,-1.8896,-1.8643,-1.8373,-1.8027,-1.8654,-1.8595,-1.7715,-1.6758,-1.5835,-1.4886,-1.327,-1.1783,-1.0505,-1.1717,-1.008,-0.6347,-0.7261,-0.618,-0.3738,-0.3514,-0.38,-0.4382,-0.4244,-0.4426,-0.4635,-0.3688,-0.3501,-0.3626,-0.2991,-0.2975,-0.3193,-0.2933,-0.2885,-0.2858,-0.2526,-0.2363,-0.2263,-0.2162,-0.2112,-0.2009,-0.1696,-0.0662,0.0276,0.0199,0.0734,0.1268,0.1186,0.0991,0.1285,0.2825,0.305,0.3022,0.3143,0.3593,0.398,0.407,0.4928,0.5569,0.5662,0.6075,0.7107,0.9005,0.9289,1.0131,1.2083,1.2248,1.2271,1.2401,1.1885,1.1304,1.0648,1.0133,1.0427,1.1631,1.1742,1.2651,1.4397,1.4332,1.5459,1.7632,1.8596,1.9482,0.0,0.0,0.0,0.0,-0.9754,0.0,-0.9896,-1.0394,-1.1023,0.0,-1.2218,-1.2756,-1.3017,-1.3866,-1.4539,-1.4533,-1.5747,-1.7279,-1.9014,-1.9903,-2.0115,-1.9368,-1.9933,-2.0353,-2.0318,-2.0389,-2.0591,-2.0975,-2.1005,-2.0392,-1.8966,-1.8842,-1.8586,-1.8091,-1.8722,-1.8642,-1.7715,-1.6764,-1.5863,-1.4968,-1.3352,-1.2427,-1.2105,-1.1171,-1.0244,-0.93,-0.7141,-0.5879,-0.5284,-0.4449,-0.4183,-0.4313,-0.4236,-0.4289,-0.4421,-0.4699,-0.4404,-0.3905,-0.4234,-0.4501,-0.4647,-0.4438,-0.4583,-0.4809,-0.4576,-0.3991,-0.3237,-0.2466,-0.2149,-0.1984,-0.1811,-0.1007,-0.0213,-0.0076,0.0603,0.1186,0.1074,0.1074,0.128,0.1829,0.184,0.196,0.269,0.2901,0.3224,0.398,0.4065,0.421,0.4684,0.5211,0.5987,0.7209,0.7963,0.9162,1.1103,1.1227,1.1559,1.2342,1.2283,1.1733,1.066,1.1312,1.1369,1.0673,1.213,1.34,1.4397,1.4332,1.5459,1.7617,1.7802,1.8788,0.0,0.0,0.0,-1.0159,-1.0187,0.0,0.0,-1.0842,-1.1579,-1.1893,-1.2678,-1.299,-1.203,-1.2645,-1.316,-1.2726,-1.3715,-1.499,-1.6279,-1.8337,-1.9696,-1.9703,-2.0111,-2.0352,-2.0253,-2.0616,-2.0926,-2.1145,-2.05,-1.9737,-1.8878,-1.8753,-1.8528,-1.8172,-1.9121,-1.942,-1.8951,-1.8332,-1.7432,-1.6236,-1.4588,-1.3372,-1.2585,-1.18,-1.1041,-1.0274,-0.8759,-0.7673,-0.691,-0.5765,-0.5372,-0.5442,-0.4869,-0.4726,-0.4875,-0.5049,-0.4953,-0.4789,-0.501,-0.5189,-0.5283,-0.5108,-0.5198,-0.5304,-0.5108,-0.4407,-0.3561,-0.3119,-0.255,-0.2022,-0.196,-0.1506,-0.0986,-0.0762,-0.0412,-0.0149,-0.01,-0.0199,-0.0198,0.0174,0.0398,0.0903,0.2189,0.2557,0.285,0.3335,0.3503,0.3699,0.4018,0.4716,0.5623,0.6681,0.7568,0.8671,1.0222,1.032,1.0743,1.1722,1.1228,1.087,1.0755,1.0652,1.0755,1.1082,1.2476,1.3645,1.4556,1.4624,1.567,1.7584,1.7584,1.8567,0.0,0.0,0.0,0.0,0.0,-1.0398,0.0,0.0,0.0,-1.2187,-1.3357,0.0,0.0,0.0,0.0,0.0,0.0,0.0,0.0,-1.6071,0.0,-1.9051,-1.9433,-1.961,-1.9502,-2.0539,-2.1101,-2.0797,-1.9996,-1.9344,-1.8895,-1.8662,-1.8452,-1.8256,-1.9521,-2.0193,-2.0193,-1.9951,-1.9194,-1.7945,-1.5989,-1.4356,-1.3099,-1.2787,-1.196,-1.0836,-1.053,-0.9719,-0.8518,-0.7271,-0.6853,-0.694,-0.5831,-0.542,-0.5415,-0.5485,-0.5608,-0.5715,-0.5694,-0.5738,-0.581,-0.5744,-0.5763,-0.574,-0.5404,-0.4761,-0.4122,-0.391,-0.314,-0.2358,-0.2285,-0.2066,-0.1821,-0.1585,-0.1629,-0.1673,-0.1538,-0.1689,-0.1711,-0.1292,-0.0743,0.0118,0.1609,0.2256,0.2605,0.2698,0.3052,0.3316,0.3316,0.4204,0.5189,0.6129,0.712,0.8179,0.9305,0.9401,0.9874,1.0979,1.0107,0.992,1.0696,0.9615,0.9909,1.1767,1.2545,1.3425,1.4394,1.4833,1.5939,1.7602,1.7667,1.8619,0.0,0.0,0.0,0.0,-1.1382,0.0,-1.0365,0.0,-1.0382,-1.0326,0.0,-1.0582,0.0,0.0,0.0,0.0,0.0,0.0,-1.1592,-1.3268,-1.4531,-1.4635,-1.6,-1.6937,-1.6925,-1.8947,-2.0174,-1.9955,-2.0458,-2.0322,-1.9221,-1.8842,-1.8606,-1.8465,-1.9556,-2.0152,-2.0193,-1.9976,-1.979,-1.9605,-1.6597,-1.508,-1.4845,-1.3378,-1.2597,-1.2361,-1.0985,-1.0299,-1.0064,-0.8837,-0.8326,-0.8181,-0.6987,-0.6109,-0.5638,-0.6926,-0.6864,-0.6201,-0.6596,-0.6802,-0.695,-0.7178,-0.7456,-0.7518,-0.6613,-0.6302,-0.6,-0.4753,-0.3945,-0.334,-0.2994,-0.2703,-0.2476,-0.2381,-0.242,-0.2498,-0.2596,-0.2272,-0.1902,-0.1611,-0.0818,0.0049,0.0881,0.1667,0.2278,0.2649,0.2459,0.2259,0.2259,0.3205,0.3963,0.4195,0.5699,0.7125,0.8264,0.8367,0.896,1.0308,1.0273,1.0174,1.0108,0.9447,0.9965,1.1855,1.2004,1.2466,1.3381,1.4592,1.6034,1.7685,1.7926,1.8866,0.0,0.0,0.0,0.0,0.0,0.0,-1.1825,0.0,-1.0131,0.0,0.0,0.0,0.0,0.0,0.0,0.0,-0.9792,0.0,0.0,0.0,-1.2445,0.0,0.0,0.0,-1.6991,-1.7926,-1.8575,-1.8793,-1.9276,-1.9191,-1.8381,-1.8591,-1.8661,-1.8445,-1.9104,-1.9457,-1.9457,-2.0264,-1.9698,-1.7802,-1.6941,-1.5593,-1.3786,-1.307,-1.2757,-1.2706,-1.2075,-1.1788,-1.1702,-1.0488,-0.9976,-0.9894,-0.9345,-0.8553,-0.7776,-0.8405,-0.8457,-0.8281,-0.8591,-0.8395,-0.7985,-0.7751,-0.8109,-0.8485,-0.762,-0.7013,-0.6478,-0.5889,-0.5126,-0.4436,-0.4262,-0.3842,-0.342,-0.3235,-0.2979,-0.2751,-0.2687,-0.2574,-0.238,-0.2124,-0.1519,-0.0799,0.0049,0.1342,0.2234,0.2071,0.2078,0.2038,0.1822,0.245,0.3108,0.3732,0.4934,0.6093,0.7138,0.7337,0.7866,0.8971,0.9444,0.989,1.0269,0.954,1.0265,1.2708,1.2197,1.2635,1.4125,1.5081,1.6144,1.7256,1.7868,1.8915,-1.4857,0.0,0.0,0.0,0.0,0.0,0.0,0.0,0.0,0.0,0.0,0.0,0.0,0.0,0.0,0.0,0.0,-1.0217,0.0,-0.9935,0.0,0.0,0.0,0.0,0.0,-1.7158,-1.7503,-1.7797,-1.8236,-1.8291,-1.7824,-1.8377,-1.8643,-1.8505,-1.8773,-1.8934,-1.8934,-2.0213,-1.9774,-1.7588,-1.7752,-1.652,-1.4063,-1.3652,-1.3222,-1.2811,-1.2811,-1.285,-1.284,-1.1947,-1.1653,-1.1709,-1.1657,-1.1147,-1.0433,-0.9984,-0.9777,-0.9734,-1.0018,-0.9728,-0.9186,-0.8712,-0.8958,-0.9327,-0.8774,-0.8151,-0.7536,-0.7226,-0.6486,-0.5749,-0.5425,-0.4938,-0.4469,-0.427,-0.3988,-0.3692,-0.3495,-0.3364,-0.3189,-0.2933,-0.2276,-0.1456,-0.0565,0.0962,0.1937,0.1677,0.1863,0.1935,0.1642,0.2001,0.2663,0.3595,0.4539,0.5487,0.6427,0.6651,0.7059,0.7776,0.8591,0.9428,1.0266,0.9785,1.059,1.2931,1.2542,1.3014,1.4418,1.5257,1.6098,1.691,1.7914,1.8982,0.0,0.0,0.0,-1.6987,0.0,0.0,0.0,0.0,-1.1362,0.0,0.0,0.0,0.0,0.0,0.0,0.0,0.0,0.0,0.0,0.0,0.0,0.0,0.0,0.0,0.0,-1.6596,-1.7456,-1.7165,-1.7982,-1.836,-1.8005,-1.8305,-1.8571,-1.8697,-1.8778,-1.8863,-1.8998,-1.9681,-2.0321,-2.0824,-1.9353,-1.8169,-1.7202,-1.5786,-1.4267,-1.2811,-1.2811,-1.2962,-1.3176,-1.316,-1.3276,-1.353,-1.3498,-1.348,-1.3267,-1.1711,-1.0522,-0.9755,-1.0224,-1.0489,-1.0628,-1.0534,-1.0399,-1.0249,-1.0168,-1.0152,-0.9947,-0.8756,-0.8033,-0.7354,-0.6251,-0.5774,-0.5558,-0.554,-0.571,-0.5849,-0.5642,-0.4999,-0.4384,-0.4187,-0.2929,-0.1636,-0.0838,0.0317,0.128,0.164,0.1811,0.1823,0.1617,0.2001,0.2663,0.3595,0.4539,0.5487,0.6427,0.6573,0.6747,0.7107,0.7956,0.8842,0.9788,1.0225,1.0947,1.1923,1.2861,1.3381,1.3452,1.4772,1.5921,1.694,1.82,1.9073,-1.9918,-2.0803,-2.1092,-1.985,-1.846,-1.7044,0.0,0.0,0.0,0.0,0.0,0.0,0.0,0.0,0.0,0.0,0.0,0.0,0.0,0.0,0.0,0.0,0.0,0.0,0.0,0.0,-1.4909,-1.6202,-1.61,-1.613,-1.6458,-1.7379,-1.7966,-1.8088,-1.8296,-1.8395,-1.84,-1.8934,-1.8783,-1.7959,-1.8418,-1.7368,-1.5038,-1.5842,-1.5302,-1.3837,-1.4639,-1.4727,-1.438,-1.4948,-1.4892,-1.4522,-1.5094,-1.5321,-1.5113,-1.3459,-1.2637,-1.2285,-1.1865,-1.2009,-1.2221,-1.1338,-1.1067,-1.1034,-1.075,-1.0527,-1.0267,-0.9869,-0.9631,-0.927,-0.8354,-0.7767,-0.7253,-0.6655,-0.6265,-0.5988,-0.5913,-0.5305,-0.4686,-0.4451,-0.3577,-0.2549,-0.1471,-0.0578,0.0272,0.1179,0.1573,0.1633,0.1253,0.1348,0.1764,0.2608,0.3595,0.4546,0.5429,0.6125,0.6686,0.7089,0.7618,0.8495,0.9747,0.9657,1.0631,1.2847,1.2555,1.3028,1.4318,1.5034,1.5684,1.6243,1.7381,1.8481,-2.1981,-2.2641,-2.2753,-2.1765,-2.0469,-1.9145,-1.8099,0.0,-1.4781,0.0,0.0,0.0,0.0,0.0,0.0,0.0,0.0,0.0,0.0,-1.0467,0.0,0.0,0.0,0.0,0.0,-1.382,-1.4472,-1.5433,-1.5338,-1.5367,-1.5668,-1.6958,-1.7704,-1.7806,-1.8142,-1.8293,-1.8293,-1.8547,-1.829,-1.7538,-1.8506,-1.7726,-1.5493,-1.6764,-1.6484,-1.5037,-1.618,-1.6427,-1.6094,-1.6708,-1.6666,-1.625,-1.6151,-1.6123,-1.5972,-1.4654,-1.4032,-1.3799,-1.3223,-1.3275,-1.3422,-1.2574,-1.2287,-1.2224,-1.1852,-1.1611,-1.1351,-1.0975,-1.0845,-1.0653,-0.9844,-0.934,-0.8901,-0.8342,-0.7703,-0.7182,-0.7116,-0.6333,-0.5555,-0.5297,-0.4538,-0.3555,-0.2397,-0.1704,-0.0832,0.058,0.1229,0.1405,0.0975,0.0815,0.1102,0.2033,0.2912,0.3986,0.5341,0.6043,0.6543,0.6798,0.7216,0.793,0.9007,0.9244,1.0477,1.2834,1.2568,1.3209,1.4808,1.5072,1.5419,1.5922,1.6563,1.7811]},{"header":{"parameterUnit":"m.s-1","parameterCategory":1,"la1":30.6,"la2":29.2853,"lo1":-89.7004,"lo2":-87.6739,"dy":0.0162,"dx":0.0183,"nx":112,"ny":82,"refTime":"2023-04-29T00:00:00:Z","depth":0,"parameterNumber":3,"parameterNumberName":"V-component_of_WINDS"},"data":[0.0,0.0,0.0,0.0,0.0,0.0,0.0,0.0,0.0,0.0,0.0,0.0,0.0,0.0,0.0,0.0,0.0,0.0,0.0,0.0,0.0,0.0,0.0,0.0,0.0,0.0,0.0,0.0,0.0,0.0,0.0,0.0,0.0,0.0,0.0,0.0,0.0,0.0,0.0,0.0,0.0,0.0,0.0,0.0,0.0,0.0,0.0,0.0,0.0,0.0,0.0,0.0,0.0,0.0,0.0,0.0,0.0,0.0,0.0,0.0,0.0,0.0,0.0,0.0,0.0,0.0,0.0,0.0,0.0,0.0,0.0,0.0,0.0,0.0,0.0,0.0,0.0,0.0,0.0,0.0,0.0,0.0,0.0,0.0,0.0,0.0,0.0,0.0,0.0,0.0,0.3426,0.5174,0.7417,0.925,1.0212,1.0856,1.1175,1.1192,0.0,0.0,0.0,0.0,0.0,0.0,0.0,0.0,0.0,0.0,0.0,0.0,0.0,0.0,0.0,0.0,0.0,0.0,0.0,0.0,0.0,0.0,0.0,0.0,0.0,0.0,0.0,0.0,0.0,0.0,0.0,0.0,0.0,0.0,0.0,0.0,0.0,0.0,0.0,0.0,0.0,0.0,0.0,0.0,0.0,0.0,0.0,0.0,0.0,0.0,0.0,0.0,0.0,0.0,0.0,0.0,0.0,0.0,0.0,0.0,0.0,0.0,0.0,0.0,0.0,0.0,0.0,0.0,0.0,0.0,0.0,0.0,0.0,0.0,0.0,0.0,0.0,0.0,0.0,0.0,0.0,0.0,0.0,0.0,0.0,0.0,0.0,0.0,0.0,0.0,0.0,0.0,0.0,0.0,0.0,0.0,0.0,0.0,0.0,0.0,0.0,0.0,0.0,0.0,0.361,0.5876,0.8101,0.964,1.0275,1.117,1.1529,1.1133,0.0,0.0,0.0,0.0,0.0,0.0,0.0,0.0,0.0,0.0,0.0,0.0,0.0,0.0,0.0,0.0,0.0,0.0,0.0,0.0,0.0,0.0,0.0,0.0,0.0,0.0,0.0,0.0,0.0,0.0,0.0,0.0,0.0,0.0,0.0,0.0,0.0,0.0,0.0,0.0,0.0,0.0,0.0,0.0,0.0,0.0,0.0,0.0,0.0,0.0,0.0,0.0,0.0,0.0,0.0,0.0,0.0,0.0,0.0,0.0,0.0,0.0,0.0,0.0,0.0,0.0,0.0,0.0,0.0,0.0,0.0,0.0,0.0,0.0,0.0,0.0,0.0,0.0,0.0,0.0,0.0,0.0,0.0,0.0,0.0,0.0,0.0,0.0,0.0,0.0,0.0,0.0,0.0,0.0,0.0,0.0,0.0,0.0,0.0,0.0,0.0,0.0,0.0,0.3447,0.4677,0.5965,0.7708,0.9128,1.0078,1.0856,1.1226,1.1226,1.1133,0.0,0.0,0.0,0.0,0.0,0.0,0.0,0.0,0.0,0.0,0.0,0.0,0.0,0.0,0.0,0.0,0.0,0.0,0.0,0.0,0.0,0.0,0.0,0.0,0.0,0.0,0.0,0.0,0.0,0.0,0.0,0.0,0.0,0.0,0.0,0.0,0.0,0.0,0.0,0.0,0.0,0.0,0.0,0.0,0.0,0.0,0.0,0.0,0.0,0.0,0.0,0.0,0.0,0.0,0.0,0.0,0.0,0.0,0.0,0.0,0.0,0.0,0.0,0.0,0.0,0.0,0.0,0.0,0.0,0.0,0.0,0.0,0.0,0.0,0.0,0.0,0.0,0.0,0.0,0.0,0.0,0.0,0.0,0.0,0.0,0.0,0.0,0.0,0.0,0.0,0.0,0.0,0.0,0.0,0.0,0.0,0.0,0.0,0.0,0.0,0.0,0.0,0.4244,0.5366,0.5928,0.7312,0.8742,1.0015,1.0667,1.1012,1.1157,1.129,0.0,0.0,0.0,0.0,0.0,0.0,0.0,0.0,0.0,0.0,0.0,0.0,0.0,0.0,0.0,0.0,0.0,0.0,0.0,0.0,0.0,0.0,0.0,0.0,0.0,0.0,0.0,0.0,0.0,0.0,0.0,0.0,0.0,0.0,0.0,0.0,0.0,0.0,0.0,0.0,0.0,0.0,0.0,0.0,0.0,0.0,0.0,0.0,0.0,0.0,0.0,0.0,0.0,0.0,0.0,0.0,0.0,0.0,0.0,0.0,0.0,0.0,0.0,0.0,0.0,0.0,0.0,0.0,0.0,0.0,0.0,0.0,0.0,0.0,0.0,0.0,0.0,0.0,0.0,0.0,0.0,0.0,0.0,0.0,0.0,0.0,0.0,0.0,0.0,0.0,0.0,0.0,0.0,0.0,0.0,0.0,0.0,0.0,0.0,0.0,0.0,0.0,0.3938,0.4948,0.6213,0.7432,0.8784,1.0325,1.1094,1.1267,1.0791,1.1251,0.0,0.0,0.0,0.0,0.0,0.0,0.0,0.0,0.0,0.0,0.0,0.0,0.0,0.0,0.0,0.0,0.0,0.0,0.0,0.0,0.0,0.0,0.0,0.0,0.0,0.0,0.0,0.0,0.0,0.0,0.0,0.0,0.0,0.0,0.0,0.0,0.0,0.0,0.0,0.0,0.0,0.0,0.0,0.0,0.0,0.0,0.0,0.0,0.0,0.0,0.0,0.0,0.0,0.0,0.0,0.0,0.0,0.0,0.0,0.0,0.0,0.0,0.0,0.0,0.0,0.0,0.0,0.0,0.0,0.0,0.0,0.0,0.0,0.0,0.0,0.0,0.0,0.0,0.0,0.0,0.0,0.0,0.0,0.0,0.0,0.0,0.0,0.0,0.0,0.0,0.0,0.0,0.0,0.0,0.0,0.0,0.0,0.0,0.0,0.0,0.0,0.0,0.4247,0.5286,0.0,0.7181,0.8221,0.9894,1.0584,1.066,1.0108,0.0,0.0,0.0,0.0,0.0,0.0,0.0,0.0,0.0,0.0,0.0,0.0,0.0,0.0,0.0,0.0,0.0,0.0,0.0,0.0,0.0,0.0,0.0,0.0,0.0,0.0,0.0,0.0,0.0,0.0,0.0,0.0,0.0,0.0,0.0,0.0,0.0,0.0,0.0,0.0,0.0,0.0,0.0,0.0,0.0,0.0,0.0,0.0,0.0,0.0,0.0,0.0,0.0,0.0,0.0,0.0,0.0,0.0,0.0,0.0,0.0,0.0,0.0,0.0,0.0,0.0,0.0,0.0,0.0,0.0,0.0,0.0,0.0,0.0,0.0,0.0,0.0,0.0,0.0,0.0,0.0,0.0,0.0,0.0,0.0,0.0,0.0,0.0,0.0,0.0,0.0,0.0,0.0,0.0,0.0,0.0,0.0,0.0,0.0,0.0,0.0,0.0,0.3421,0.4207,0.5134,0.0,0.6694,0.7618,0.9328,1.009,1.0141,0.9366,0.0,0.0,0.0,0.0,0.0,0.0,0.0,0.0,0.0,0.0,0.0,0.0,0.0,0.0,0.0,0.0,0.0,0.0,0.0,0.0,0.0,0.0,0.0,0.0,0.0,0.0,0.0,0.0,0.0,0.0,0.0,0.0,0.0,0.0,0.0,0.0,0.0,0.0,0.0,0.0,0.0,0.0,0.0,0.0,0.0,0.0,0.0,0.0,0.0,0.0,0.0,0.0,0.0,0.0,0.0,0.0,0.0,0.0,0.0,0.0,0.0,0.0,0.0,0.0,0.0,0.0,0.0,0.0,0.0,0.0,0.0,0.0,0.0,0.0,0.0,0.0,0.0,0.0,0.0,0.0,0.0,0.0,0.0,0.0,0.0,0.0,0.0,0.0,0.0,0.0,0.0,0.0,0.0,0.0,0.0,0.0,0.0,0.0,0.0,0.0,0.0,0.0,0.3218,0.367,0.4378,0.5265,0.5967,0.703,0.8628,0.9843,0.9948,0.0,0.0,0.0,0.0,0.0,0.0,0.0,0.0,0.0,0.0,0.0,0.0,0.0,0.0,0.0,0.0,0.0,0.0,0.0,0.0,0.0,0.0,0.0,0.0,0.0,0.0,0.0,0.0,0.0,0.0,0.0,0.0,0.0,0.0,0.0,0.0,0.0,0.0,0.0,0.0,0.0,0.0,0.0,0.0,0.0,0.0,0.0,0.0,0.0,0.0,0.0,0.0,0.0,0.0,0.0,0.0,0.0,0.0,0.0,0.0,0.0,0.0,0.0,0.0,0.0,0.0,0.0,0.0,0.0,0.0,0.0,0.0,0.0,0.0,0.0,0.0,0.0,0.0,0.0,0.0,0.0,0.0,0.0,0.0,0.0,0.0,0.0,0.0,0.0,0.0,0.0,0.0,0.0,0.0,0.0,0.0,0.0,0.0,0.0,0.0,0.0,0.0,0.0,0.3218,0.3607,0.418,0.5081,0.578,0.6651,0.7783,0.9172,0.9504,0.8346,0.0,0.0,0.0,0.0,0.0,0.0,0.0,0.0,0.0,0.0,0.0,0.0,0.0,0.0,0.0,0.0,0.0,0.0,0.0,0.0,0.0,0.0,0.0,0.0,0.0,0.0,0.0,0.0,0.0,0.0,0.0,0.0,0.0,0.0,0.0,0.0,0.0,0.0,0.0,0.0,0.0,0.0,0.0,0.0,0.0,0.0,0.0,0.0,0.0,0.0,0.0,0.0,0.0,0.0,0.0,0.0,0.0,0.0,0.0,0.0,0.0,0.0,0.0,0.0,0.0,0.0,0.0,0.0,0.0,0.0,0.0,0.0,0.0,0.0,0.0,0.0,0.0,0.0,0.0,0.0,0.0,0.0,0.0,0.0,0.0,0.0,0.0,0.0,0.0,0.0,0.0,0.0,0.0,0.0,0.0,0.0,0.0,0.0,0.0,0.0,0.0,0.0,0.3168,0.3664,0.4243,0.4826,0.5719,0.6534,0.7288,0.8736,0.9344,0.8646,0.0,0.0,0.0,0.0,0.0,0.0,0.0,0.0,0.0,0.0,0.0,0.0,0.0,0.0,0.0,0.0,0.0,0.0,0.0,0.0,0.0,0.0,0.0,0.0,0.0,0.0,0.0,0.0,0.0,0.0,0.0,0.0,0.0,0.0,0.0,0.0,0.0,0.0,0.0,0.0,0.0,0.0,0.0,0.0,0.0,0.0,0.0,0.0,0.0,0.0,0.0,0.0,0.0,0.0,0.0,0.0,0.0,0.0,0.0,0.0,0.0,0.0,0.0,0.0,0.0,0.0,0.0,0.0,0.0,0.0,0.0,0.0,0.0,0.0,0.0,0.0,0.0,0.0,0.0,0.0,0.0,0.0,0.0,0.0,0.0,0.0,0.0,0.0,0.0,0.0,0.0,0.0,0.0,0.0,0.0,0.0,0.0,0.0,0.0,0.0,0.0,0.0,0.3081,0.3789,0.4375,0.4574,0.5658,0.6599,0.7154,0.8413,0.9254,0.9243,0.0,0.0,0.0,0.0,0.0,0.0,0.0,0.0,0.0,0.0,0.0,0.0,0.0,0.0,0.0,0.0,0.0,0.0,0.0,0.0,0.0,0.0,0.0,0.0,0.0,0.0,0.0,0.0,0.0,0.0,0.0,0.0,0.0,0.0,0.0,0.0,0.0,0.0,0.0,0.0,0.0,0.0,0.0,0.0,0.0,0.0,0.0,0.0,0.0,0.0,0.0,0.0,0.0,0.0,0.0,0.0,0.0,0.0,0.0,0.0,-0.6404,0.0,0.0,0.0,0.0,0.0,0.0,0.0,0.0,0.0,0.0,0.0,0.0,0.0,0.0,0.0,0.0,0.0,0.0,0.0,0.0,0.0,0.0,0.0,0.0,0.0,0.0,0.0,0.0,0.0,0.0,0.0,0.0,0.0,0.0,0.0,0.0,0.0,0.0,0.0,0.0,0.0,0.3297,0.3903,0.4375,0.4574,0.5524,0.6465,0.7154,0.8095,0.8947,0.9707,0.9784,0.0,0.0,0.0,0.0,0.0,0.0,0.0,0.0,0.0,0.0,0.0,0.0,0.0,0.0,0.0,0.0,0.0,0.0,0.0,0.0,0.0,0.0,0.0,0.0,0.0,0.0,0.0,0.0,0.0,0.0,0.0,0.0,0.0,0.0,0.0,0.0,0.0,0.0,0.0,0.0,0.0,0.0,0.0,0.0,0.0,0.0,0.0,0.0,0.0,0.0,0.0,0.0,0.0,0.0,0.0,0.0,0.0,0.0,0.0,0.0,-0.6812,0.0,0.0,0.0,0.0,0.0,0.0,0.0,0.0,0.0,0.0,0.0,0.0,0.0,0.0,0.0,0.0,0.0,0.0,0.0,0.0,0.0,0.0,0.0,0.0,0.0,0.0,0.0,0.0,0.0,0.0,0.0,0.0,0.0,0.0,0.0,0.0,0.0,0.0,0.0,0.0,0.3755,0.4221,0.4725,0.5243,0.5959,0.6759,0.7741,0.8163,0.8891,1.0094,1.0128,0.0,0.0,0.0,0.0,0.0,0.0,0.0,0.0,0.0,0.0,0.0,0.0,0.0,0.0,0.0,0.0,0.0,0.0,0.0,0.0,0.0,0.0,0.0,0.0,0.0,0.0,0.0,0.0,0.0,0.0,0.0,0.0,0.0,0.0,0.0,0.0,0.0,0.0,0.0,0.0,0.0,0.0,0.0,0.0,0.0,0.0,0.0,0.0,0.0,0.0,0.0,0.0,0.0,-0.9663,-0.9572,-0.9476,-0.8998,-0.9004,-0.9325,-0.9197,-0.9019,-0.872,-0.7207,0.0,0.0,0.0,0.0,0.0,0.0,0.0,0.0,0.0,0.0,0.0,0.0,0.0,0.0,0.0,0.0,0.0,0.0,0.0,0.0,0.0,0.0,0.0,0.0,-0.4334,-0.3612,-0.2856,0.0,0.0,0.0,0.0,0.0,0.0,0.0,0.0,0.0,0.0,0.0,0.4164,0.4597,0.5147,0.6009,0.6474,0.7129,0.8231,0.8231,0.8812,1.0288,1.0675,1.0927,0.0,0.0,0.0,0.0,0.0,0.0,0.0,0.0,0.0,0.0,0.0,0.0,0.0,0.0,0.0,0.0,0.0,0.0,0.0,0.0,0.0,0.0,0.0,0.0,0.0,0.0,0.0,0.0,0.0,0.0,0.0,0.0,-1.0772,-1.1721,0.0,0.0,0.0,0.0,0.0,0.0,0.0,0.0,0.0,0.0,0.0,0.0,0.0,-0.916,-0.9208,-1.033,-1.0894,-1.0853,-1.2158,-1.2577,-1.2176,-1.2034,-1.191,-1.1776,-1.0844,0.0,-0.902,-0.8597,0.0,0.0,0.0,0.0,0.0,0.0,0.0,0.0,0.0,0.0,0.0,0.0,0.0,0.0,0.0,0.0,0.0,0.0,0.0,0.0,0.0,0.0,-0.5258,-0.5111,-0.4339,-0.3482,0.0,-0.1639,-0.0366,-0.0148,0.0802,0.0,0.0,0.0,0.0,0.0,0.0,0.0,0.3981,0.4664,0.5352,0.6009,0.6474,0.6933,0.7587,0.7977,0.8683,0.9837,1.0836,1.1353,1.1365,1.2512,0.0,0.0,0.0,0.0,0.0,0.0,0.0,0.0,0.0,0.0,0.0,0.0,0.0,0.0,0.0,0.0,0.0,0.0,0.0,0.0,0.0,0.0,0.0,0.0,0.0,0.0,0.0,0.0,0.0,-1.0013,-1.1175,-1.1586,-1.1372,-1.0557,0.0,0.0,0.0,0.0,0.0,0.0,0.0,0.0,0.0,-0.9704,-1.0086,-1.0358,-1.0536,-1.1595,-1.2109,-1.2126,-1.2809,-1.3045,-1.2842,-1.2696,-1.2608,-1.251,-1.1939,-1.144,-1.0911,-0.9766,-0.8959,-0.8364,0.0,0.0,0.0,0.0,-0.5861,-0.5987,-0.5984,-0.6171,0.0,-0.6044,0.0,0.0,0.0,0.0,0.0,0.0,0.0,0.0,0.0,0.0,-0.4897,-0.4458,-0.3846,-0.3334,-0.3066,-0.1931,-0.0875,0.0,0.0483,0.1103,0.1079,0.0,0.0,0.0,0.0,0.3083,0.3829,0.4525,0.5209,0.5745,0.631,0.6919,0.7532,0.7558,0.8076,0.9349,1.013,1.0648,1.0912,1.2172,1.2454,0.0,0.0,0.0,0.0,0.0,0.0,0.0,0.0,0.0,0.0,0.0,0.0,0.0,0.0,0.0,0.0,0.0,0.0,0.0,0.0,0.0,0.0,0.0,0.0,0.0,0.0,0.0,0.0,-1.068,-1.1566,-1.1719,-1.1812,-1.1235,0.0,0.0,0.0,0.0,0.0,0.0,-0.9864,-0.9798,-1.0228,-1.1132,-1.174,-1.2243,-1.263,-1.3334,-1.3707,-1.3775,-1.3644,-1.3583,-1.36,-1.3278,-1.3094,-1.3045,-1.2852,-1.2803,-1.2648,-1.106,-1.0123,-0.9597,-0.9079,-0.8564,-0.8034,-0.7645,-0.7609,-0.7649,-0.7341,-0.7531,-0.7815,-0.7186,-0.6892,-0.6602,-0.5903,0.0,0.0,0.0,0.0,-0.5,-0.503,-0.4925,-0.4615,-0.4001,-0.352,-0.3064,-0.2818,-0.2186,-0.1486,0.0,-0.012,0.0507,0.0525,0.0,0.0,0.0,0.0,0.259,0.3104,0.4132,0.5026,0.5572,0.6209,0.6809,0.73,0.7237,0.7697,0.8834,0.9485,1.0123,1.0756,1.1678,1.2127,1.1992,0.0,0.0,0.0,0.0,0.0,0.0,0.0,0.0,0.0,0.0,0.0,0.0,0.0,0.0,0.0,0.0,0.0,0.0,0.0,0.0,0.0,0.0,0.0,0.0,0.0,0.0,0.0,0.0,0.0,-1.2866,-1.3729,0.0,0.0,0.0,0.0,-0.8616,-0.895,-0.9993,-1.1859,-1.1751,-1.2762,-1.5126,-1.4986,-1.516,-1.5769,-1.5813,-1.5835,-1.5835,-1.5519,-1.5296,-1.5167,-1.4515,-1.4133,-1.4003,-1.3674,-1.3521,-1.3474,-1.2706,-1.1855,-1.1006,-1.0311,-0.9522,-0.8762,-0.8129,-0.8286,-0.879,-0.8417,-0.8735,-0.9211,-0.8606,-0.7856,-0.7074,-0.6034,-0.5699,0.0,0.0,-0.5441,-0.5645,-0.5953,-0.5691,-0.5135,-0.4209,-0.3476,-0.286,-0.2341,-0.2187,-0.2005,0.0,-0.064,0.0,0.0569,0.0,0.0245,0.195,0.1471,0.1057,0.1467,0.3297,0.4807,0.5503,0.6209,0.6599,0.667,0.7074,0.7633,0.8277,0.9441,1.041,1.1253,1.1587,1.2176,1.3091,1.2317,0.0,0.0,0.0,0.0,0.0,0.0,0.0,0.0,0.0,0.0,0.0,0.0,0.0,0.0,0.0,0.0,0.0,0.0,0.0,0.0,0.0,0.0,0.0,0.0,0.0,0.0,0.0,0.0,-1.2162,-1.2839,0.0,-1.2067,-1.1974,-1.1724,-1.1183,-1.178,-1.2497,-1.3307,-1.362,-1.4236,-1.5184,-1.5504,-1.576,-1.6014,-1.6014,-1.6104,-1.6294,-1.5661,-1.5485,-1.5677,-1.4875,-1.4514,-1.4468,-1.4376,-1.4329,-1.4283,-1.4003,-1.3474,-1.2764,-1.2616,-1.2387,-1.2113,-1.1828,-1.1728,-1.1574,-1.0904,-1.0498,-1.0043,-0.8854,-0.8164,-0.7749,-0.7378,-0.7238,-0.7198,-0.7042,-0.6837,-0.6693,-0.6583,-0.6059,-0.5402,-0.4968,-0.448,-0.4101,-0.3742,-0.3366,-0.3077,-0.3199,-0.192,-0.0799,-0.0852,-0.0569,-0.0064,0.0723,0.1069,0.1309,0.1652,0.2938,0.3913,0.4052,0.5006,0.5725,0.5725,0.6219,0.6849,0.7539,0.7939,0.868,0.9988,1.0418,1.097,1.18,1.2306,1.2195,0.0,0.0,0.0,0.0,0.0,0.0,0.0,0.0,0.0,0.0,0.0,0.0,0.0,0.0,0.0,0.0,0.0,0.0,0.0,0.0,0.0,0.0,0.0,0.0,0.0,0.0,-1.2191,-1.244,-1.3474,-1.4013,-1.3721,-1.3525,-1.3407,-1.3392,-1.3737,-1.4063,-1.438,-1.4897,-1.55,-1.6041,-1.6565,-1.698,-1.7134,-1.7134,-1.7155,-1.717,-1.6423,-1.6051,-1.6091,-1.5326,-1.4937,-1.491,-1.5005,-1.5027,-1.4966,-1.5095,-1.4869,-1.4446,-1.4111,-1.3878,-1.3818,-1.3818,-1.3651,-1.3261,-1.2593,-1.1911,-1.1168,-1.0181,-0.9593,-0.9259,-0.9225,-0.8967,-0.8639,-0.854,-0.8023,-0.7395,-0.7226,-0.6528,-0.5719,-0.5363,-0.5071,-0.482,-0.4668,-0.4216,-0.3988,-0.4461,-0.2923,-0.1572,-0.1827,-0.1453,-0.1088,-0.1024,-0.0309,0.0509,0.1416,0.2262,0.2858,0.2859,0.4168,0.5061,0.5135,0.5509,0.6176,0.7171,0.6932,0.7449,0.9026,0.923,0.9618,1.0497,1.1489,1.1736,1.1246,0.0,0.0,0.0,0.0,0.0,0.0,0.0,0.0,0.0,0.0,0.0,0.0,0.0,0.0,0.0,0.0,0.0,0.0,0.0,0.0,0.0,0.0,0.0,-0.9797,-1.2116,-1.385,-1.3899,-1.5788,-1.6811,-1.6087,-1.5855,-1.5506,-1.5018,-1.4513,-1.4562,-1.5154,-1.5673,-1.6515,-1.7829,-1.834,-1.8833,-1.9371,-1.9408,-1.9111,-1.8545,-1.7872,-1.7195,-1.6502,-1.5818,-1.5473,-1.533,-1.5564,-1.5635,-1.5533,-1.5868,-1.5988,-1.5901,-1.4652,-1.3956,-1.3684,-1.3768,-1.3768,-1.3678,-1.3332,-1.2942,-1.2604,-1.2604,-1.218,-1.1583,-1.1363,-1.064,-0.9823,-0.9857,-0.88,-0.7814,-0.8005,-0.7176,-0.6111,-0.5535,-0.5311,-0.5098,-0.4916,-0.4731,-0.4683,-0.5098,-0.3623,-0.2265,-0.2323,-0.2573,-0.2841,-0.3096,-0.2521,0.0,0.0412,0.1116,0.1668,0.2123,0.3659,0.4698,0.4925,0.5049,0.5712,0.7186,0.6643,0.6976,0.8383,0.8009,0.8242,0.928,0.9867,1.0781,1.1996,0.0,0.0,0.0,0.0,0.0,0.0,0.0,0.0,0.0,0.0,0.0,0.0,0.0,0.0,0.0,0.0,0.0,0.0,0.0,0.0,0.0,0.0,-1.2494,-1.2425,-1.3968,-1.5234,-1.5564,-1.6428,-1.6912,-1.6899,-1.6528,-1.6459,-1.6895,-1.6237,-1.6133,-1.6961,-1.6655,-1.6779,-1.7497,-1.8056,-1.8363,-1.8521,-1.9129,-1.9294,-1.9147,-1.8495,-1.7811,-1.7135,-1.6456,-1.5875,-1.5433,-1.5543,-1.5708,-1.5991,-1.582,-1.6163,-1.6655,-1.5888,-1.5486,-1.533,-1.5425,-1.5034,-1.4376,-1.3593,-1.3063,-1.272,-1.2378,-1.2161,-1.1936,-1.1914,-1.1371,-1.0704,-1.0617,-0.9761,-0.892,-0.9126,-0.8326,-0.7541,-0.7624,-0.7228,-0.6798,-0.6593,-0.6067,-0.5834,-0.633,-0.5087,-0.3813,-0.3449,-0.2902,-0.2432,-0.2104,-0.1749,0.0,-0.013,0.0592,0.1061,0.1195,0.2193,0.3244,0.4217,0.459,0.5267,0.6591,0.6497,0.6802,0.7755,0.753,0.823,0.9945,0.964,1.0079,0.0,0.0,0.0,0.0,0.0,0.0,0.0,0.0,0.0,0.0,0.0,0.0,0.0,0.0,0.0,0.0,0.0,0.0,0.0,0.0,0.0,0.0,-1.3127,-1.483,-1.5245,-1.6126,-1.6871,-1.7322,-1.7694,-1.804,-1.8171,-1.7721,-1.7526,-1.7918,-1.7245,-1.7032,-1.7457,-1.733,-1.7178,-1.7144,-1.8019,-1.8302,-1.7989,-1.8829,-1.9089,-1.8806,-1.8428,-1.7796,-1.6943,-1.6703,-1.6263,-1.5679,-1.5997,-1.6243,-1.6446,-1.6336,-1.6595,0.0,0.0,0.0,0.0,0.0,-1.5741,-1.5259,-1.4748,-1.4373,-1.4154,-1.3919,-1.3594,-1.3304,-1.3424,-1.2419,-1.1304,-1.1359,-1.0262,-0.9119,-0.9508,-0.9005,-0.8471,-0.8828,-0.8619,-0.827,-0.7919,-0.7496,-0.7106,-0.704,-0.6042,0.0,-0.4524,-0.3617,-0.27,-0.2132,-0.1999,-0.1687,-0.1001,-0.0511,-0.0065,0.0324,0.1239,0.2254,0.3355,0.3801,0.0,0.0,0.0,0.6049,0.6881,0.6865,0.0,0.0,0.0,0.8663,1.0185,1.0353,0.0,0.0,1.1986,1.1414,0.0,0.0,0.0,0.0,0.0,0.0,0.0,0.0,0.0,0.0,0.0,0.0,0.0,0.0,0.0,0.0,-1.4869,-1.6866,-1.7663,-1.8019,-1.8377,-1.8838,-1.9198,-1.942,-1.9565,-1.8987,-1.8506,-1.8387,-1.7843,-1.7468,-1.7412,0.0,0.0,0.0,0.0,-1.8617,-1.7906,-1.8755,-1.8882,-1.8394,-1.8283,-1.7701,-1.6679,-1.7014,-1.6823,-1.6211,-1.685,-1.7086,-1.7034,-1.7233,-1.7196,-1.6964,-1.6207,-1.6175,-1.6552,-1.6176,-1.6098,-1.6208,-1.6103,0.0,0.0,-1.6059,-1.5636,-1.5134,-1.5328,-1.3746,-1.1911,-1.2175,-1.0698,-0.9201,-0.9731,-0.9501,-0.9256,-0.9618,-0.9636,-0.9403,-0.8989,-0.8693,-0.827,-0.7562,-0.6694,-0.6007,-0.5675,-0.4532,-0.3472,-0.2879,-0.2856,-0.2687,-0.195,-0.1746,-0.1308,-0.0436,0.0,0.0,0.2538,0.2853,0.3428,0.4515,0.4664,0.5121,0.6055,0.6059,0.5914,0.5667,0.6066,0.7141,0.8989,0.9379,1.0535,1.2364,1.1321,1.089,0.0,0.0,0.0,0.0,0.0,0.0,0.0,0.0,0.0,0.0,0.0,0.0,0.0,0.0,0.0,-1.432,-1.5763,-1.6956,-1.7556,-1.7593,-1.8066,-1.9285,-1.9408,-1.9368,-1.9275,-1.8721,-1.8494,-1.8827,-1.8018,-1.7854,-1.8614,-1.8286,-1.8005,-1.7917,-1.9193,-1.9615,-1.908,-1.9713,-2.0263,-2.0656,0.0,0.0,-1.8811,-1.8901,-1.8548,-1.7914,-1.8076,-1.8229,-1.8384,-1.8185,-1.7705,-1.7102,-1.6752,-1.6808,-1.7008,-1.6365,-1.6517,-1.6854,-1.6073,-1.6021,-1.6291,-1.5884,-1.572,-1.5655,-1.5706,-1.4716,0.0,-1.3662,-1.2645,-1.1523,-1.1683,-1.1233,-1.0767,-1.0847,-1.0265,-0.9701,-0.9474,-0.8962,-0.8508,-0.8175,-0.7662,-0.722,-0.7169,-0.5512,-0.4137,-0.396,-0.3501,-0.3113,-0.2919,-0.2034,-0.1323,-0.1125,-0.0641,0.0316,0.1875,0.212,0.2851,0.426,0.4619,0.5104,0.5921,0.5788,0.6209,0.7344,0.7297,0.7808,0.8786,0.8842,0.9139,0.9531,1.152,1.2445,0.0,0.0,0.0,0.0,0.0,0.0,0.0,0.0,0.0,0.0,0.0,-1.1656,0.0,0.0,-1.3579,-1.5224,-1.5819,-1.6292,-1.7036,-1.7387,-1.7909,-1.8892,-1.8836,-1.8797,-1.9105,-1.8836,-1.8875,-1.9459,-1.898,-1.9039,-2.0029,-1.9713,-1.9334,-1.8995,-1.9656,-1.9758,-1.923,-1.958,-1.9965,-2.034,-1.9997,-1.9553,-1.903,-1.9189,-1.8988,-1.8412,-1.8988,-1.9305,-1.9401,-1.8727,-1.8262,-1.7921,-1.7317,-1.7101,-1.716,-1.6818,-1.6896,-1.7118,-1.6625,-1.6604,-1.6817,-1.6596,-1.6544,-1.6634,-1.667,-1.5572,-1.4318,-1.4434,-1.3325,-1.2182,-1.2419,-1.2117,-1.1851,-1.2312,-1.1712,-1.095,-1.0876,-1.0407,-0.9785,-0.915,-0.8864,-0.8643,-0.844,-0.7507,-0.6379,-0.5152,-0.4111,-0.3487,-0.3487,-0.2784,-0.2117,-0.1743,-0.1359,-0.051,0.0983,0.1882,0.2718,0.3538,0.3853,0.4414,0.5286,0.562,0.6055,0.6676,0.6971,0.7458,0.8155,0.807,0.8189,0.8657,0.9912,1.0551,0.0,0.0,0.0,0.0,0.0,0.0,0.0,0.0,-1.2024,-1.2258,-1.2161,-1.2412,-1.3776,-1.3217,-1.3307,-1.5605,-1.5652,-1.5733,-1.6499,-1.7213,-1.7799,-1.8351,-1.8163,-1.8312,-1.9105,-1.9117,-1.9436,-2.0186,-2.0152,-2.0385,-2.1116,-2.1143,-2.0853,-2.0185,-2.0489,-2.0374,-1.9754,-1.9858,-1.9949,-2.0037,-1.9927,-1.9555,-1.9003,-1.9399,-1.9369,-1.9003,-1.9938,-2.038,-2.0336,-1.9348,-1.8997,-1.8985,-1.7936,-1.754,-1.7531,-1.7476,-1.7447,-1.7447,-1.7365,-1.738,-1.7394,-1.7353,-1.7349,-1.7396,-1.7557,-1.6348,-1.4971,-1.4983,-1.3848,-1.2682,-1.2861,-1.2762,-1.2838,-1.359,-1.3159,-1.2502,-1.2346,-1.1852,-1.1157,-1.0219,-0.9986,-0.9819,-0.9474,-0.9341,-0.8598,-0.6634,-0.5229,-0.4404,-0.4404,-0.3937,-0.335,-0.265,-0.2204,-0.142,0.0066,0.1394,0.2258,0.2611,0.2882,0.3482,0.448,0.5219,0.5554,0.5547,0.6176,0.6735,0.7223,0.715,0.7436,0.8018,0.7827,0.7896,-1.0136,-1.011,-1.0527,-1.0073,-1.1308,-1.2712,0.0,0.0,-1.4702,-1.4584,-1.4558,-1.4627,-1.4829,-1.4702,-1.4865,-1.5758,-1.5924,-1.6002,-1.6281,-1.6851,-1.7535,-1.8316,-1.8229,-1.8442,-1.9297,-1.966,-2.0239,-2.1083,-2.1048,-2.1027,-2.1266,-2.1838,-2.1923,-2.1503,-2.2597,-2.2966,-2.2481,-2.235,-2.2325,-2.2325,-2.1747,-2.1085,-2.0463,-2.082,-2.0944,-2.0904,-2.1132,-2.1321,-2.1341,-2.047,-2.0162,-2.0104,-1.8783,-1.8471,-1.8772,-1.8456,-1.8347,-1.8307,-1.8002,-1.7828,-1.7693,-1.7558,-1.7393,-1.7363,-1.7624,-1.7146,-1.6414,-1.5853,-1.5147,-1.4468,-1.3831,-1.3788,-1.3926,-1.4038,-1.3931,-1.3671,-1.3106,-1.2491,-1.1822,-1.1085,-1.0641,-1.0323,-1.0274,-0.9859,-0.9365,-0.8716,-0.7537,-0.6708,-0.6598,-0.5566,-0.4716,-0.4229,-0.376,-0.2618,-0.0581,-0.0253,0.0382,0.1675,0.2082,0.2616,0.3349,0.4084,0.4749,0.5342,0.5684,0.5906,0.5993,0.6134,0.6287,0.6368,0.6213,0.6895,-1.2488,-1.2678,-1.2999,0.0,-1.3952,-1.4663,-1.4551,-1.4903,-1.5257,-1.5181,-1.5225,-1.5343,-1.578,-1.5129,-1.4979,0.0,-1.6062,-1.5992,-1.7166,-1.7722,-1.8249,-1.8922,-1.8203,-1.7916,-1.8631,-1.9894,-2.054,-2.0217,-2.1225,-2.2083,-2.2622,-2.2891,-2.298,-2.2786,-2.292,-2.282,-2.2499,-2.2013,-2.169,-2.1589,-2.1312,-2.1034,-2.0756,-2.0898,-2.117,-2.1494,-2.1534,-2.1471,-2.1276,-2.0893,-2.0464,-2.0036,-1.9468,-1.9119,-1.8909,-1.8192,-1.8031,-1.8209,-1.8285,-1.8293,-1.8293,-1.824,-1.8187,-1.8212,-1.8305,-1.7935,-1.7356,-1.6718,-1.6126,-1.5507,-1.4849,-1.452,-1.4461,-1.4743,-1.4343,-1.3883,-1.3824,-1.3314,-1.2715,-1.2023,-1.1964,-1.196,-1.1681,-1.1485,-1.125,-1.1042,-0.9231,-0.7869,-0.7868,-0.7186,-0.6325,-0.5233,-0.4259,-0.3532,-0.3073,-0.1903,-0.102,-0.0392,0.0262,0.0916,0.1567,0.2917,0.3744,0.3877,0.4934,0.544,0.5238,0.511,0.5042,0.5042,0.4645,0.494,-1.348,-1.3916,0.0,-1.4718,-1.5225,-1.5614,-1.5652,-1.5606,-1.5596,-1.5807,-1.5739,-1.5786,-1.6233,-1.5507,-1.5383,-1.7093,-1.6732,-1.6775,-1.8221,-1.881,-1.9072,-1.9142,-1.8405,-1.7819,-1.7441,-1.943,-2.0651,-2.0557,-2.1895,-2.2988,-2.358,-2.3516,-2.351,-2.351,-2.2862,-2.2474,-2.2331,-2.18,-2.1393,-2.1063,-2.1063,-2.1018,-2.0942,-2.0878,-2.1036,-2.1342,-2.1374,-2.122,-2.0949,-2.0912,-2.061,-2.0147,-1.9953,-1.9702,-1.9354,-1.8283,-1.7899,-1.7911,-1.8186,-1.8321,-1.8409,-1.8446,-1.8469,-1.8483,-1.8596,-1.8248,-1.7682,-1.7125,-1.6566,-1.596,-1.5353,-1.4972,-1.4815,-1.5138,-1.4689,-1.4223,-1.4244,-1.3963,-1.3474,-1.2833,-1.2981,-1.3087,-1.2742,-1.2731,-1.2725,-1.2644,-1.0994,-0.9628,-0.9194,-0.8651,-0.7851,-0.6618,-0.5455,-0.4796,-0.5034,-0.3645,-0.2741,-0.2626,-0.1654,-0.089,-0.0448,0.1425,0.2293,0.2116,0.3762,0.4309,0.3808,0.4148,0.4151,0.3885,0.3687,0.3689,-1.2028,0.0,-1.2924,-1.3193,-1.3919,-1.4864,-1.6087,-1.627,-1.6331,-1.6831,-1.6586,-1.6169,-1.5883,-1.6159,-1.6723,-1.7535,-1.8266,-1.8835,-1.9212,-1.9842,-1.9782,-1.8579,-1.9086,-1.8467,0.0,-1.7882,-2.0581,-2.3253,-2.3535,-2.358,-2.3595,-2.333,-2.3197,-2.3197,-2.2876,-2.2671,-2.2692,-2.2676,-2.2315,-2.1673,-2.1673,-2.1531,-2.1271,-2.1155,-2.0858,-2.0435,-2.0506,-2.0558,-2.0633,-2.0683,-2.0767,-2.0815,-2.0217,-2.0258,-2.0488,-1.9287,-1.8311,-1.7614,-1.7712,-1.768,-1.7677,-1.7855,-1.779,-1.7696,-1.8104,-1.7786,-1.7224,-1.6747,-1.6261,-1.5736,-1.5019,-1.4941,-1.5058,-1.4927,-1.5042,-1.4954,-1.4259,-1.4096,-1.3896,-1.3298,-1.3198,-1.3198,-1.3198,-1.3198,-1.3221,-1.325,-1.3108,-1.2428,-1.0994,-0.9987,-0.9217,-0.8854,-0.7929,-0.6895,-0.5684,-0.5389,-0.5197,-0.4905,-0.3413,-0.2537,-0.2496,-0.0624,0.0312,0.0064,0.1861,0.2342,0.1403,0.3345,0.3749,0.2744,0.3623,0.3825,-1.2301,0.0,-1.3372,-1.4073,-1.4634,-1.5078,-1.5562,-1.5595,-1.5593,-1.5841,-1.537,-1.5005,-1.5349,-1.4729,-1.4893,-1.7097,-1.6772,-1.716,-1.9723,-1.9358,-1.9325,-2.063,-1.9421,0.0,0.0,0.0,0.0,-1.9626,-2.1713,-2.3003,-2.3003,-2.2916,-2.2867,-2.2867,-2.2744,-2.2706,-2.2753,-2.2753,-2.2648,-2.2434,-2.1877,-2.1579,-2.1504,-2.1455,-2.1357,-2.1205,-2.1212,-2.108,-2.0888,-2.0951,-2.069,-2.0339,-2.0726,-2.0477,-1.9917,-2.0045,-1.9091,-1.7685,-1.7512,-1.7437,-1.7377,-1.7288,-1.7182,-1.721,-1.767,-1.7663,-1.7364,-1.6825,-1.6562,-1.627,-1.558,-1.543,-1.5498,-1.5453,-1.5473,-1.5382,-1.4833,-1.4694,-1.443,-1.3641,-1.3715,-1.3848,-1.3535,-1.3501,-1.345,-1.3268,-1.2965,-1.2555,-1.196,-1.1021,-1.0356,-1.0216,-0.9009,-0.8191,-0.8131,-0.6881,-0.6262,-0.6609,-0.5151,-0.4154,-0.4028,-0.2484,-0.1594,-0.1491,0.0127,0.0708,0.026,0.1062,0.1542,0.1611,0.1678,0.1947,-1.255,-1.3232,-1.361,-1.451,-1.4832,-1.5055,-1.5384,-1.5419,-1.5436,-1.5626,-1.5469,-1.5225,-1.4988,-1.459,-1.4914,-1.6807,-1.6509,-1.7084,-2.0099,-1.9605,-1.9343,-2.0532,-1.9114,-1.8665,0.0,0.0,0.0,-1.8829,-2.0655,-2.1947,-2.2239,-2.2115,-2.2328,-2.2896,-2.2802,-2.2762,-2.2794,-2.2794,-2.2794,-2.2797,-2.2408,-2.2065,-2.1762,-2.1937,-2.1524,-2.0727,-2.1295,-2.1093,-2.0386,-2.0711,-2.0588,-2.0228,-2.0789,-2.0553,-1.995,-2.043,-1.9593,-1.8191,-1.7963,-1.7694,-1.7337,-1.6876,-1.6916,-1.716,-1.7239,-1.7363,-1.7347,-1.7029,-1.6603,-1.6159,-1.5729,-1.5453,-1.5232,-1.5125,-1.5267,-1.5276,-1.4616,-1.4645,-1.4584,-1.3744,-1.3808,-1.3912,-1.3625,-1.3691,-1.3779,-1.3683,-1.3326,-1.3007,-1.274,-1.2068,-1.1596,-1.1585,-1.0373,-0.9619,-0.9702,-0.8383,-0.7593,-0.7705,-0.6638,-0.5827,-0.5404,-0.41,-0.3278,-0.2999,-0.1543,-0.0879,-0.1155,-0.0458,0.0,0.0269,0.0403,0.0672,-1.2672,-1.3328,-1.3589,-1.4398,-1.4518,-1.4656,-1.5473,-1.5648,-1.5729,-1.6036,-1.6591,-1.6494,0.0,0.0,-1.6365,-1.6708,-1.7264,-1.8319,-2.0179,-2.0309,-1.973,0.0,0.0,0.0,0.0,0.0,0.0,-2.0649,0.0,-2.0615,-2.1358,-2.1155,-2.1695,-2.3232,-2.2962,-2.2822,-2.2822,-2.2848,-2.2848,-2.2848,-2.313,-2.286,-2.2091,-2.2515,-2.1406,-1.9263,-2.0825,-2.0661,-1.9344,-2.0074,-2.0398,-2.0462,-2.0464,-2.0515,-2.0544,-2.0468,-1.9823,-1.8967,-1.9003,-1.8382,-1.7417,-1.6669,-1.6937,-1.7459,-1.6865,-1.6905,-1.7142,-1.7311,-1.6521,-1.5607,-1.5607,-1.5112,-1.4511,-1.4202,-1.46,-1.475,-1.3784,-1.4053,-1.4335,-1.3657,-1.3498,-1.3487,-1.3491,-1.3751,-1.4082,-1.4426,-1.4205,-1.3853,-1.3386,-1.3024,-1.2849,-1.2817,-1.1941,-1.1089,-1.0481,-0.9848,-0.9148,-0.8293,-0.7854,-0.7326,-0.669,-0.5627,-0.4862,-0.4511,-0.3021,-0.2469,-0.2817,-0.1216,-0.078,-0.1338,-0.0335,-0.0,-1.1543,-1.2472,-1.3728,-1.4419,-1.4139,-1.3894,-1.4757,-1.4954,-1.4626,-1.3486,-1.3467,-1.3234,0.0,0.0,0.0,-1.5775,-1.5293,0.0,-1.7879,-1.7967,0.0,-1.7702,0.0,-1.8733,-1.9239,-1.9377,0.0,0.0,-2.0477,-2.1327,-2.1541,-2.2031,-2.2505,-2.2911,-2.2833,-2.2923,-2.3165,-2.3414,-2.3544,-2.3544,-2.307,-2.249,-2.1826,-2.244,-2.1844,-2.0411,-2.1268,-2.1189,-2.0429,-2.0034,-1.9894,-1.9916,-1.9969,-2.002,-2.0151,-2.0708,-1.9924,-1.8623,-1.9173,-1.8142,-1.6578,-1.6727,-1.6905,-1.6995,-1.6598,-1.6928,-1.7356,-1.6802,-1.6858,-1.7054,-1.7054,-1.6547,-1.5978,-1.5874,-1.5572,-1.5158,-1.4581,-1.461,-1.453,-1.3925,-1.3645,-1.3487,-1.3487,-1.3583,-1.3733,-1.4083,-1.4152,-1.4093,-1.394,-1.3509,-1.3245,-1.3262,-1.2371,-1.191,-1.2157,-1.0516,-0.9622,-0.9868,-0.8734,-0.7949,-0.7668,-0.7052,-0.6574,-0.6244,-0.5026,-0.4468,-0.4548,-0.3435,-0.2742,-0.245,-0.18,-0.1299,-1.1595,-1.2367,-1.3202,-1.3626,-1.3352,-1.3031,-1.3174,-1.3221,-1.2996,-1.2079,-1.2208,0.0,-1.1234,0.0,0.0,0.0,0.0,0.0,-1.6511,-1.7118,-1.7329,0.0,-1.7837,0.0,-1.9732,-1.9702,-1.9433,0.0,-1.9909,-2.0672,-2.1008,-2.179,-2.2539,-2.3218,-2.3236,-2.3191,-2.3133,-2.3048,-2.3015,-2.3015,-2.2575,-2.2187,-2.1844,-2.2224,-2.1627,-2.0364,0.0,-2.1272,-2.0367,-2.0255,-2.0212,-2.0201,-1.9882,-1.9786,-1.9873,-2.0384,-1.9658,-1.8463,-1.8864,-1.7937,-1.652,-1.627,-1.6431,-1.6605,-1.598,-1.6567,-1.7373,-1.6908,-1.7137,-1.75,-1.75,-1.6715,-1.591,-1.5814,-1.5454,-1.492,-1.4347,-1.4455,-1.449,-1.3901,-1.3521,-1.3364,-1.3474,-1.3385,-1.3446,-1.3799,-1.3916,-1.4025,-1.4184,-1.391,-1.3722,-1.3722,-1.3029,-1.2556,-1.2459,-1.1313,-1.0483,-1.0228,-0.9375,-0.8721,-0.8502,-0.8165,-0.7787,-0.7367,-0.6673,-0.5949,-0.5193,-0.4699,-0.4054,-0.3315,-0.2999,-0.2619,-1.1972,-1.2343,-1.2383,-1.2554,-1.2539,-1.2342,-1.1756,-1.1579,-1.1501,-1.1323,0.0,-1.1909,-1.126,-1.1617,-1.2383,-1.3514,0.0,-1.4661,-1.5412,-1.6886,-1.7568,-1.666,-1.7288,-1.8179,-1.9093,-1.9136,-1.9197,-1.9415,-1.9368,-1.9623,-2.0332,-2.1134,-2.2189,-2.3515,-2.3551,-2.3304,-2.2793,-2.2261,-2.2002,-2.2002,-2.2002,-2.1962,-2.188,-2.1962,-2.1181,-1.9845,-2.1269,-2.1083,-1.9826,-2.045,-2.0731,-2.0733,-2.0044,-1.9774,-1.9786,-1.9899,-1.9252,-1.8286,-1.829,-1.7603,-1.6588,-1.5764,-1.5969,-1.6358,-1.5376,-1.6093,-1.7206,-1.71,-1.7188,-1.7347,-1.7418,-1.6408,-1.5345,-1.5258,-1.5001,-1.4569,-1.3896,-1.4109,-1.4281,-1.3741,-1.3378,-1.3255,-1.3475,-1.3294,-1.3266,-1.3643,-1.3665,-1.3778,-1.4204,-1.4186,-1.4132,-1.4181,-1.3776,-1.3144,-1.2354,-1.2105,-1.1439,-1.0147,-0.9912,-0.9644,-0.9318,-0.9085,-0.8728,-0.8269,-0.7979,-0.7133,-0.5665,-0.5445,-0.4886,-0.4122,-0.4036,-0.3979,-1.076,-1.0971,-1.1669,-1.2344,-1.2505,-1.2634,-1.3153,-1.2775,0.0,0.0,-0.9877,-0.9492,-0.9309,-0.998,-1.1258,-1.3364,0.0,0.0,0.0,0.0,-1.6811,0.0,0.0,0.0,0.0,0.0,0.0,0.0,0.0,-2.0555,-2.0703,-2.1488,-2.2052,-2.23,-2.23,-2.2261,-2.2145,-2.2061,-2.2002,-2.2002,-2.1995,-2.1742,-2.1281,-2.1765,-2.1305,-2.0155,-2.0925,0.0,-2.0127,-2.0183,-2.023,-2.024,-2.0146,-2.0108,-2.0116,-2.0133,-1.9122,-1.7745,-1.7745,-1.6648,-1.5405,-1.6269,-1.663,-1.6593,-1.5744,-1.6137,-1.6743,-1.6082,-1.6379,-1.7013,-1.7444,-1.6926,-1.6393,-1.6853,-1.6024,-1.5084,-1.5018,-1.4483,-1.3971,-1.3859,-1.368,-1.3527,-1.3581,-1.336,-1.3301,-1.3647,-1.3512,-1.3505,-1.391,-1.4133,-1.4382,-1.4645,-1.4259,-1.3907,-1.3762,-1.2671,-1.1877,-1.1623,-1.0716,-1.0209,-1.0252,-1.0061,-0.9963,-0.9976,-0.9057,-0.8468,-0.8193,-0.6742,-0.5949,-0.5767,-0.5255,-0.4989,-0.951,-0.9877,-1.0668,-1.1081,-1.1161,-1.1029,-1.0571,0.0,0.0,0.0,-0.7801,-0.782,-0.8695,-0.8846,0.0,-1.2742,0.0,0.0,0.0,0.0,0.0,0.0,0.0,0.0,0.0,0.0,0.0,0.0,0.0,-1.9722,-2.08,-2.1573,-2.1995,-2.2002,-2.169,-2.1534,-2.1534,-2.1217,-2.1058,-2.1058,-2.1062,-2.0899,-2.0641,-2.0937,-2.0752,-2.0229,-2.0508,-2.0203,-1.9551,-1.9982,-1.9887,-1.9515,-2.0011,-2.0173,-2.0162,-2.0195,-1.9356,-1.816,-1.7759,-1.6709,-1.5609,-1.5797,-1.5785,-1.5591,-1.5044,-1.5477,-1.609,-1.5717,-1.6188,-1.6867,-1.7118,-1.6613,-1.6081,-1.6317,-1.5502,-1.4677,-1.4719,-1.4396,-1.4114,-1.4114,-1.3917,-1.3771,-1.3771,-1.3572,-1.3413,-1.3429,-1.3325,-1.3327,-1.3544,-1.382,-1.4133,-1.4543,-1.4522,-1.4356,-1.4117,-1.3247,-1.2531,-1.2033,-1.1253,-1.0865,-1.09,-1.0822,-1.0786,-1.0889,-1.0344,-0.9678,-0.8778,-0.7972,-0.7399,-0.7147,-0.6395,-0.6173,-0.878,-0.9288,-0.9893,-0.9938,-1.0044,-0.9794,-0.8502,-0.7966,0.0,0.0,-0.6516,-0.6813,-0.8561,0.0,-0.9159,0.0,-1.2496,-1.2613,0.0,0.0,0.0,0.0,0.0,0.0,0.0,0.0,0.0,0.0,0.0,-1.8513,-2.0146,-2.1104,-2.1553,-2.1357,-2.1053,-2.0815,-2.0638,-2.0355,-2.0109,-1.995,-2.0118,-2.0205,-2.0205,-2.0205,-2.0216,-2.0227,-2.0208,-1.9709,-1.8981,-1.9856,-1.9684,-1.9022,-1.9847,-2.0155,-2.0117,-2.0161,-1.9464,-1.842,-1.7782,-1.6816,-1.5779,-1.5111,-1.4831,-1.4719,-1.4471,-1.4917,-1.5499,-1.5499,-1.5947,-1.6423,-1.6518,-1.618,-1.5835,-1.5829,-1.5343,-1.4809,-1.45,-1.4481,-1.4467,-1.433,-1.4127,-1.3973,-1.3913,-1.3741,-1.3542,-1.3329,-1.3192,-1.3143,-1.325,-1.3482,-1.3795,-1.4185,-1.457,-1.4637,-1.4292,-1.3822,-1.3179,-1.2354,-1.1875,-1.1594,-1.1494,-1.1488,-1.1412,-1.1305,-1.1305,-1.062,-0.9144,-0.8999,-0.8704,-0.8261,-0.7415,-0.722,-0.9254,-0.9597,-0.9813,-0.9825,-1.0361,-1.0827,-1.0551,0.0,0.0,-0.8322,-0.7191,-0.6735,-0.8478,-0.9391,-1.0491,0.0,0.0,-1.1888,0.0,0.0,0.0,0.0,0.0,0.0,0.0,0.0,0.0,0.0,0.0,-1.7881,-1.8069,-1.9517,-2.0028,-1.9307,-1.9931,-1.9923,-1.9201,-1.9862,-1.9831,-1.9122,-1.9846,-2.0211,-2.0211,-2.0211,-2.0227,-2.0289,-2.0233,-1.9746,0.0,-1.986,-1.9717,-1.9073,-1.9828,-2.0117,-2.0088,-2.0098,-1.9002,-1.7529,-1.7435,-1.629,-1.481,-1.4607,-1.4747,-1.4987,-1.5011,-1.5072,-1.5144,-1.5144,-1.5171,-1.5252,-1.5616,-1.6149,-1.6704,-1.7116,-1.717,-1.6762,-1.5472,-1.5196,-1.5038,-1.4418,-1.4291,-1.419,-1.3941,-1.3741,-1.3589,-1.3573,-1.3158,-1.294,-1.319,-1.3283,-1.3467,-1.372,-1.4313,-1.4714,-1.4732,-1.4324,-1.3822,-1.3293,-1.2883,-1.2461,-1.2025,-1.202,-1.1804,-1.1286,-1.1284,-1.0989,-1.0351,-0.9649,-0.933,-0.926,-0.8386,-0.7947,-0.8047,-0.8821,-0.9738,-0.9738,-1.0342,-1.0687,-0.9702,0.0,-0.8983,-0.8043,-0.7315,-0.7233,-0.8448,-0.8563,-0.9237,0.0,0.0,0.0,-1.3216,0.0,0.0,0.0,0.0,0.0,0.0,0.0,0.0,0.0,0.0,-1.6805,-1.631,-1.7866,-1.8619,-1.829,-1.8581,-1.8601,-1.8286,-1.9082,-1.9329,-1.9007,-1.9869,-2.0262,-2.0262,-2.0258,-2.0265,-2.0304,-2.0277,-1.9509,0.0,-1.9669,-1.9423,-1.8344,-1.9598,-2.0088,-2.0088,-2.0088,-1.8954,-1.7396,-1.7396,-1.6213,-1.4703,-1.4683,-1.4765,-1.4877,-1.4822,-1.4875,-1.4976,-1.4976,-1.496,-1.4984,-1.5198,-1.5644,-1.6091,-1.6266,-1.6536,-1.6567,-1.6013,-1.592,-1.5752,-1.5088,-1.4972,-1.4737,-1.403,-1.3827,-1.3678,-1.3395,-1.3175,-1.3016,-1.298,-1.3118,-1.3288,-1.3444,-1.4068,-1.4537,-1.4704,-1.4356,-1.4019,-1.3822,-1.3195,-1.2733,-1.2544,-1.2235,-1.1982,-1.1792,-1.1711,-1.1379,-1.0876,-1.0664,-1.0506,-1.0326,-0.9701,-0.9477,-0.7586,-0.8496,-0.9518,-0.95,-0.9757,-0.9785,0.0,0.0,-0.8766,-0.7878,-0.7685,-0.7871,-0.8508,-0.8358,-0.8852,0.0,0.0,-1.1136,-1.3303,0.0,0.0,0.0,0.0,0.0,0.0,0.0,0.0,0.0,-1.5826,-1.5892,-1.5325,-1.6444,-1.7205,-1.7449,-1.7686,-1.7696,-1.7458,-1.8251,-1.8524,-1.8296,-1.9158,-1.9552,-1.9525,-1.9544,-1.9544,-1.9549,-1.9805,-1.8977,0.0,-1.9175,-1.9027,-1.7896,-1.9242,-1.9922,-2.0098,-1.9868,-1.8783,-1.7377,-1.7122,-1.6025,-1.4712,-1.4763,-1.4764,-1.4746,-1.4664,-1.4756,-1.4902,-1.4902,-1.4876,-1.4896,-1.5169,-1.5421,-1.5636,-1.5809,-1.6286,-1.66,-1.6337,-1.6318,-1.6225,-1.5768,-1.5511,-1.5142,-1.4359,-1.4146,-1.3939,-1.3396,-1.3192,-1.3034,-1.2942,-1.2999,-1.313,-1.3268,-1.3709,-1.4147,-1.4548,-1.4387,-1.4227,-1.4117,-1.3387,-1.2931,-1.2803,-1.2365,-1.2016,-1.1875,-1.1902,-1.1645,-1.1121,-1.1372,-1.1437,-1.1273,-1.0691,-1.0436,-0.8521,-0.9,-0.9088,-0.9021,-0.847,-0.8102,0.0,0.0,-0.7603,-0.8247,-0.8489,-0.861,-0.869,-0.9346,-1.0192,-1.1147,0.0,0.0,-1.2584,0.0,0.0,0.0,0.0,0.0,0.0,0.0,0.0,0.0,-1.5308,0.0,-1.5306,-1.5374,-1.5791,-1.6584,-1.7374,-1.7428,-1.662,-1.7411,-1.7413,-1.6639,-1.7431,-1.7792,-1.7726,-1.7792,-1.7796,-1.7789,-1.8629,-1.8108,0.0,-1.8349,-1.857,-1.7967,-1.8721,-1.9496,-2.0107,-1.9298,-1.8323,-1.7283,-1.6487,-1.5555,-1.4701,-1.4701,-1.4701,-1.4701,-1.4701,-1.4785,-1.4904,-1.4904,-1.4804,-1.4865,-1.5603,-1.571,-1.5749,-1.634,-1.7052,-1.7325,-1.6394,-1.6253,-1.6302,-1.6283,-1.5744,-1.5228,-1.5023,-1.476,-1.4367,-1.3693,-1.314,-1.2906,-1.3175,-1.2979,-1.2895,-1.3177,-1.3277,-1.3589,-1.4238,-1.452,-1.4529,-1.413,-1.3643,-1.3216,-1.2838,-1.2365,-1.1847,-1.1319,-1.1686,-1.163,-1.1095,-1.1768,-1.2025,-1.1894,-1.1296,-1.0474,-0.6562,-0.7076,-0.7614,-0.7635,-0.7945,-0.8159,-0.7867,0.0,-0.8784,-0.8356,-0.8733,-0.9146,-0.9174,-0.9396,-0.9917,-1.0985,-1.1194,0.0,0.0,0.0,0.0,0.0,0.0,0.0,0.0,0.0,0.0,-1.5299,-1.5265,-1.524,-1.5303,-1.5313,-1.5465,-1.577,-1.6028,-1.602,-1.5713,-1.6517,-1.6816,-1.6619,-1.7418,-1.7783,-1.7768,-1.7841,-1.7825,-1.7792,-1.8104,-1.7968,-1.7571,-1.8624,-1.8963,-1.8866,-1.9643,-1.9715,-1.9342,-1.9092,-1.7999,-1.6616,-1.6411,-1.5651,-1.4776,-1.4881,-1.4847,-1.4776,-1.4776,-1.4776,-1.4766,-1.4823,-1.4813,-1.4821,-1.5073,-1.5395,-1.5711,-1.5905,-1.6793,-1.7361,-1.6527,-1.671,-1.6905,-1.6391,-1.6139,-1.5752,-1.5062,-1.4893,-1.4518,-1.343,-1.3107,-1.2964,-1.2871,-1.2738,-1.27,-1.2767,-1.296,-1.3296,-1.3782,-1.3967,-1.4081,-1.4106,-1.37,-1.3374,-1.3135,-1.2696,-1.2246,-1.1847,-1.1865,-1.1756,-1.149,-1.1991,-1.2248,-1.2307,-1.2066,-1.1636,0.0,-0.6303,-0.6732,-0.6807,-0.7023,0.0,0.0,0.0,-0.8218,-0.8586,-0.8966,-0.9287,-0.9412,-0.9619,-0.9977,-1.0541,-1.1237,0.0,0.0,0.0,0.0,0.0,0.0,0.0,0.0,-1.5255,-1.526,-1.5303,-1.5265,-1.5259,-1.5299,-1.5299,-1.5316,-1.5368,-1.5368,-1.5339,-1.5295,-1.5808,-1.6079,-1.6124,-1.6629,-1.6848,-1.6823,-1.6889,-1.6907,-1.688,-1.7246,-1.7226,0.0,-1.8166,-1.8686,-1.8821,-1.9665,-1.9619,-1.9045,-1.8703,-1.7626,-1.6302,-1.6048,-1.5438,-1.482,-1.4966,-1.4912,-1.4794,-1.4738,-1.4698,-1.4677,-1.4734,-1.4774,-1.4803,-1.4803,-1.509,-1.5351,-1.5295,-1.6096,-1.673,-1.6184,-1.6346,-1.655,-1.637,-1.6054,-1.5617,-1.5062,-1.4927,-1.4518,-1.348,-1.3176,-1.3,-1.2818,-1.27,-1.26,-1.26,-1.2744,-1.295,-1.3198,-1.3515,-1.38,-1.4098,-1.3694,-1.3396,-1.3293,-1.2836,-1.2425,-1.2113,-1.1959,-1.1869,-1.1775,-1.2138,-1.2493,-1.2894,-1.2618,-1.2304,0.0,-0.642,0.0,0.0,0.0,0.0,0.0,0.0,0.0,0.0,-0.9148,-0.9126,-0.9483,-1.0066,-1.0384,-1.0025,0.0,0.0,0.0,-1.2725,0.0,0.0,0.0,0.0,-1.5199,-1.526,-1.5279,-1.527,-1.5275,-1.5265,-1.5252,-1.5252,-1.5252,-1.5252,-1.5252,-1.528,-1.5292,-1.5299,-1.5306,-1.5298,-1.5298,-1.526,-1.5201,-1.5274,-1.5302,0.0,-1.6167,-1.6091,-1.553,-1.7143,-1.7927,-1.8164,-1.8924,-1.9173,-1.9001,-1.8127,-1.7175,-1.6221,-1.5463,-1.5023,-1.4828,-1.4943,-1.4896,-1.4785,-1.4645,-1.4603,-1.4614,-1.4672,-1.4743,-1.4793,-1.4794,-1.4794,-1.4756,-1.4643,-1.5175,-1.5655,-1.5473,-1.536,-1.5499,-1.6199,-1.5613,-1.5025,-1.509,-1.4896,-1.4485,-1.3787,-1.3312,-1.3015,-1.3,-1.2776,-1.26,-1.26,-1.26,-1.2597,-1.2574,-1.3099,-1.3616,-1.4012,-1.3653,-1.3387,-1.3348,-1.2941,-1.2532,-1.215,-1.1998,-1.1893,-1.1933,-1.2186,-1.274,-1.3521,-1.2963,-1.2457,-0.5568,0.0,-0.5383,-0.4929,-0.4758,-0.4795,0.0,0.0,0.0,0.0,0.0,0.0,0.0,0.0,0.0,0.0,0.0,0.0,-1.1938,0.0,0.0,-1.3792,-1.4565,-1.5101,-1.5114,-1.5226,-1.5215,-1.5002,-1.4992,-1.4919,-1.4768,-1.476,-1.476,-1.476,-1.476,-1.4945,-1.5298,-1.5299,-1.527,-1.5226,-1.5284,-1.527,-1.519,-1.5265,-1.5302,-1.5317,-1.5527,-1.589,-1.6408,-1.6812,-1.7774,-1.8941,-1.8495,-1.8267,-1.8106,-1.7229,-1.6339,-1.5531,-1.5333,-1.5088,-1.486,-1.4792,-1.481,-1.4844,-1.4719,-1.4645,-1.4611,-1.4614,-1.4624,-1.4664,-1.4714,-1.4726,-1.4727,-1.4744,-1.5232,-1.5527,-1.4943,-1.507,-1.5353,-1.5517,-1.5274,-1.5025,-1.509,-1.5041,-1.4697,-1.3837,-1.3428,-1.3175,-1.2962,-1.2697,-1.2518,-1.2518,-1.2518,-1.2518,-1.2534,-1.2702,-1.303,-1.3522,-1.3569,-1.3615,-1.3749,-1.3689,-1.3353,-1.2662,-1.2152,-1.2012,-1.2193,-1.2274,-1.25,-1.2933,-1.3016,-1.289,-0.5529,-0.5348,-0.5195,-0.4805,-0.4563,-0.4573,0.0,0.0,0.0,0.0,0.0,0.0,0.0,0.0,0.0,0.0,-1.1199,0.0,0.0,0.0,0.0,-1.3643,-1.4175,-1.4447,0.0,0.0,-1.4673,-1.4635,-1.4625,-1.4616,-1.4596,-1.4596,-1.4596,-1.4596,-1.4663,-1.4816,-1.5082,-1.5126,-1.5138,-1.5101,-1.5236,-1.5269,-1.5201,-1.5269,-1.5319,-1.5342,-1.5307,-1.5613,-1.6152,-1.6931,-1.7584,-1.8142,-1.8434,-1.8068,-1.7284,-1.6786,-1.6057,-1.5293,-1.5302,-1.5211,-1.5057,-1.486,-1.4885,-1.4966,-1.4748,-1.4678,-1.4616,-1.4563,-1.4592,-1.4643,-1.4654,-1.4695,-1.4746,-1.4746,-1.503,-1.5191,-1.4788,-1.4839,-1.4969,-1.4895,-1.4727,-1.4568,-1.4498,-1.4482,-1.4309,-1.3848,-1.3559,-1.3312,-1.3071,-1.2797,-1.26,-1.2499,-1.2514,-1.2514,-1.2514,-1.2558,-1.278,-1.3187,-1.342,-1.3582,-1.3722,-1.3872,-1.3602,-1.2803,-1.2489,-1.2442,-1.2692,-1.2774,-1.2941,-1.3218,-1.3533,-1.3342,-0.5798,-0.5512,-0.5448,-0.5208,-0.47,-0.456,0.0,0.0,0.0,0.0,0.0,0.0,0.0,-0.9828,0.0,0.0,0.0,0.0,-1.3057,-1.3724,-1.384,-1.3342,-1.3665,0.0,-1.3186,-1.3664,-1.4064,-1.4235,-1.4246,-1.4327,-1.4484,-1.4484,-1.4484,-1.4484,-1.4625,-1.4719,-1.4738,-1.4923,-1.5037,-1.503,-1.5202,-1.5276,-1.5226,-1.5263,-1.5345,-1.5402,0.0,0.0,-1.5728,-1.7277,-1.7511,-1.7011,-1.8298,-1.7941,-1.6658,-1.6458,-1.5937,-1.5293,-1.5274,-1.5278,-1.5255,-1.4983,-1.4995,-1.5056,-1.4802,-1.4719,-1.467,-1.4563,-1.4611,-1.4672,-1.4614,-1.4695,-1.4774,-1.4736,-1.4764,-1.4812,-1.4813,-1.468,-1.4558,-1.4434,-1.4252,-1.4051,-1.3853,-1.3761,-1.3761,-1.3873,-1.3672,-1.3445,-1.3261,-1.2983,-1.2724,-1.2562,-1.2518,-1.2514,-1.2514,-1.2574,-1.2715,-1.2928,-1.3316,-1.3563,-1.3673,-1.3848,-1.3602,-1.2908,-1.2838,-1.2878,-1.3024,-1.3294,-1.3496,-1.3761,-1.4054,-1.3796,-0.6118,-0.5988,-0.5756,-0.5109,-0.4439,-0.4181,0.0,0.0,0.0,0.0,0.0,0.0,0.0,-1.1321,-1.1911,0.0,0.0,-1.0937,0.0,0.0,-1.2827,-1.2733,0.0,-1.3936,-1.3774,-1.3908,-1.398,-1.3953,-1.4002,-1.4038,-1.4009,-1.4012,-1.4012,-1.4012,-1.4197,-1.4352,-1.4452,-1.493,-1.5171,-1.5177,-1.5261,-1.5299,-1.5287,-1.5303,-1.5336,-1.5446,0.0,-1.6434,-1.6589,-1.757,-1.7889,-1.7674,-1.7194,-1.685,-1.6511,-1.571,-1.5376,-1.5274,-1.5163,-1.5206,-1.5265,-1.4995,-1.4988,-1.5069,-1.4912,-1.4784,-1.469,-1.467,-1.4645,-1.4611,-1.4603,-1.4666,-1.4736,-1.4774,-1.4794,-1.4794,-1.4813,-1.469,-1.4558,-1.4434,-1.4252,-1.4051,-1.3915,-1.3888,-1.3856,-1.3809,-1.3636,-1.3476,-1.3462,-1.3071,-1.2799,-1.2762,-1.2639,-1.2574,-1.2574,-1.2639,-1.2694,-1.2732,-1.3259,-1.3861,-1.4474,-1.4251,-1.3822,-1.3306,-1.2965,-1.2627,-1.2265,-1.3043,-1.341,-1.3459,-1.3981,-1.4114,-0.7089,-0.6619,-0.6059,-0.5859,-0.4859,-0.4177,0.0,0.0,0.0,0.0,0.0,0.0,0.0,0.0,-1.125,-1.0357,0.0,-1.1959,-1.1969,-1.2448,-1.2702,0.0,0.0,-1.3024,-1.2488,-1.2806,-1.3092,-1.3227,-1.3391,-1.3551,-1.3733,-1.3841,-1.3888,-1.3888,-1.406,-1.4203,-1.4294,-1.4635,-1.4923,-1.5158,-1.5284,-1.5333,-1.5295,-1.5333,-1.5363,-1.5422,0.0,-1.6193,-1.6734,-1.7089,-1.7225,-1.7152,-1.672,-1.6269,-1.5857,-1.5405,-1.5274,-1.5294,-1.524,-1.5241,-1.5284,-1.5163,-1.5157,-1.5174,-1.5056,-1.4912,-1.4784,-1.4719,-1.4658,-1.4592,-1.4592,-1.4685,-1.4764,-1.4793,-1.4794,-1.4794,-1.4794,-1.4776,-1.4709,-1.4585,-1.4403,-1.4228,-1.4091,-1.3941,-1.3841,-1.3856,-1.3746,-1.3695,-1.3817,-1.3374,-1.3092,-1.3171,-1.2824,-1.2597,-1.2597,-1.2662,-1.2832,-1.3113,-1.3464,-1.3932,-1.4568,-1.4497,-1.4227,-1.3789,-1.3353,-1.2918,-1.2473,-1.3439,-1.3744,-1.3522,-1.4317,-1.4547,-0.7671,-0.6948,-0.6167,-0.6356,0.0,0.0,0.0,0.0,0.0,0.0,0.0,0.0,0.0,-0.9313,0.0,-1.1088,-1.1976,-1.254,-1.2318,-1.2605,-1.265,-1.2157,-1.2348,-1.2238,-1.1505,-1.1975,-1.2412,-1.2708,-1.2911,-1.3176,-1.3508,-1.3686,-1.3765,-1.3765,-1.392,-1.4047,-1.4143,-1.4342,-1.4635,-1.4985,-1.5134,-1.5181,-1.5134,-1.5257,-1.5318,-1.5314,-1.5538,-1.6033,-1.6719,-1.6853,-1.6782,-1.6589,-1.6532,-1.6008,-1.5284,-1.5274,-1.5299,-1.5309,-1.5299,-1.5308,-1.5298,-1.5308,-1.5303,-1.5275,-1.5174,-1.5042,-1.4879,-1.4784,-1.468,-1.4603,-1.4611,-1.4685,-1.4774,-1.4803,-1.4794,-1.4794,-1.4794,-1.4841,-1.4868,-1.4717,-1.4526,-1.4349,-1.4201,-1.3963,-1.3809,-1.3873,-1.3841,-1.3914,-1.4145,-1.3795,-1.3532,-1.3568,-1.3138,-1.286,-1.2875,-1.2777,-1.2999,-1.36,-1.3684,-1.3914,-1.4349,-1.4585,-1.4497,-1.4084,-1.3742,-1.3319,-1.2803,-1.3751,-1.4038,-1.3778,-1.4511,-1.4824,-0.7144,-0.6605,-0.5833,-0.5848,-0.5346,0.0,-0.5902,-0.5577,0.0,-0.6572,0.0,0.0,0.0,-0.9462,-1.0381,-1.2097,-1.1687,-1.1489,-1.244,0.0,-1.2296,-1.2117,-1.222,-1.2271,-1.2148,-1.2407,-1.2636,-1.2781,-1.2979,-1.3173,-1.3312,-1.3328,-1.3345,-1.3345,-1.3589,-1.3831,-1.402,-1.4208,-1.4416,-1.4644,-1.4655,-1.4668,-1.4652,-1.4902,-1.5033,-1.5095,-1.6132,-1.6637,-1.6755,-1.7503,-1.7335,-1.6596,-1.6522,-1.597,-1.5201,-1.5204,-1.526,-1.5293,-1.5309,-1.5293,-1.5307,-1.5298,-1.5303,-1.5303,-1.5299,-1.512,-1.4896,-1.4887,-1.4748,-1.46,-1.4603,-1.4656,-1.4717,-1.4793,-1.4794,-1.4794,-1.4794,-1.4841,-1.4832,-1.4656,-1.4497,-1.4338,-1.4149,-1.3934,-1.3809,-1.3809,-1.3856,-1.3995,-1.4344,-1.423,-1.4043,-1.3796,-1.3693,-1.3652,-1.3709,-1.3141,-1.3159,-1.4006,-1.3835,-1.3789,-1.4041,-1.4457,-1.4465,-1.4032,-1.4019,-1.3622,-1.2803,-1.3545,-1.4049,-1.4261,-1.4155,-1.4722,-0.7222,-0.6811,-0.6322,-0.6709,-0.5933,0.0,0.0,-0.5312,-0.5093,-0.6461,-0.6756,0.0,0.0,0.0,-1.0453,-1.2113,-1.1614,-1.1227,-1.1885,-1.1924,-1.1854,-1.1854,-1.1976,-1.1933,-1.1615,-1.1811,-1.1924,-1.1815,-1.2345,-1.2689,-1.2734,-1.309,-1.3295,-1.3295,-1.3409,-1.3487,-1.3567,-1.3634,-1.3775,-1.3984,-1.4406,-1.4595,-1.4604,-1.4891,-1.4994,-1.5033,-1.5638,-1.6206,-1.6676,-1.6391,-1.642,-1.6542,-1.5927,-1.5485,-1.5195,-1.5199,-1.522,-1.5236,-1.525,-1.5265,-1.5308,-1.5294,-1.5294,-1.5303,-1.5303,-1.5168,-1.5021,-1.497,-1.4857,-1.4717,-1.4614,-1.4654,-1.4714,-1.4736,-1.4774,-1.4794,-1.4794,-1.4823,-1.4822,-1.4794,-1.4678,-1.4523,-1.4326,-1.4157,-1.4009,-1.3886,-1.3841,-1.3995,-1.4415,-1.4318,-1.4275,-1.4453,-1.4057,-1.3597,-1.3206,-1.2954,-1.2945,-1.3277,-1.3472,-1.3718,-1.3999,-1.4321,-1.4479,-1.4433,-1.3888,-1.3454,-1.3182,-1.335,-1.3758,-1.4301,-1.4404,-1.5024,-0.748,-0.7029,-0.6483,-0.7089,0.0,0.0,-0.5939,-0.5529,-0.5302,-0.6619,-0.7446,0.0,0.0,0.0,0.0,0.0,-1.1387,-1.1005,-1.1498,-1.1571,-1.1571,-1.1571,-1.1652,-1.1586,-1.1247,-1.1437,-1.1468,-1.125,-1.1794,-1.2133,-1.2081,-1.2476,-1.2734,-1.2789,-1.2878,-1.2985,-1.3107,-1.3193,-1.3329,-1.3508,-1.4021,-1.4316,-1.4397,-1.4665,-1.4785,-1.4795,-1.5121,-1.5607,-1.6113,-1.5532,-1.5649,-1.6122,-1.5463,-1.521,-1.5207,-1.5193,-1.5204,-1.519,-1.5196,-1.5231,-1.5289,-1.5309,-1.5294,-1.5308,-1.5308,-1.521,-1.5088,-1.4985,-1.4881,-1.4766,-1.4624,-1.4651,-1.4693,-1.4705,-1.4744,-1.4774,-1.4803,-1.4804,-1.4804,-1.4868,-1.4738,-1.4587,-1.4437,-1.4277,-1.4105,-1.3933,-1.3856,-1.3978,-1.4434,-1.4538,-1.4701,-1.5095,-1.4304,-1.3661,-1.3428,-1.2996,-1.2854,-1.3096,-1.3351,-1.3601,-1.3837,-1.4209,-1.4461,-1.462,-1.4032,-1.3622,-1.3374,-1.3287,-1.3627,-1.4301,-1.4376,-1.5043,-0.786,-0.7148,-0.6139,0.0,0.0,0.0,-0.6217,-0.6369,-0.632,-0.7142,0.0,-1.0247,-0.9883,0.0,0.0,-1.1454,-1.0986,-1.0747,-1.1416,-1.1504,-1.1458,-1.1322,-1.1307,-1.1307,-1.1285,-1.1415,-1.1445,-1.1296,-1.1483,-1.1535,-1.1387,-1.1387,-1.1513,-1.1702,-1.1963,-1.2289,-1.2692,-1.2961,-1.3173,-1.3295,-1.3492,-1.37,-1.3903,-1.4174,-1.4297,-1.4335,-1.4805,-1.4995,-1.5015,-1.522,-1.5306,-1.5284,-1.5236,-1.5201,-1.5201,-1.5207,-1.5193,-1.5201,-1.519,-1.5241,-1.5298,-1.5308,-1.5308,-1.5308,-1.5298,-1.5204,-1.5061,-1.495,-1.4854,-1.4757,-1.4635,-1.4643,-1.4674,-1.4701,-1.4695,-1.4717,-1.4775,-1.4813,-1.4794,-1.4794,-1.4639,-1.4482,-1.4422,-1.4224,-1.4058,-1.3918,-1.3888,-1.4044,-1.4451,-1.4972,-1.5397,-1.5663,-1.4514,-1.3978,-1.4642,-1.348,-1.3006,-1.3746,-1.3611,-1.3513,-1.3513,-1.4062,-1.4397,-1.4397,-1.4588,-1.4241,-1.3319,-1.3387,-1.3724,-1.4289,-1.3969,-1.4859,-0.6292,-0.5858,0.0,-0.5866,0.0,0.0,0.0,-0.5215,0.0,0.0,-0.7672,-0.8328,-0.9577,0.0,0.0,-1.1201,-1.1124,-1.1073,-1.1504,-1.1532,-1.1556,-1.1777,-1.1421,-1.1134,-1.1082,-1.1121,-1.0963,-1.0494,-1.0912,-1.1144,-1.1052,-1.1446,-1.1723,-1.1846,-1.2071,-1.2195,-1.2276,-1.2526,-1.2738,-1.2877,-1.3227,-1.3476,-1.3715,-1.4217,-1.4472,-1.4541,-1.5003,-1.5204,-1.5212,-1.5277,-1.5303,-1.5302,-1.5278,-1.5265,-1.5275,-1.5265,-1.5265,-1.5275,-1.527,-1.5284,-1.5298,-1.5298,-1.5298,-1.5306,-1.5303,-1.5268,-1.5212,-1.5135,-1.4651,-1.4134,-1.4001,-1.3563,-1.3396,-1.4399,-1.4666,-1.4707,-1.4727,-1.4765,-1.4794,-1.4794,-1.4785,-1.4698,-1.4446,-1.435,-1.4227,-1.393,-1.3856,-1.4104,-1.4903,-1.5158,-1.5402,-1.5663,-1.5328,-1.4818,-1.4058,-1.3615,-1.3283,-1.2975,-1.3296,-1.3502,-1.3513,-1.4032,-1.4365,-1.4397,-1.4241,-1.4066,-1.3854,-1.3278,-1.335,-1.4073,-1.4249,-1.4877,-0.6599,-0.6326,0.0,-0.6452,-0.5761,-0.4947,-0.4796,0.0,0.0,0.0,0.0,-0.8429,-0.9417,-0.9595,0.0,-1.0949,-1.107,-1.1199,-1.1668,-1.168,-1.1729,-1.1939,-1.1615,-1.1282,-1.1011,-1.1176,-1.1031,-1.0391,-1.0887,-1.1162,-1.1057,-1.1275,-1.1499,-1.1739,-1.1763,-1.1839,-1.1982,-1.2185,-1.2412,-1.2671,-1.2985,-1.3278,-1.3575,-1.4056,-1.4349,-1.4513,-1.4985,-1.5226,-1.5301,-1.5299,-1.5302,-1.5302,-1.5302,-1.5298,-1.5303,-1.5303,-1.5303,-1.5303,-1.5303,-1.5293,-1.5306,-1.5306,-1.5306,-1.5295,-1.5292,-1.5311,-1.5295,-1.5226,-1.4574,-1.3859,-1.3736,-1.3094,-1.278,-1.3893,-1.4204,-1.4344,-1.4634,-1.4737,-1.4813,-1.4813,-1.4832,-1.4756,-1.4451,-1.4409,-1.4296,-1.4002,-1.3915,-1.4206,-1.5128,-1.5271,-1.5501,-1.5996,-1.5803,-1.5225,-1.4142,-1.3813,-1.335,-1.2632,-1.3038,-1.3352,-1.3487,-1.4016,-1.4332,-1.4365,-1.4176,-1.3973,-1.3743,-1.3478,-1.3557,-1.4061,-1.4614,-1.51,-0.7858,0.0,0.0,-0.7606,-0.6242,0.0,-0.5779,-0.6478,-0.7428,-0.9202,0.0,-0.9613,-0.9326,-0.9552,-0.9992,-1.0676,-1.0898,-1.1212,-1.1831,-1.1908,-1.1921,-1.1912,-1.1848,-1.158,-1.1041,-1.1382,-1.1345,-1.0716,-1.1128,-1.138,-1.132,-1.1044,-1.1077,-1.1495,-1.1291,-1.1376,-1.1783,-1.1961,-1.2215,-1.2572,-1.2822,-1.3074,-1.3393,-1.3691,-1.3971,-1.4286,-1.4714,-1.5058,-1.5309,-1.5307,-1.5293,-1.5289,-1.5207,-1.5187,-1.5168,-1.5095,-1.5076,-1.5076,-1.5076,-1.5123,-1.5179,-1.5097,-1.5179,-1.5299,-1.5214,-1.5245,-1.5298,-1.5246,-1.4521,-1.3771,-1.3642,-1.2964,-1.2497,-1.3232,-1.3503,-1.3811,-1.456,-1.4765,-1.4813,-1.4794,-1.4794,-1.4726,-1.4451,-1.4404,-1.432,-1.404,-1.3998,-1.4298,-1.5126,-1.5282,-1.5632,-1.6447,-1.6032,-1.543,-1.4757,-1.4082,-1.3404,-1.2708,-1.2876,-1.3142,-1.3477,-1.396,-1.4264,-1.43,-1.4365,-1.4066,-1.3333,-1.3856,-1.4125,-1.4149,-1.4996,-1.5441,-0.6166,-0.5674,0.0,0.0,-0.5133,-0.5426,-0.813,-0.7954,-0.7461,-0.8286,-0.7945,-0.7826,-0.8949,-0.8902,-0.9151,-1.0503,-1.0795,-1.1136,-1.1932,-1.2019,-1.2017,-1.2104,-1.19,-1.1495,-1.0967,-1.0912,-1.0775,-1.0493,-1.0575,-1.0849,-1.1357,-1.1395,-1.1505,-1.1666,-1.1693,-1.1703,-1.1637,-1.2045,-1.2287,-1.2368,-1.285,-1.2891,-1.2574,-1.2993,-1.3452,-1.3927,-1.4073,-1.4602,-1.5366,-1.5326,-1.5303,-1.5229,-1.4549,-1.4274,-1.4196,-1.3574,-1.3349,-1.3349,-1.3349,-1.3783,-1.426,-1.3551,-1.424,-1.5183,-1.4558,-1.4833,-1.5387,-1.5359,-1.4236,-1.3029,-1.3003,-1.1888,-1.1107,-1.2417,-1.3219,-1.3887,-1.4625,-1.4832,-1.486,-1.4823,-1.4841,-1.4747,-1.4398,-1.4362,-1.432,-1.404,-1.3995,-1.4197,-1.4761,-1.5153,-1.5579,-1.6086,-1.6285,-1.6117,-1.5446,-1.4766,-1.4085,-1.3341,-1.3058,-1.3056,-1.3399,-1.3742,-1.4045,-1.4287,-1.4365,-1.4398,-1.4374,-1.4186,-1.4209,-1.4432,-1.4929,-1.5201,0.0,0.0,0.0,-0.6023,0.0,-0.6917,-0.8204,-0.8189,-0.8002,-0.8229,-0.7965,-0.7893,-0.8623,-0.8626,-0.8817,-0.984,-1.0321,-1.0798,-1.1517,-1.188,-1.2083,-1.2139,-1.1986,-1.1548,-1.0709,-1.1099,-1.1165,-1.0484,-1.1014,-1.1511,-1.1841,-1.1578,-1.1475,-1.1609,-1.1308,-1.1225,-1.1347,-1.1688,-1.203,-1.2356,-1.2403,-1.2056,-1.1425,-1.2216,-1.2723,-1.3029,-1.3632,-1.4194,-1.4702,-1.5095,-1.5245,-1.5206,-1.4794,-1.4622,-1.451,-1.3716,-1.3425,-1.3353,-1.2934,-1.3103,-1.3398,-1.296,-1.338,-1.4026,-1.3607,-1.3797,-1.4157,-1.4167,-1.3206,-1.2178,-1.2225,-1.1268,-1.0683,-1.2181,-1.2873,-1.3468,-1.4567,-1.4859,-1.4887,-1.4804,-1.4823,-1.4747,-1.4416,-1.4264,-1.4167,-1.4068,-1.4054,-1.4206,-1.4641,-1.5107,-1.555,-1.5954,-1.607,-1.5848,-1.5169,-1.479,-1.4142,-1.3083,-1.3134,-1.3259,-1.3385,-1.3536,-1.3825,-1.4273,-1.4332,-1.4353,-1.4302,-1.4361,-1.4432,-1.4523,-1.5133,-1.5395,0.0,0.0,-0.7331,-0.7326,-0.7766,0.0,-0.762,-0.7955,-0.8366,-0.8439,-0.8516,-0.8533,-0.841,-0.8477,-0.8696,-0.9161,-0.9624,-1.0135,-1.0686,-1.1166,-1.1492,-1.1545,-1.1712,-1.1389,-1.0386,-1.1335,-1.1603,-1.0527,-1.1464,-1.2081,-1.2162,-1.1519,-1.1318,-1.165,-1.0992,-1.0818,-1.1182,-1.1352,-1.1696,-1.2137,-1.1679,-1.1074,-1.0388,-1.126,-1.1741,-1.1975,-1.2969,-1.3483,-1.3705,-1.4604,-1.4981,-1.499,-1.5059,-1.5086,-1.4955,-1.4008,-1.3648,-1.3525,-1.266,-1.2477,-1.2574,-1.2428,-1.2557,-1.2766,-1.2612,-1.2675,-1.2808,-1.2808,-1.2173,-1.1523,-1.1581,-1.0955,-1.0683,-1.2232,-1.261,-1.3017,-1.4506,-1.4886,-1.4895,-1.4813,-1.4747,-1.4656,-1.4446,-1.4198,-1.4023,-1.4082,-1.41,-1.4214,-1.4551,-1.5078,-1.5487,-1.5697,-1.5631,-1.5335,-1.4648,-1.4474,-1.3905,-1.2751,-1.3083,-1.3358,-1.3399,-1.3403,-1.3685,-1.4305,-1.4332,-1.423,-1.4013,-1.4498,-1.4695,-1.4621,-1.5379,-1.565,0.0,0.0,-0.6766,0.0,-0.6991,-0.6845,0.0,0.0,-0.7489,0.0,-0.8386,-0.8488,-0.8421,-0.8365,-0.8553,-0.9182,-0.8818,-0.8716,-0.9368,-0.9111,-0.9009,-0.93,-1.0108,-1.0513,-1.0164,-1.0965,-1.1148,-1.0295,-1.0499,-1.0845,-1.1244,-1.1131,-1.1408,-1.2164,-1.2039,-1.1814,-1.1543,-1.1615,-1.1482,-1.1164,-1.0707,-1.039,-1.0221,-0.9967,-1.0312,-1.1165,-1.1318,-1.1858,-1.268,-1.366,-1.4061,-1.4084,-1.4159,-1.4174,-1.3976,-1.2415,-1.1845,-1.1738,-1.0918,-1.1132,-1.1637,-1.0879,-1.162,-1.2664,-1.1902,-1.2205,-1.2801,-1.2801,-1.2177,-1.1523,-1.1581,-1.0953,-1.0682,-1.224,-1.2594,-1.303,-1.4631,-1.4982,-1.4938,-1.4813,-1.4571,-1.4393,-1.4464,-1.4229,-1.4026,-1.41,-1.41,-1.4122,-1.4168,-1.4899,-1.5188,-1.4582,-1.5166,-1.5335,-1.4648,-1.4,-1.3573,-1.3384,-1.2909,-1.2858,-1.337,-1.3403,-1.3713,-1.4369,-1.4397,-1.4445,-1.4515,-1.4713,-1.492,-1.5106,-1.5286,-1.5498,-0.5672,-0.5805,-0.6059,0.0,-0.7472,-0.6932,-0.8394,0.0,-0.7635,-0.8154,-0.8023,-0.7888,-0.8099,-0.8099,-0.8142,-0.8357,-0.844,-0.8462,-0.849,-0.8668,-0.873,-0.8617,-0.9023,-0.9086,-0.8617,-0.9512,-0.9804,-0.9139,-1.0134,-1.0856,-1.1017,-1.1039,-1.1142,-1.1454,-1.1034,-1.0786,-1.0835,-1.0885,-1.0774,-1.0439,-1.0272,-1.0024,-0.9697,-0.9517,-1.0007,-1.1023,-1.1551,-1.2343,-1.3277,-1.3712,-1.3903,-1.3859,-1.3318,-1.3059,-1.2831,-1.1611,-1.1123,-1.0943,-1.0254,-1.0268,-1.0546,-1.0326,-1.0779,-1.1328,-1.0937,-1.1093,-1.1401,-1.1401,-1.1128,-1.0835,-1.0859,-1.0582,-1.0699,-1.2232,-1.2597,-1.3034,-1.4654,-1.5006,-1.4979,-1.4919,-1.4587,-1.4338,-1.4474,-1.4193,-1.3966,-1.4023,-1.4037,-1.4037,-1.4037,-1.4813,-1.5235,-1.4883,-1.5273,-1.5278,-1.4648,-1.43,-1.3937,-1.3526,-1.3226,-1.332,-1.3938,-1.3592,-1.3713,-1.4401,-1.4397,-1.4474,-1.4666,-1.4747,-1.4887,-1.5109,-1.5223,-1.5428,0.0,0.0,-0.5396,-0.7806,-0.7287,-0.653,0.0,0.0,-0.7372,0.0,-0.7675,-0.7383,-0.7694,-0.7654,-0.7564,-0.7592,-0.7838,-0.7861,-0.7472,-0.7806,-0.8031,-0.7821,-0.7943,-0.7861,-0.75,-0.8342,-0.8737,-0.8264,-0.9562,-1.0441,-1.064,-1.0594,-1.0707,-1.0922,-1.0331,-1.0095,-1.0262,-1.0116,-0.9954,-0.9782,-0.9872,-0.9703,-0.9305,-0.9404,-1.0042,-1.1056,-1.1755,-1.2616,-1.3532,-1.3539,-1.3529,-1.3455,-1.271,-1.236,-1.216,-1.1297,-1.0917,-1.0751,-1.0079,-0.987,-0.9929,-1.0123,-1.0242,-1.0302,-1.0301,-1.0308,-1.0292,-1.0293,-1.0293,-1.0293,-1.0292,-1.0291,-1.0683,-1.2226,-1.2606,-1.3036,-1.4654,-1.4987,-1.4987,-1.5003,-1.4622,-1.4349,-1.4489,-1.4175,-1.392,-1.3991,-1.3991,-1.4005,-1.4023,-1.4795,-1.5248,-1.5064,-1.5185,-1.5026,-1.4379,-1.4316,-1.4079,-1.3526,-1.3494,-1.3737,-1.429,-1.373,-1.3724,-1.4311,-1.4428,-1.4556,-1.4714,-1.4813,-1.489,-1.5005,-1.516,-1.5345,0.0,-0.4762,0.0,-0.6215,0.0,0.0,0.0,0.0,0.0,-0.7266,-0.7356,-0.7236,-0.739,-0.6999,-0.6811,-0.7243,-0.6669,-0.6142,-0.6106,-0.5689,-0.5585,-0.6073,-0.6625,-0.7155,-0.7532,-0.8152,-0.8471,-0.8299,-0.8317,-0.8751,-0.9609,-0.9556,-1.0026,-1.1228,-1.099,-1.0721,-1.0507,-0.9723,-0.9277,-0.9149,-0.9346,-0.9388,-0.93,-0.9498,-1.0135,-1.1098,-1.1084,-1.1642,-1.258,-1.2578,-1.2545,-1.2487,-1.2486,-1.2444,-1.2299,-1.1476,-1.1227,-1.1149,-1.0296,-1.0075,-1.0185,-1.0199,-1.0251,-1.0304,-1.0302,-1.0301,-1.0304,-1.031,-1.0293,-1.0293,-1.0305,-1.0292,-1.0697,-1.222,-1.2607,-1.3034,-1.4654,-1.4944,-1.4928,-1.4995,-1.467,-1.4409,-1.4489,-1.4175,-1.392,-1.3991,-1.3991,-1.4023,-1.41,-1.4865,-1.514,-1.4422,-1.4529,-1.4347,-1.3621,-1.3557,-1.3542,-1.3494,-1.3494,-1.3671,-1.401,-1.3689,-1.3697,-1.4113,-1.4485,-1.4683,-1.4714,-1.4899,-1.498,-1.5005,-1.5061,-1.5165,0.0,0.0,0.0,-0.5726,-0.5179,-0.4668,-0.6313,-0.62,-0.5959,-0.675,-0.6517,-0.6307,-0.6808,-0.6739,-0.6664,-0.6881,-0.6665,-0.6345,-0.6059,-0.592,-0.5803,-0.5619,-0.5819,-0.6009,-0.6182,-0.6657,-0.6959,-0.6944,-0.7508,-0.8307,-0.9243,-0.9355,-0.9854,-1.0819,-1.0516,-1.0161,-0.9786,-0.9385,-0.9165,-0.9098,-0.921,-0.9299,-0.9359,-0.9492,-1.0105,-1.1106,-1.1067,-1.1611,-1.2511,-1.2497,-1.2126,-1.1557,-1.1539,-1.1091,-1.0444,-1.0195,-1.0044,-0.9949,-0.9879,-0.9877,-0.992,-1.0135,-1.0212,-1.0232,-1.0234,-1.0232,-1.0245,-1.0248,-1.0269,-1.031,-1.0291,-1.0307,-1.0698,-1.2293,-1.3415,-1.4313,-1.4935,-1.5019,-1.4984,-1.5057,-1.483,-1.4629,-1.4515,-1.4271,-1.4074,-1.3949,-1.398,-1.4009,-1.4037,-1.4534,-1.4905,-1.4992,-1.5256,-1.5272,-1.4877,-1.4861,-1.4861,-1.4861,-1.4442,-1.4343,-1.4633,-1.4167,-1.3934,-1.4099,-1.4269,-1.4477,-1.4714,-1.4825,-1.4887,-1.4864,-1.4959,-1.5052,-0.3663,0.0,0.0,0.0,0.0,-0.4056,-0.5479,0.0,-0.5736,-0.628,-0.6095,-0.598,-0.6481,-0.6302,-0.619,-0.6582,-0.655,-0.6272,-0.5689,-0.5682,-0.5539,-0.4961,-0.5095,-0.5184,-0.5184,-0.5595,-0.5971,-0.6273,-0.6873,0.0,-0.8552,-0.8972,-0.956,-1.0378,-1.0126,-0.9815,-0.9409,-0.9265,-0.9169,-0.9108,-0.9177,-0.9275,-0.9411,-0.9435,-0.9893,-1.062,-1.0584,-1.1308,-1.2473,-1.2152,-1.163,-1.0967,-1.0677,-1.0094,-0.9412,-0.9554,-0.951,-0.945,-0.9768,-0.9843,-0.9873,-1.0087,-1.0177,-1.0205,-1.021,-1.0193,-1.0193,-1.0193,-1.0236,-1.0263,-1.0272,-1.0678,-1.134,-1.2411,-1.387,-1.5003,-1.5068,-1.5049,-1.5057,-1.5085,-1.4933,-1.4766,-1.4612,-1.4379,-1.4149,-1.4028,-1.4009,-1.3998,-1.3991,-1.4371,-1.4828,-1.5362,-1.5523,-1.5597,-1.5613,-1.5605,-1.5605,-1.5605,-1.5169,-1.4915,-1.4881,-1.4406,-1.4076,-1.3936,-1.4139,-1.4369,-1.4624,-1.4782,-1.4862,-1.4852,-1.4918,-1.5081,0.0,0.0,0.0,0.0,0.0,0.0,-0.3783,0.0,-0.5068,-0.5808,-0.6094,-0.6273,-0.6449,-0.5663,-0.5338,-0.6297,-0.6174,-0.5674,-0.4888,-0.4801,-0.4578,-0.3949,-0.4399,-0.4801,-0.4801,-0.5168,-0.5682,-0.6435,-0.6299,-0.6589,-0.7525,-0.8358,-0.9161,-0.9985,-0.9985,-0.9825,-0.9401,-0.9398,-0.9303,-0.9108,-0.9166,-0.9254,-0.9398,-0.9391,-0.9498,-0.9688,-0.9559,-1.0609,-1.2353,-1.1465,-1.096,-1.0698,-1.0005,-0.9595,-0.943,-0.9696,-0.98,-0.9813,-0.9953,-1.0051,-1.0087,-1.011,-1.0145,-1.02,-1.02,-1.02,-1.0202,-1.0202,-1.0202,-1.0208,-1.0191,-1.1414,-1.2635,-1.2603,-1.3838,-1.5003,-1.5,-1.5049,-1.5097,-1.5092,-1.495,-1.4821,-1.4793,-1.4493,-1.4214,-1.419,-1.4087,-1.3995,-1.3991,-1.4401,-1.4864,-1.5345,-1.5159,-1.5166,-1.5597,-1.5636,-1.5636,-1.5636,-1.5636,-1.532,-1.463,-1.4366,-1.4014,-1.3623,-1.406,-1.4355,-1.4501,-1.4762,-1.4931,-1.5006,-1.5,-1.5381,-0.2224,0.0,0.0,0.0,0.0,0.0,0.0,0.0,0.0,-0.4641,-0.4809,-0.5015,-0.5595,-0.5312,-0.5132,-0.5505,-0.5124,-0.4666,-0.4355,-0.4312,-0.4176,-0.3953,-0.4041,-0.4308,-0.4757,-0.5,-0.5392,0.0,-0.6007,-0.6353,-0.7337,-0.8406,-0.9337,-1.0059,-0.9952,-0.9772,-0.9627,-0.9482,-0.9303,-0.9108,-0.9136,-0.9168,-0.926,-0.9358,-0.9466,-0.9565,-0.9568,-0.9884,-1.0438,-1.0961,-1.0642,-0.9909,-1.0372,-1.0115,-0.9488,-0.9614,-0.975,-0.9886,-0.9968,-0.9973,-0.9972,-1.0063,-1.0086,-1.0058,-1.0105,-1.0136,-1.0135,-1.0135,-1.0132,-1.0132,-1.0187,-1.1854,-1.3393,-1.281,-1.3863,-1.4995,-1.5,-1.5049,-1.5097,-1.5092,-1.5064,-1.4965,-1.4839,-1.471,-1.4529,-1.4234,-1.4175,-1.4096,-1.3949,-1.4085,-1.4465,-1.5195,-1.5247,-1.5484,-1.6186,-1.6312,-1.6338,-1.6338,-1.6338,-1.5826,-1.4646,-1.477,-1.446,-1.3623,-1.4005,-1.4369,-1.4624,-1.4708,-1.4796,-1.4849,-1.4937,-1.5381,0.0,0.0,0.0,0.0,0.0,0.0,-0.2746,-0.3056,-0.343,0.0,-0.4055,-0.4293,-0.4704,-0.4505,-0.4332,-0.4459,-0.3975,-0.3637,-0.377,-0.3785,-0.3697,-0.3337,-0.3473,-0.3737,-0.4096,-0.447,-0.4967,-0.5577,-0.5658,-0.6243,-0.7612,-0.8521,-0.9301,-1.0049,-1.0176,-1.0158,-1.0016,-0.9847,-0.9667,-0.9484,-0.9232,-0.9139,-0.921,-0.9262,-0.9369,-0.9497,-0.9506,-0.9575,-0.9691,-1.0324,-1.0124,-0.9475,-1.0009,-0.9867,-0.9359,-0.957,-0.9678,-0.975,-0.9898,-0.9906,-0.9868,-0.9984,-0.9984,-0.9968,-1.0068,-1.0104,-1.0101,-1.0101,-1.0094,-1.0108,-1.015,-1.1499,-1.2746,-1.2264,-1.3103,-1.4008,-1.4005,-1.4038,-1.4264,-1.4953,-1.5092,-1.5052,-1.495,-1.4856,-1.4729,-1.4493,-1.4302,-1.417,-1.4038,-1.4023,-1.4321,-1.5101,-1.523,-1.5588,-1.6391,-1.649,-1.6517,-1.6517,-1.6276,-1.5681,-1.4607,-1.4531,-1.4203,-1.3557,-1.3835,-1.4213,-1.4714,-1.4746,-1.4787,-1.4894,-1.4974,-1.5338,0.0,0.0,0.0,0.0,0.0,0.0,-0.2351,-0.2749,-0.3138,0.0,-0.3612,-0.3842,-0.3853,-0.3517,-0.3302,-0.3418,-0.2997,-0.2805,-0.329,-0.3344,-0.3123,-0.262,-0.2896,-0.317,-0.3214,-0.3823,-0.4447,-0.4994,-0.5345,-0.6292,-0.807,-0.8496,-0.911,-0.9941,-1.05,-1.0682,-1.0487,-1.037,-1.0186,-0.9994,-0.9379,-0.9123,-0.9172,-0.9113,-0.9237,-0.9454,-0.9421,-0.9517,-0.9674,-0.9654,-0.9524,-0.9292,-0.9313,-0.9228,-0.9146,-0.9484,-0.9554,-0.9508,-0.9706,-0.9731,-0.9682,-0.9744,-0.9738,-0.9726,-0.9857,-0.9938,-1.0001,-1.0063,-1.0154,-1.0215,-1.0133,-1.082,-1.1501,-1.1424,-1.2009,-1.2593,-1.2601,-1.2598,-1.3042,-1.4533,-1.4826,-1.4852,-1.4947,-1.4825,-1.4725,-1.4802,-1.4415,-1.4138,-1.4101,-1.3971,-1.4178,-1.4914,-1.5084,-1.5452,-1.6255,-1.6327,-1.6358,-1.6382,-1.5915,-1.5276,-1.4522,-1.4076,-1.3712,-1.3439,-1.3627,-1.405,-1.4714,-1.4777,-1.4863,-1.4993,-1.4992,-1.529,0.0,0.0,0.0,0.0,-0.1176,0.0,-0.1435,-0.167,-0.2043,0.0,-0.2905,-0.3092,-0.3488,-0.3233,-0.2991,-0.3023,-0.2919,-0.2892,-0.3054,-0.293,-0.2827,-0.2808,-0.2713,-0.2815,-0.3309,-0.3595,-0.4003,-0.465,-0.5286,-0.6381,-0.7953,-0.8095,-0.8667,-0.9823,-1.0378,-1.0601,-1.0487,-1.0323,-1.0106,-0.9907,-0.9262,-0.8946,-0.8957,-0.9046,-0.9143,-0.9179,-0.939,-0.95,-0.9532,-0.9433,-0.934,-0.9303,-0.9295,-0.9249,-0.9165,-0.9026,-0.913,-0.9312,-0.9081,-0.893,-0.8833,-0.8852,-0.8712,-0.8544,-0.8561,-0.8913,-0.94,-0.9892,-1.0565,-1.0974,-1.0271,-1.1224,-1.2205,-1.1543,-1.2016,-1.2601,-1.2591,-1.2591,-1.2709,-1.3017,-1.3094,-1.3313,-1.4002,-1.4099,-1.4249,-1.4725,-1.4175,-1.3663,-1.3508,-1.3313,-1.3369,-1.3775,-1.4366,-1.5024,-1.5783,-1.5886,-1.6057,-1.6378,-1.63,-1.5712,-1.4538,-1.4609,-1.4166,-1.3121,-1.3651,-1.4183,-1.4714,-1.4777,-1.4863,-1.498,-1.5004,-1.5282,0.0,0.0,0.0,-0.0577,-0.0757,0.0,0.0,-0.0901,-0.1192,-0.1381,-0.1557,-0.1739,-0.1825,-0.1805,-0.1791,-0.193,-0.205,-0.224,-0.2469,-0.27,-0.2856,-0.2813,-0.2558,-0.2679,-0.3344,-0.3542,-0.402,-0.5125,-0.6024,-0.6989,-0.8062,-0.83,-0.8837,-0.9713,-1.0545,-1.0931,-1.0886,-1.1015,-1.084,-1.0393,-0.9702,-0.9233,-0.8894,-0.8973,-0.9021,-0.905,-0.919,-0.9267,-0.9295,-0.9272,-0.9212,-0.9148,-0.9157,-0.9078,-0.8932,-0.888,-0.8889,-0.8912,-0.8722,-0.8594,-0.8537,-0.846,-0.8359,-0.8246,-0.8254,-0.8649,-0.9156,-0.946,-1.0133,-1.065,-1.0204,-1.0715,-1.1266,-1.0891,-1.1106,-1.1405,-1.1406,-1.1385,-1.1365,-1.1405,-1.1399,-1.1801,-1.308,-1.3629,-1.401,-1.4304,-1.3921,-1.3567,-1.3456,-1.3227,-1.3166,-1.3474,-1.4159,-1.4795,-1.5298,-1.5373,-1.5558,-1.5987,-1.5453,-1.4893,-1.4468,-1.4008,-1.3582,-1.3265,-1.3734,-1.4192,-1.4556,-1.4433,-1.4612,-1.5018,-1.5018,-1.5306,0.0,0.0,0.0,0.0,0.0,-0.0499,0.0,0.0,0.0,-0.008,-0.0262,0.0,0.0,0.0,0.0,0.0,0.0,0.0,0.0,-0.2402,0.0,-0.2677,-0.2472,-0.2625,-0.322,-0.3529,-0.4245,-0.5621,-0.6594,-0.7377,-0.8021,-0.8456,-0.895,-0.9554,-1.0709,-1.1309,-1.1309,-1.1693,-1.159,-1.105,-1.0235,-0.9592,-0.9045,-0.8912,-0.889,-0.8932,-0.8993,-0.9023,-0.9095,-0.9141,-0.9094,-0.9003,-0.9022,-0.8888,-0.8708,-0.8779,-0.8677,-0.8513,-0.8363,-0.8309,-0.8259,-0.809,-0.8005,-0.7973,-0.8087,-0.8415,-0.8789,-0.8991,-0.9453,-0.9919,-0.9996,-1.0044,-1.0071,-1.015,-1.0143,-1.0136,-1.0138,-1.0094,-1.009,-1.0153,-1.0305,-1.0859,-1.2219,-1.3128,-1.372,-1.3881,-1.3627,-1.3425,-1.3425,-1.3133,-1.3007,-1.3219,-1.3974,-1.4604,-1.489,-1.4899,-1.506,-1.5392,-1.4501,-1.4036,-1.4194,-1.3173,-1.2855,-1.3477,-1.3751,-1.4024,-1.4332,-1.4076,-1.4289,-1.4967,-1.489,-1.5212,0.0,0.0,0.0,0.0,0.0323,0.0,0.0362,0.0,0.0431,0.0361,0.0,0.03,0.0,0.0,0.0,0.0,0.0,0.0,-0.1065,-0.1717,-0.2269,-0.2482,-0.2606,-0.2683,-0.2756,-0.3554,-0.4473,-0.544,-0.5818,-0.6408,-0.7426,-0.8047,-0.8578,-0.9056,-1.0563,-1.1343,-1.1309,-1.165,-1.1774,-1.1664,-1.0371,-0.9699,-0.9595,-0.8981,-0.8739,-0.8736,-0.8935,-0.8992,-0.9022,-0.9032,-0.9007,-0.9007,-0.9065,-0.8931,-0.8682,-0.8515,-0.8364,-0.8191,-0.7826,-0.7621,-0.7486,-0.7241,-0.6953,-0.6799,-0.7344,-0.7511,-0.768,-0.8575,-0.9019,-0.9301,-0.9643,-0.983,-0.993,-1.0014,-0.9984,-0.9925,-0.9859,-0.9939,-1.0016,-1.0028,-1.0691,-1.1328,-1.1509,-1.225,-1.3084,-1.3791,-1.327,-1.281,-1.281,-1.2506,-1.2287,-1.2271,-1.3346,-1.4213,-1.4533,-1.4565,-1.4621,-1.479,-1.4671,-1.4263,-1.3537,-1.2884,-1.2812,-1.3399,-1.3449,-1.3664,-1.4039,-1.3848,-1.4123,-1.4839,-1.4516,-1.4873,0.0,0.0,0.0,0.0,0.0,0.0,0.1087,0.0,0.0953,0.0,0.0,0.0,0.0,0.0,0.0,0.0,0.0492,0.0,0.0,0.0,-0.1363,0.0,0.0,0.0,-0.338,-0.4056,-0.4934,-0.6061,-0.5756,-0.6097,-0.7426,-0.7987,-0.8504,-0.9096,-1.0373,-1.1064,-1.1064,-1.1699,-1.1661,-1.0909,-1.0483,-0.9838,-0.9038,-0.8774,-0.8645,-0.8651,-0.8733,-0.8762,-0.8778,-0.8801,-0.8826,-0.8831,-0.8907,-0.8819,-0.8636,-0.8553,-0.842,-0.8209,-0.7941,-0.7693,-0.7446,-0.6979,-0.6865,-0.6902,-0.6891,-0.7074,-0.7386,-0.7815,-0.8243,-0.8612,-0.8787,-0.9106,-0.9397,-0.9462,-0.9669,-0.9837,-0.9855,-0.9865,-0.9914,-0.9992,-1.0318,-1.0752,-1.1308,-1.2506,-1.3171,-1.2545,-1.2584,-1.2511,-1.2011,-1.1779,-1.1805,-1.2114,-1.2939,-1.3685,-1.4162,-1.417,-1.4264,-1.4569,-1.4337,-1.3865,-1.3144,-1.2718,-1.2848,-1.3627,-1.3486,-1.3668,-1.4187,-1.3579,-1.3607,-1.4225,-1.4213,-1.4778,0.2687,0.0,0.0,0.0,0.0,0.0,0.0,0.0,0.0,0.0,0.0,0.0,0.0,0.0,0.0,0.0,0.0,0.1074,0.0,0.0347,0.0,0.0,0.0,0.0,0.0,-0.408,-0.4854,-0.6085,-0.5619,-0.5899,-0.7292,-0.7991,-0.8545,-0.8975,-1.0246,-1.0877,-1.0877,-1.167,-1.1648,-1.0884,-1.0879,-1.0273,-0.922,-0.8993,-0.8793,-0.86,-0.86,-0.8505,-0.8378,-0.8443,-0.835,-0.8237,-0.8277,-0.8248,-0.8187,-0.849,-0.8461,-0.8241,-0.7862,-0.7566,-0.7307,-0.6899,-0.703,-0.7287,-0.6948,-0.7117,-0.7406,-0.7385,-0.7764,-0.8134,-0.812,-0.8425,-0.8771,-0.8804,-0.9064,-0.9314,-0.9411,-0.95,-0.9601,-0.9744,-1.0058,-1.0525,-1.1255,-1.258,-1.3159,-1.1933,-1.2281,-1.2389,-1.1504,-1.1348,-1.1533,-1.2135,-1.273,-1.3329,-1.3941,-1.3944,-1.4005,-1.4247,-1.3816,-1.3403,-1.3022,-1.2753,-1.2962,-1.3686,-1.3568,-1.3714,-1.4169,-1.3498,-1.3388,-1.3816,-1.3871,-1.45,0.0,0.0,0.0,0.2615,0.0,0.0,0.0,0.0,0.18,0.0,0.0,0.0,0.0,0.0,0.0,0.0,0.0,0.0,0.0,0.0,0.0,0.0,0.0,0.0,0.0,-0.3264,-0.383,-0.5044,-0.5241,-0.5745,-0.6777,-0.7959,-0.8561,-0.8521,-1.0196,-1.1,-1.0804,-1.142,-1.1911,-1.2327,-1.1629,-1.1134,-1.0802,-1.0008,-0.9265,-0.86,-0.86,-0.8298,-0.7839,-0.7829,-0.7511,-0.7043,-0.7064,-0.7055,-0.7166,-0.82,-0.8483,-0.8185,-0.7326,-0.6942,-0.6836,-0.6874,-0.7248,-0.7688,-0.7732,-0.772,-0.7667,-0.7611,-0.7792,-0.799,-0.793,-0.8021,-0.8125,-0.8137,-0.8042,-0.8014,-0.8209,-0.8616,-0.8988,-0.9188,-1.0213,-1.1111,-1.1277,-1.2105,-1.2709,-1.2668,-1.2684,-1.2386,-1.1508,-1.1348,-1.1533,-1.2135,-1.273,-1.3329,-1.3941,-1.3938,-1.3833,-1.3652,-1.3175,-1.3048,-1.3288,-1.3029,-1.3047,-1.3417,-1.3671,-1.3796,-1.3808,-1.3656,-1.3658,-1.3779,-1.3591,-1.3921,0.543,0.5672,0.5652,0.4492,0.4262,0.4053,0.0,0.0,0.0,0.0,0.0,0.0,0.0,0.0,0.0,0.0,0.0,0.0,0.0,0.0,0.0,0.0,0.0,0.0,0.0,0.0,-0.3033,-0.4646,-0.4579,-0.4893,-0.5949,-0.7243,-0.7858,-0.7724,-0.9222,-1.004,-0.999,-1.0877,-1.1175,-1.0952,-1.1287,-1.0905,-0.9906,-0.966,-0.9194,-0.8521,-0.8156,-0.7831,-0.7526,-0.7575,-0.7425,-0.7161,-0.728,-0.7349,-0.733,-0.7384,-0.737,-0.7236,-0.6713,-0.6934,-0.7307,-0.6415,-0.6983,-0.7907,-0.7149,-0.7269,-0.7632,-0.7607,-0.7627,-0.7608,-0.7359,-0.7533,-0.771,-0.749,-0.7668,-0.7911,-0.7991,-0.8408,-0.8812,-0.8977,-0.9631,-1.0415,-1.1173,-1.2037,-1.2477,-1.1973,-1.2361,-1.2196,-1.0787,-1.0598,-1.0834,-1.1525,-1.2135,-1.2749,-1.3353,-1.3757,-1.3862,-1.3617,-1.3328,-1.3207,-1.3294,-1.2874,-1.2954,-1.3657,-1.3582,-1.3728,-1.4132,-1.3776,-1.3454,-1.3212,-1.3217,-1.3738,0.6459,0.6707,0.674,0.5781,0.5485,0.522,0.4429,0.0,0.3075,0.0,0.0,0.0,0.0,0.0,0.0,0.0,0.0,0.0,0.0,0.1123,0.0,0.0,0.0,0.0,0.0,-0.2004,-0.2617,-0.4207,-0.411,-0.4443,-0.5548,-0.6723,-0.7378,-0.7285,-0.8556,-0.927,-0.927,-0.9966,-1.0191,-0.9973,-1.0524,-1.0234,-0.9217,-0.9197,-0.8811,-0.8122,-0.7588,-0.7185,-0.6873,-0.6666,-0.6397,-0.6116,-0.6321,-0.6392,-0.6453,-0.6794,-0.6693,-0.6362,-0.6166,-0.651,-0.6913,-0.6031,-0.6637,-0.7601,-0.7086,-0.7255,-0.7656,-0.7685,-0.77,-0.7599,-0.7284,-0.7396,-0.7502,-0.7284,-0.7374,-0.7536,-0.7598,-0.789,-0.8197,-0.8436,-0.8955,-0.9701,-1.0812,-1.1574,-1.1904,-1.1548,-1.2479,-1.2578,-1.0874,-1.0652,-1.0941,-1.168,-1.2015,-1.2546,-1.3388,-1.3814,-1.3952,-1.3786,-1.3572,-1.3395,-1.329,-1.2959,-1.3054,-1.3643,-1.3596,-1.3798,-1.43,-1.3993,-1.3522,-1.2894,-1.2999,-1.3361]}]]